<?xml version="1.0" encoding="ISO-8859-1"?>
<gpx version="1.1" 
creator="Memory-Map 5.4.2.1089 http://www.memory-map.com"
 xmlns:xsi="http://www.w3.org/2001/XMLSchema-instance"
 xmlns="http://www.topografix.com/GPX/1/1"
 xsi:schemaLocation="http://www.topografix.com/GPX/1/1 http://www.topografix.com/GPX/1/1/gpx.xsd">
<trk>
<name>Snowdon Via The Pyg Track</name>
<type>Track</type>
<trkseg>
<trkpt lat="53.0804897068" lon="-4.0211229976"><ele>368</ele><time>2010-01-01T05:15:29Z</time></trkpt>
<trkpt lat="53.0804898744" lon="-4.0211229976"><ele>368</ele><time>2010-01-01T05:15:30Z</time></trkpt>
<trkpt lat="53.0804910479" lon="-4.0211244226"><ele>366</ele><time>2010-01-01T05:15:38Z</time></trkpt>
<trkpt lat="53.0804935624" lon="-4.0211227462"><ele>365</ele><time>2010-01-01T05:15:50Z</time></trkpt>
<trkpt lat="53.0804924728" lon="-4.0211367440"><ele>364</ele><time>2010-01-01T05:15:55Z</time></trkpt>
<trkpt lat="53.0804988430" lon="-4.0211144481"><ele>367</ele><time>2010-01-01T05:16:03Z</time></trkpt>
<trkpt lat="53.0804866893" lon="-4.0211041384"><ele>371</ele><time>2010-01-01T05:16:27Z</time></trkpt>
<trkpt lat="53.0804729429" lon="-4.0212326329"><ele>372</ele><time>2010-01-01T05:16:36Z</time></trkpt>
<trkpt lat="53.0804635552" lon="-4.0213794839"><ele>373</ele><time>2010-01-01T05:16:45Z</time></trkpt>
<trkpt lat="53.0804620465" lon="-4.0213965830"><ele>373</ele><time>2010-01-01T05:16:46Z</time></trkpt>
<trkpt lat="53.0804322907" lon="-4.0215403326"><ele>375</ele><time>2010-01-01T05:16:56Z</time></trkpt>
<trkpt lat="53.0804475458" lon="-4.0216676537"><ele>375</ele><time>2010-01-01T05:17:04Z</time></trkpt>
<trkpt lat="53.0804648963" lon="-4.0217550770"><ele>374</ele><time>2010-01-01T05:17:12Z</time></trkpt>
<trkpt lat="53.0804812410" lon="-4.0218148399"><ele>372</ele><time>2010-01-01T05:17:31Z</time></trkpt>
<trkpt lat="53.0805041236" lon="-4.0219710786"><ele>372</ele><time>2010-01-01T05:17:41Z</time></trkpt>
<trkpt lat="53.0805190434" lon="-4.0221446678"><ele>373</ele><time>2010-01-01T05:17:52Z</time></trkpt>
<trkpt lat="53.0805183729" lon="-4.0222130641"><ele>373</ele><time>2010-01-01T05:17:56Z</time></trkpt>
<trkpt lat="53.0805225638" lon="-4.0223901738"><ele>373</ele><time>2010-01-01T05:18:06Z</time></trkpt>
<trkpt lat="53.0805078955" lon="-4.0224936903"><ele>374</ele><time>2010-01-01T05:18:13Z</time></trkpt>
<trkpt lat="53.0805189596" lon="-4.0226485878"><ele>374</ele><time>2010-01-01T05:18:22Z</time></trkpt>
<trkpt lat="53.0805156907" lon="-4.0228196625"><ele>374</ele><time>2010-01-01T05:18:31Z</time></trkpt>
<trkpt lat="53.0805150201" lon="-4.0230338201"><ele>374</ele><time>2010-01-01T05:18:42Z</time></trkpt>
<trkpt lat="53.0805037883" lon="-4.0232491512"><ele>373</ele><time>2010-01-01T05:18:53Z</time></trkpt>
<trkpt lat="53.0804959094" lon="-4.0234082397"><ele>375</ele><time>2010-01-01T05:19:02Z</time></trkpt>
<trkpt lat="53.0804753737" lon="-4.0235319566"><ele>376</ele><time>2010-01-01T05:19:11Z</time></trkpt>
<trkpt lat="53.0804524073" lon="-4.0235858522"><ele>376</ele><time>2010-01-01T05:19:18Z</time></trkpt>
<trkpt lat="53.0804265072" lon="-4.0236712638"><ele>378</ele><time>2010-01-01T05:19:27Z</time></trkpt>
<trkpt lat="53.0804088214" lon="-4.0237180349"><ele>379</ele><time>2010-01-01T05:19:34Z</time></trkpt>
<trkpt lat="53.0803946560" lon="-4.0237644706"><ele>380</ele><time>2010-01-01T05:19:41Z</time></trkpt>
<trkpt lat="53.0803924767" lon="-4.0238772910"><ele>381</ele><time>2010-01-01T05:19:49Z</time></trkpt>
<trkpt lat="53.0803869446" lon="-4.0239308514"><ele>383</ele><time>2010-01-01T05:19:55Z</time></trkpt>
<trkpt lat="53.0803955780" lon="-4.0240277462"><ele>383</ele><time>2010-01-01T05:20:02Z</time></trkpt>
<trkpt lat="53.0803706837" lon="-4.0241150018"><ele>384</ele><time>2010-01-01T05:20:09Z</time></trkpt>
<trkpt lat="53.0803448675" lon="-4.0241915286"><ele>386</ele><time>2010-01-01T05:20:18Z</time></trkpt>
<trkpt lat="53.0803316241" lon="-4.0242537223"><ele>388</ele><time>2010-01-01T05:20:26Z</time></trkpt>
<trkpt lat="53.0803182968" lon="-4.0242895968"><ele>388</ele><time>2010-01-01T05:20:31Z</time></trkpt>
<trkpt lat="53.0803131839" lon="-4.0243025888"><ele>388</ele><time>2010-01-01T05:20:37Z</time></trkpt>
<trkpt lat="53.0802805783" lon="-4.0243542213"><ele>389</ele><time>2010-01-01T05:20:46Z</time></trkpt>
<trkpt lat="53.0802577795" lon="-4.0244075302"><ele>390</ele><time>2010-01-01T05:20:53Z</time></trkpt>
<trkpt lat="53.0802332205" lon="-4.0244719871"><ele>393</ele><time>2010-01-01T05:21:02Z</time></trkpt>
<trkpt lat="53.0802417701" lon="-4.0245322529"><ele>393</ele><time>2010-01-01T05:21:09Z</time></trkpt>
<trkpt lat="53.0802451228" lon="-4.0245407187"><ele>395</ele><time>2010-01-01T05:21:16Z</time></trkpt>
<trkpt lat="53.0802470507" lon="-4.0245410539"><ele>396</ele><time>2010-01-01T05:21:25Z</time></trkpt>
<trkpt lat="53.0802302030" lon="-4.0245906748"><ele>396</ele><time>2010-01-01T05:21:45Z</time></trkpt>
<trkpt lat="53.0802127687" lon="-4.0246931017"><ele>395</ele><time>2010-01-01T05:21:53Z</time></trkpt>
<trkpt lat="53.0801878744" lon="-4.0247333348"><ele>395</ele><time>2010-01-01T05:21:59Z</time></trkpt>
<trkpt lat="53.0801645727" lon="-4.0248546209"><ele>395</ele><time>2010-01-01T05:22:09Z</time></trkpt>
<trkpt lat="53.0801744634" lon="-4.0249993764"><ele>392</ele><time>2010-01-01T05:22:18Z</time></trkpt>
<trkpt lat="53.0801680093" lon="-4.0250726342"><ele>394</ele><time>2010-01-01T05:22:24Z</time></trkpt>
<trkpt lat="53.0801413549" lon="-4.0251474008"><ele>395</ele><time>2010-01-01T05:22:31Z</time></trkpt>
<trkpt lat="53.0801463002" lon="-4.0252585448"><ele>396</ele><time>2010-01-01T05:22:39Z</time></trkpt>
<trkpt lat="53.0801381697" lon="-4.0253360774"><ele>397</ele><time>2010-01-01T05:22:45Z</time></trkpt>
<trkpt lat="53.0801219927" lon="-4.0253828485"><ele>400</ele><time>2010-01-01T05:22:52Z</time></trkpt>
<trkpt lat="53.0801089169" lon="-4.0254541785"><ele>401</ele><time>2010-01-01T05:22:59Z</time></trkpt>
<trkpt lat="53.0800976851" lon="-4.0255587846"><ele>403</ele><time>2010-01-01T05:23:07Z</time></trkpt>
<trkpt lat="53.0800666721" lon="-4.0256054718"><ele>404</ele><time>2010-01-01T05:23:13Z</time></trkpt>
<trkpt lat="53.0800122735" lon="-4.0256489739"><ele>405</ele><time>2010-01-01T05:23:20Z</time></trkpt>
<trkpt lat="53.0799514209" lon="-4.0256547574"><ele>407</ele><time>2010-01-01T05:23:28Z</time></trkpt>
<trkpt lat="53.0798803424" lon="-4.0256829206"><ele>407</ele><time>2010-01-01T05:23:36Z</time></trkpt>
<trkpt lat="53.0798138739" lon="-4.0257506464"><ele>407</ele><time>2010-01-01T05:23:44Z</time></trkpt>
<trkpt lat="53.0797305578" lon="-4.0259221401"><ele>406</ele><time>2010-01-01T05:23:57Z</time></trkpt>
<trkpt lat="53.0797021431" lon="-4.0260021873"><ele>409</ele><time>2010-01-01T05:24:05Z</time></trkpt>
<trkpt lat="53.0796724712" lon="-4.0260836594"><ele>410</ele><time>2010-01-01T05:24:12Z</time></trkpt>
<trkpt lat="53.0796438051" lon="-4.0261601862"><ele>411</ele><time>2010-01-01T05:24:20Z</time></trkpt>
<trkpt lat="53.0796236885" lon="-4.0262639541"><ele>411</ele><time>2010-01-01T05:24:28Z</time></trkpt>
<trkpt lat="53.0795984590" lon="-4.0264019203"><ele>411</ele><time>2010-01-01T05:24:37Z</time></trkpt>
<trkpt lat="53.0795765822" lon="-4.0265062750"><ele>411</ele><time>2010-01-01T05:24:45Z</time></trkpt>
<trkpt lat="53.0795646799" lon="-4.0265234579"><ele>411</ele><time>2010-01-01T05:24:52Z</time></trkpt>
<trkpt lat="53.0795113710" lon="-4.0266345181"><ele>412</ele><time>2010-01-01T05:25:02Z</time></trkpt>
<trkpt lat="53.0794764185" lon="-4.0267296527"><ele>411</ele><time>2010-01-01T05:25:10Z</time></trkpt>
<trkpt lat="53.0794475009" lon="-4.0268229433"><ele>412</ele><time>2010-01-01T05:25:17Z</time></trkpt>
<trkpt lat="53.0794324973" lon="-4.0268479213"><ele>413</ele><time>2010-01-01T05:25:23Z</time></trkpt>
<trkpt lat="53.0794310724" lon="-4.0268697981"><ele>413</ele><time>2010-01-01T05:25:27Z</time></trkpt>
<trkpt lat="53.0794182481" lon="-4.0269633401"><ele>413</ele><time>2010-01-01T05:25:34Z</time></trkpt>
<trkpt lat="53.0793828764" lon="-4.0270735622"><ele>413</ele><time>2010-01-01T05:25:42Z</time></trkpt>
<trkpt lat="53.0793392067" lon="-4.0271811858"><ele>413</ele><time>2010-01-01T05:25:50Z</time></trkpt>
<trkpt lat="53.0792755043" lon="-4.0273145419"><ele>413</ele><time>2010-01-01T05:26:01Z</time></trkpt>
<trkpt lat="53.0792097063" lon="-4.0274241772"><ele>414</ele><time>2010-01-01T05:26:11Z</time></trkpt>
<trkpt lat="53.0791482670" lon="-4.0275145341"><ele>414</ele><time>2010-01-01T05:26:20Z</time></trkpt>
<trkpt lat="53.0791315032" lon="-4.0275820922"><ele>415</ele><time>2010-01-01T05:26:26Z</time></trkpt>
<trkpt lat="53.0791118057" lon="-4.0277515743"><ele>415</ele><time>2010-01-01T05:26:36Z</time></trkpt>
<trkpt lat="53.0790779428" lon="-4.0279237386"><ele>414</ele><time>2010-01-01T05:26:47Z</time></trkpt>
<trkpt lat="53.0790462592" lon="-4.0280457791"><ele>413</ele><time>2010-01-01T05:26:56Z</time></trkpt>
<trkpt lat="53.0790185989" lon="-4.0281224735"><ele>413</ele><time>2010-01-01T05:27:03Z</time></trkpt>
<trkpt lat="53.0790033439" lon="-4.0282137524"><ele>412</ele><time>2010-01-01T05:27:11Z</time></trkpt>
<trkpt lat="53.0789958840" lon="-4.0283008404"><ele>411</ele><time>2010-01-01T05:27:19Z</time></trkpt>
<trkpt lat="53.0789851551" lon="-4.0284025967"><ele>412</ele><time>2010-01-01T05:27:26Z</time></trkpt>
<trkpt lat="53.0789709059" lon="-4.0284971446"><ele>413</ele><time>2010-01-01T05:27:33Z</time></trkpt>
<trkpt lat="53.0789641166" lon="-4.0285960511"><ele>413</ele><time>2010-01-01T05:27:40Z</time></trkpt>
<trkpt lat="53.0789623564" lon="-4.0287533794"><ele>411</ele><time>2010-01-01T05:27:50Z</time></trkpt>
<trkpt lat="53.0789416531" lon="-4.0288619250"><ele>409</ele><time>2010-01-01T05:27:58Z</time></trkpt>
<trkpt lat="53.0789431618" lon="-4.0289323330"><ele>408</ele><time>2010-01-01T05:28:04Z</time></trkpt>
<trkpt lat="53.0789403119" lon="-4.0290644318"><ele>409</ele><time>2010-01-01T05:28:12Z</time></trkpt>
<trkpt lat="53.0789173455" lon="-4.0291656852"><ele>410</ele><time>2010-01-01T05:28:20Z</time></trkpt>
<trkpt lat="53.0789327682" lon="-4.0292634182"><ele>410</ele><time>2010-01-01T05:28:27Z</time></trkpt>
<trkpt lat="53.0789332712" lon="-4.0293745622"><ele>410</ele><time>2010-01-01T05:28:34Z</time></trkpt>
<trkpt lat="53.0789119811" lon="-4.0294488259"><ele>410</ele><time>2010-01-01T05:28:40Z</time></trkpt>
<trkpt lat="53.0789056109" lon="-4.0295516718"><ele>411</ele><time>2010-01-01T05:28:48Z</time></trkpt>
<trkpt lat="53.0789269009" lon="-4.0296450462"><ele>411</ele><time>2010-01-01T05:28:56Z</time></trkpt>
<trkpt lat="53.0789313433" lon="-4.0297159571"><ele>411</ele><time>2010-01-01T05:29:03Z</time></trkpt>
<trkpt lat="53.0788984863" lon="-4.0297871195"><ele>410</ele><time>2010-01-01T05:29:10Z</time></trkpt>
<trkpt lat="53.0788890147" lon="-4.0298439488"><ele>410</ele><time>2010-01-01T05:29:15Z</time></trkpt>
<trkpt lat="53.0788636175" lon="-4.0298912227"><ele>411</ele><time>2010-01-01T05:29:21Z</time></trkpt>
<trkpt lat="53.0788683114" lon="-4.0299826693"><ele>410</ele><time>2010-01-01T05:29:28Z</time></trkpt>
<trkpt lat="53.0788409864" lon="-4.0300759599"><ele>410</ele><time>2010-01-01T05:29:35Z</time></trkpt>
<trkpt lat="53.0787896891" lon="-4.0301311966"><ele>410</ele><time>2010-01-01T05:29:43Z</time></trkpt>
<trkpt lat="53.0787414932" lon="-4.0301860981"><ele>412</ele><time>2010-01-01T05:29:51Z</time></trkpt>
<trkpt lat="53.0786978235" lon="-4.0302068014"><ele>415</ele><time>2010-01-01T05:29:58Z</time></trkpt>
<trkpt lat="53.0786374738" lon="-4.0302467831"><ele>417</ele><time>2010-01-01T05:30:07Z</time></trkpt>
<trkpt lat="53.0786132501" lon="-4.0302872677"><ele>417</ele><time>2010-01-01T05:30:18Z</time></trkpt>
<trkpt lat="53.0785881044" lon="-4.0303382296"><ele>416</ele><time>2010-01-01T05:30:24Z</time></trkpt>
<trkpt lat="53.0785419201" lon="-4.0303840786"><ele>416</ele><time>2010-01-01T05:30:30Z</time></trkpt>
<trkpt lat="53.0784794749" lon="-4.0304170195"><ele>417</ele><time>2010-01-01T05:30:38Z</time></trkpt>
<trkpt lat="53.0784300217" lon="-4.0304632876"><ele>415</ele><time>2010-01-01T05:30:45Z</time></trkpt>
<trkpt lat="53.0783663192" lon="-4.0305043589"><ele>415</ele><time>2010-01-01T05:30:53Z</time></trkpt>
<trkpt lat="53.0783537464" lon="-4.0305821430"><ele>414</ele><time>2010-01-01T05:30:59Z</time></trkpt>
<trkpt lat="53.0783908782" lon="-4.0307025910"><ele>413</ele><time>2010-01-01T05:31:08Z</time></trkpt>
<trkpt lat="53.0783873578" lon="-4.0308144894"><ele>414</ele><time>2010-01-01T05:31:16Z</time></trkpt>
<trkpt lat="53.0783871902" lon="-4.0309297405"><ele>416</ele><time>2010-01-01T05:31:26Z</time></trkpt>
<trkpt lat="53.0783990925" lon="-4.0310491827"><ele>416</ele><time>2010-01-01T05:31:35Z</time></trkpt>
<trkpt lat="53.0783847594" lon="-4.0311486758"><ele>416</ele><time>2010-01-01T05:31:44Z</time></trkpt>
<trkpt lat="53.0783756231" lon="-4.0312571377"><ele>417</ele><time>2010-01-01T05:31:52Z</time></trkpt>
<trkpt lat="53.0783918002" lon="-4.0313101951"><ele>418</ele><time>2010-01-01T05:31:58Z</time></trkpt>
<trkpt lat="53.0784266689" lon="-4.0313407891"><ele>419</ele><time>2010-01-01T05:32:06Z</time></trkpt>
<trkpt lat="53.0784438518" lon="-4.0314016417"><ele>420</ele><time>2010-01-01T05:32:13Z</time></trkpt>
<trkpt lat="53.0784700872" lon="-4.0314660985"><ele>421</ele><time>2010-01-01T05:32:20Z</time></trkpt>
<trkpt lat="53.0784889465" lon="-4.0315495823"><ele>423</ele><time>2010-01-01T05:32:27Z</time></trkpt>
<trkpt lat="53.0784886112" lon="-4.0316522606"><ele>424</ele><time>2010-01-01T05:32:35Z</time></trkpt>
<trkpt lat="53.0784829115" lon="-4.0316839442"><ele>425</ele><time>2010-01-01T05:32:41Z</time></trkpt>
<trkpt lat="53.0784669021" lon="-4.0317315534"><ele>426</ele><time>2010-01-01T05:32:53Z</time></trkpt>
<trkpt lat="53.0784386550" lon="-4.0317923222"><ele>426</ele><time>2010-01-01T05:33:01Z</time></trkpt>
<trkpt lat="53.0783985895" lon="-4.0318786558"><ele>428</ele><time>2010-01-01T05:33:10Z</time></trkpt>
<trkpt lat="53.0783676603" lon="-4.0319596250"><ele>429</ele><time>2010-01-01T05:33:18Z</time></trkpt>
<trkpt lat="53.0783447777" lon="-4.0320527479"><ele>430</ele><time>2010-01-01T05:33:25Z</time></trkpt>
<trkpt lat="53.0783275948" lon="-4.0321886186"><ele>431</ele><time>2010-01-01T05:33:34Z</time></trkpt>
<trkpt lat="53.0783127589" lon="-4.0322693363"><ele>432</ele><time>2010-01-01T05:33:41Z</time></trkpt>
<trkpt lat="53.0782852662" lon="-4.0323845875"><ele>434</ele><time>2010-01-01T05:33:51Z</time></trkpt>
<trkpt lat="53.0782609587" lon="-4.0324690771"><ele>435</ele><time>2010-01-01T05:34:00Z</time></trkpt>
<trkpt lat="53.0782380761" lon="-4.0325301811"><ele>436</ele><time>2010-01-01T05:34:07Z</time></trkpt>
<trkpt lat="53.0782101644" lon="-4.0326377209"><ele>437</ele><time>2010-01-01T05:34:16Z</time></trkpt>
<trkpt lat="53.0781961666" lon="-4.0327686463"><ele>437</ele><time>2010-01-01T05:34:25Z</time></trkpt>
<trkpt lat="53.0781866950" lon="-4.0328875855"><ele>437</ele><time>2010-01-01T05:34:34Z</time></trkpt>
<trkpt lat="53.0781902154" lon="-4.0329691414"><ele>436</ele><time>2010-01-01T05:34:41Z</time></trkpt>
<trkpt lat="53.0781793190" lon="-4.0330544692"><ele>436</ele><time>2010-01-01T05:34:49Z</time></trkpt>
<trkpt lat="53.0781832585" lon="-4.0331780184"><ele>436</ele><time>2010-01-01T05:34:58Z</time></trkpt>
<trkpt lat="53.0781881200" lon="-4.0331837181"><ele>436</ele><time>2010-01-01T05:35:05Z</time></trkpt>
<trkpt lat="53.0781902154" lon="-4.0331839696"><ele>437</ele><time>2010-01-01T05:35:33Z</time></trkpt>
<trkpt lat="53.0781783970" lon="-4.0332463309"><ele>438</ele><time>2010-01-01T05:35:53Z</time></trkpt>
<trkpt lat="53.0781649859" lon="-4.0333538708"><ele>439</ele><time>2010-01-01T05:36:02Z</time></trkpt>
<trkpt lat="53.0781524969" lon="-4.0334927589"><ele>440</ele><time>2010-01-01T05:36:13Z</time></trkpt>
<trkpt lat="53.0781307877" lon="-4.0336171463"><ele>441</ele><time>2010-01-01T05:36:22Z</time></trkpt>
<trkpt lat="53.0781095815" lon="-4.0337150470"><ele>441</ele><time>2010-01-01T05:36:29Z</time></trkpt>
<trkpt lat="53.0780986851" lon="-4.0338034760"><ele>441</ele><time>2010-01-01T05:36:36Z</time></trkpt>
<trkpt lat="53.0780832623" lon="-4.0339330603"><ele>442</ele><time>2010-01-01T05:36:47Z</time></trkpt>
<trkpt lat="53.0780858607" lon="-4.0340340622"><ele>442</ele><time>2010-01-01T05:36:56Z</time></trkpt>
<trkpt lat="53.0780774788" lon="-4.0340814199"><ele>443</ele><time>2010-01-01T05:37:02Z</time></trkpt>
<trkpt lat="53.0780671691" lon="-4.0341296997"><ele>443</ele><time>2010-01-01T05:37:09Z</time></trkpt>
<trkpt lat="53.0780692646" lon="-4.0341821704"><ele>444</ele><time>2010-01-01T05:37:16Z</time></trkpt>
<trkpt lat="53.0780664985" lon="-4.0342186317"><ele>445</ele><time>2010-01-01T05:37:22Z</time></trkpt>
<trkpt lat="53.0780644869" lon="-4.0342547577"><ele>447</ele><time>2010-01-01T05:37:27Z</time></trkpt>
<trkpt lat="53.0780581166" lon="-4.0343205556"><ele>448</ele><time>2010-01-01T05:37:34Z</time></trkpt>
<trkpt lat="53.0780595416" lon="-4.0344176181"><ele>449</ele><time>2010-01-01T05:37:44Z</time></trkpt>
<trkpt lat="53.0780625590" lon="-4.0345006827"><ele>450</ele><time>2010-01-01T05:37:52Z</time></trkpt>
<trkpt lat="53.0780566917" lon="-4.0345871002"><ele>452</ele><time>2010-01-01T05:38:01Z</time></trkpt>
<trkpt lat="53.0780634811" lon="-4.0346378945"><ele>452</ele><time>2010-01-01T05:38:06Z</time></trkpt>
<trkpt lat="53.0780918957" lon="-4.0346922930"><ele>453</ele><time>2010-01-01T05:38:14Z</time></trkpt>
<trkpt lat="53.0780939074" lon="-4.0347495414"><ele>455</ele><time>2010-01-01T05:38:21Z</time></trkpt>
<trkpt lat="53.0780851064" lon="-4.0347670596"><ele>456</ele><time>2010-01-01T05:38:27Z</time></trkpt>
<trkpt lat="53.0780848549" lon="-4.0348196980"><ele>457</ele><time>2010-01-01T05:38:34Z</time></trkpt>
<trkpt lat="53.0780900517" lon="-4.0348254815"><ele>458</ele><time>2010-01-01T05:38:41Z</time></trkpt>
<trkpt lat="53.0780903031" lon="-4.0348336958"><ele>458</ele><time>2010-01-01T05:38:47Z</time></trkpt>
<trkpt lat="53.0780934883" lon="-4.0348203685"><ele>458</ele><time>2010-01-01T05:38:55Z</time></trkpt>
<trkpt lat="53.0780807478" lon="-4.0348092206"><ele>459</ele><time>2010-01-01T05:39:12Z</time></trkpt>
<trkpt lat="53.0780698513" lon="-4.0348065384"><ele>459</ele><time>2010-01-01T05:39:25Z</time></trkpt>
<trkpt lat="53.0780682587" lon="-4.0348093882"><ele>460</ele><time>2010-01-01T05:39:36Z</time></trkpt>
<trkpt lat="53.0780731202" lon="-4.0348629486"><ele>460</ele><time>2010-01-01T05:39:55Z</time></trkpt>
<trkpt lat="53.0780779818" lon="-4.0348575004"><ele>458</ele><time>2010-01-01T05:40:01Z</time></trkpt>
<trkpt lat="53.0780822565" lon="-4.0348373838"><ele>455</ele><time>2010-01-01T05:40:16Z</time></trkpt>
<trkpt lat="53.0780776465" lon="-4.0348737613"><ele>454</ele><time>2010-01-01T05:41:01Z</time></trkpt>
<trkpt lat="53.0780732879" lon="-4.0348577518"><ele>457</ele><time>2010-01-01T05:41:19Z</time></trkpt>
<trkpt lat="53.0780634811" lon="-4.0348586738"><ele>456</ele><time>2010-01-01T05:41:25Z</time></trkpt>
<trkpt lat="53.0780490642" lon="-4.0348695703"><ele>449</ele><time>2010-01-01T05:41:47Z</time></trkpt>
<trkpt lat="53.0780695998" lon="-4.0348470230"><ele>445</ele><time>2010-01-01T05:42:30Z</time></trkpt>
<trkpt lat="53.0780878724" lon="-4.0348501243"><ele>451</ele><time>2010-01-01T05:42:49Z</time></trkpt>
<trkpt lat="53.0780750481" lon="-4.0348640382"><ele>453</ele><time>2010-01-01T05:42:53Z</time></trkpt>
<trkpt lat="53.0780753834" lon="-4.0348636192"><ele>454</ele><time>2010-01-01T05:42:59Z</time></trkpt>
<trkpt lat="53.0780783170" lon="-4.0348610208"><ele>454</ele><time>2010-01-01T05:43:11Z</time></trkpt>
<trkpt lat="53.0780757186" lon="-4.0348758567"><ele>456</ele><time>2010-01-01T05:43:30Z</time></trkpt>
<trkpt lat="53.0780908061" lon="-4.0348906927"><ele>456</ele><time>2010-01-01T05:43:55Z</time></trkpt>
<trkpt lat="53.0780993556" lon="-4.0348777007"><ele>457</ele><time>2010-01-01T05:44:08Z</time></trkpt>
<trkpt lat="53.0781059773" lon="-4.0349308420"><ele>457</ele><time>2010-01-01T05:44:15Z</time></trkpt>
<trkpt lat="53.0781302010" lon="-4.0350249708"><ele>458</ele><time>2010-01-01T05:44:24Z</time></trkpt>
<trkpt lat="53.0781603759" lon="-4.0351460893"><ele>458</ele><time>2010-01-01T05:44:33Z</time></trkpt>
<trkpt lat="53.0781920595" lon="-4.0352793615"><ele>459</ele><time>2010-01-01T05:44:43Z</time></trkpt>
<trkpt lat="53.0782229887" lon="-4.0354041681"><ele>461</ele><time>2010-01-01T05:44:54Z</time></trkpt>
<trkpt lat="53.0782184624" lon="-4.0354964528"><ele>463</ele><time>2010-01-01T05:45:03Z</time></trkpt>
<trkpt lat="53.0782044647" lon="-4.0355830379"><ele>465</ele><time>2010-01-01T05:45:12Z</time></trkpt>
<trkpt lat="53.0782199712" lon="-4.0356489197"><ele>465</ele><time>2010-01-01T05:45:18Z</time></trkpt>
<trkpt lat="53.0782379085" lon="-4.0357422941"><ele>466</ele><time>2010-01-01T05:45:26Z</time></trkpt>
<trkpt lat="53.0782425185" lon="-4.0357970279"><ele>465</ele><time>2010-01-01T05:45:34Z</time></trkpt>
<trkpt lat="53.0782587794" lon="-4.0359160509"><ele>465</ele><time>2010-01-01T05:45:42Z</time></trkpt>
<trkpt lat="53.0782666584" lon="-4.0359989479"><ele>466</ele><time>2010-01-01T05:45:50Z</time></trkpt>
<trkpt lat="53.0782736992" lon="-4.0360413604"><ele>467</ele><time>2010-01-01T05:46:02Z</time></trkpt>
<trkpt lat="53.0782721904" lon="-4.0360408575"><ele>468</ele><time>2010-01-01T05:46:09Z</time></trkpt>
<trkpt lat="53.0782814105" lon="-4.0360367503"><ele>469</ele><time>2010-01-01T05:46:23Z</time></trkpt>
<trkpt lat="53.0782809076" lon="-4.0360352416"><ele>469</ele><time>2010-01-01T05:46:43Z</time></trkpt>
<trkpt lat="53.0782720228" lon="-4.0360199865"><ele>472</ele><time>2010-01-01T05:50:28Z</time></trkpt>
<trkpt lat="53.0782698435" lon="-4.0360124428"><ele>472</ele><time>2010-01-01T05:50:37Z</time></trkpt>
<trkpt lat="53.0782667422" lon="-4.0360555258"><ele>471</ele><time>2010-01-01T05:51:06Z</time></trkpt>
<trkpt lat="53.0782743697" lon="-4.0361274425"><ele>473</ele><time>2010-01-01T05:51:15Z</time></trkpt>
<trkpt lat="53.0782845957" lon="-4.0361973476"><ele>474</ele><time>2010-01-01T05:51:22Z</time></trkpt>
<trkpt lat="53.0782801533" lon="-4.0362479743"><ele>475</ele><time>2010-01-01T05:51:29Z</time></trkpt>
<trkpt lat="53.0782720228" lon="-4.0363176279"><ele>475</ele><time>2010-01-01T05:51:37Z</time></trkpt>
<trkpt lat="53.0782633056" lon="-4.0363754630"><ele>475</ele><time>2010-01-01T05:51:45Z</time></trkpt>
<trkpt lat="53.0782831707" lon="-4.0364627186"><ele>476</ele><time>2010-01-01T05:51:53Z</time></trkpt>
<trkpt lat="53.0783097414" lon="-4.0365417600"><ele>475</ele><time>2010-01-01T05:52:01Z</time></trkpt>
<trkpt lat="53.0783265052" lon="-4.0366240703"><ele>475</ele><time>2010-01-01T05:52:09Z</time></trkpt>
<trkpt lat="53.0783829154" lon="-4.0367023572"><ele>476</ele><time>2010-01-01T05:52:18Z</time></trkpt>
<trkpt lat="53.0784285129" lon="-4.0367734358"><ele>477</ele><time>2010-01-01T05:52:29Z</time></trkpt>
<trkpt lat="53.0784648904" lon="-4.0368057899"><ele>478</ele><time>2010-01-01T05:52:36Z</time></trkpt>
<trkpt lat="53.0784492162" lon="-4.0368371383"><ele>477</ele><time>2010-01-01T05:52:43Z</time></trkpt>
<trkpt lat="53.0784337935" lon="-4.0368732643"><ele>477</ele><time>2010-01-01T05:52:51Z</time></trkpt>
<trkpt lat="53.0784145152" lon="-4.0369042773"><ele>474</ele><time>2010-01-01T05:52:58Z</time></trkpt>
<trkpt lat="53.0784328715" lon="-4.0369238910"><ele>475</ele><time>2010-01-01T05:53:05Z</time></trkpt>
<trkpt lat="53.0784537425" lon="-4.0369257350"><ele>476</ele><time>2010-01-01T05:53:12Z</time></trkpt>
<trkpt lat="53.0784816542" lon="-4.0369529762"><ele>477</ele><time>2010-01-01T05:53:19Z</time></trkpt>
<trkpt lat="53.0785285929" lon="-4.0370177683"><ele>477</ele><time>2010-01-01T05:53:27Z</time></trkpt>
<trkpt lat="53.0785283414" lon="-4.0370826442"><ele>478</ele><time>2010-01-01T05:53:36Z</time></trkpt>
<trkpt lat="53.0785026928" lon="-4.0371332709"><ele>478</ele><time>2010-01-01T05:53:40Z</time></trkpt>
<trkpt lat="53.0784856775" lon="-4.0371463467"><ele>478</ele><time>2010-01-01T05:53:46Z</time></trkpt>
<trkpt lat="53.0784676564" lon="-4.0371815507"><ele>479</ele><time>2010-01-01T05:53:53Z</time></trkpt>
<trkpt lat="53.0784498030" lon="-4.0372003261"><ele>479</ele><time>2010-01-01T05:54:00Z</time></trkpt>
<trkpt lat="53.0784256631" lon="-4.0372195207"><ele>479</ele><time>2010-01-01T05:54:08Z</time></trkpt>
<trkpt lat="53.0784122520" lon="-4.0372201912"><ele>482</ele><time>2010-01-01T05:54:15Z</time></trkpt>
<trkpt lat="53.0784135932" lon="-4.0372456722"><ele>487</ele><time>2010-01-01T05:54:43Z</time></trkpt>
<trkpt lat="53.0784145152" lon="-4.0373123922"><ele>488</ele><time>2010-01-01T05:54:52Z</time></trkpt>
<trkpt lat="53.0784335421" lon="-4.0373723228"><ele>490</ele><time>2010-01-01T05:55:01Z</time></trkpt>
<trkpt lat="53.0784472046" lon="-4.0374264699"><ele>491</ele><time>2010-01-01T05:55:08Z</time></trkpt>
<trkpt lat="53.0784578496" lon="-4.0374746658"><ele>493</ele><time>2010-01-01T05:55:16Z</time></trkpt>
<trkpt lat="53.0784690814" lon="-4.0375167430"><ele>495</ele><time>2010-01-01T05:55:23Z</time></trkpt>
<trkpt lat="53.0784582687" lon="-4.0375578981"><ele>496</ele><time>2010-01-01T05:55:30Z</time></trkpt>
<trkpt lat="53.0784431813" lon="-4.0376100335"><ele>496</ele><time>2010-01-01T05:55:38Z</time></trkpt>
<trkpt lat="53.0784519823" lon="-4.0376712214"><ele>499</ele><time>2010-01-01T05:55:47Z</time></trkpt>
<trkpt lat="53.0784565085" lon="-4.0377063416"><ele>500</ele><time>2010-01-01T05:55:53Z</time></trkpt>
<trkpt lat="53.0784632140" lon="-4.0377574712"><ele>500</ele><time>2010-01-01T05:56:01Z</time></trkpt>
<trkpt lat="53.0784639684" lon="-4.0377736483"><ele>500</ele><time>2010-01-01T05:56:26Z</time></trkpt>
<trkpt lat="53.0784555027" lon="-4.0377967823"><ele>501</ele><time>2010-01-01T05:56:31Z</time></trkpt>
<trkpt lat="53.0784352185" lon="-4.0378298909"><ele>503</ele><time>2010-01-01T05:56:39Z</time></trkpt>
<trkpt lat="53.0784125035" lon="-4.0378424637"><ele>502</ele><time>2010-01-01T05:56:44Z</time></trkpt>
<trkpt lat="53.0783829154" lon="-4.0378130432"><ele>501</ele><time>2010-01-01T05:56:50Z</time></trkpt>
<trkpt lat="53.0783842565" lon="-4.0378496722"><ele>502</ele><time>2010-01-01T05:56:59Z</time></trkpt>
<trkpt lat="53.0783897885" lon="-4.0378920008"><ele>503</ele><time>2010-01-01T05:57:06Z</time></trkpt>
<trkpt lat="53.0783888665" lon="-4.0379185714"><ele>504</ele><time>2010-01-01T05:57:12Z</time></trkpt>
<trkpt lat="53.0783902076" lon="-4.0379252769"><ele>506</ele><time>2010-01-01T05:57:32Z</time></trkpt>
<trkpt lat="53.0783726895" lon="-4.0379719641"><ele>507</ele><time>2010-01-01T05:58:02Z</time></trkpt>
<trkpt lat="53.0783594461" lon="-4.0379875545"><ele>508</ele><time>2010-01-01T05:58:07Z</time></trkpt>
<trkpt lat="53.0783550037" lon="-4.0380232614"><ele>508</ele><time>2010-01-01T05:58:15Z</time></trkpt>
<trkpt lat="53.0783448615" lon="-4.0380411986"><ele>508</ele><time>2010-01-01T05:58:21Z</time></trkpt>
<trkpt lat="53.0783410059" lon="-4.0380554479"><ele>512</ele><time>2010-01-01T05:58:41Z</time></trkpt>
<trkpt lat="53.0783187938" lon="-4.0380655900"><ele>511</ele><time>2010-01-01T05:58:48Z</time></trkpt>
<trkpt lat="53.0782995993" lon="-4.0380904004"><ele>511</ele><time>2010-01-01T05:58:57Z</time></trkpt>
<trkpt lat="53.0782903792" lon="-4.0381057393"><ele>512</ele><time>2010-01-01T05:59:04Z</time></trkpt>
<trkpt lat="53.0782852662" lon="-4.0381207429"><ele>513</ele><time>2010-01-01T05:59:10Z</time></trkpt>
<trkpt lat="53.0782781416" lon="-4.0381355789"><ele>513</ele><time>2010-01-01T05:59:17Z</time></trkpt>
<trkpt lat="53.0782803209" lon="-4.0381533485"><ele>516</ele><time>2010-01-01T05:59:25Z</time></trkpt>
<trkpt lat="53.0783299418" lon="-4.0381553602"><ele>524</ele><time>2010-01-01T06:00:46Z</time></trkpt>
<trkpt lat="53.0783405030" lon="-4.0381710343"><ele>525</ele><time>2010-01-01T06:00:53Z</time></trkpt>
<trkpt lat="53.0783447777" lon="-4.0381743871"><ele>524</ele><time>2010-01-01T06:01:00Z</time></trkpt>
<trkpt lat="53.0783539140" lon="-4.0381940007"><ele>522</ele><time>2010-01-01T06:01:47Z</time></trkpt>
<trkpt lat="53.0783401677" lon="-4.0381629877"><ele>520</ele><time>2010-01-01T06:02:37Z</time></trkpt>
<trkpt lat="53.0783348033" lon="-4.0381853674"><ele>521</ele><time>2010-01-01T06:02:59Z</time></trkpt>
<trkpt lat="53.0783381560" lon="-4.0381788295"><ele>520</ele><time>2010-01-01T06:03:07Z</time></trkpt>
<trkpt lat="53.0783472085" lon="-4.0382054839"><ele>520</ele><time>2010-01-01T06:04:51Z</time></trkpt>
<trkpt lat="53.0783451130" lon="-4.0382045619"><ele>520</ele><time>2010-01-01T06:05:19Z</time></trkpt>
<trkpt lat="53.0783490525" lon="-4.0381980241"><ele>521</ele><time>2010-01-01T06:05:28Z</time></trkpt>
<trkpt lat="53.0783529920" lon="-4.0381997004"><ele>521</ele><time>2010-01-01T06:05:44Z</time></trkpt>
<trkpt lat="53.0783410897" lon="-4.0381991975"><ele>521</ele><time>2010-01-01T06:06:08Z</time></trkpt>
<trkpt lat="53.0783379884" lon="-4.0381972697"><ele>524</ele><time>2010-01-01T06:06:31Z</time></trkpt>
<trkpt lat="53.0783343003" lon="-4.0381815955"><ele>522</ele><time>2010-01-01T06:06:45Z</time></trkpt>
<trkpt lat="53.0783679118" lon="-4.0381766502"><ele>531</ele><time>2010-01-01T06:07:00Z</time></trkpt>
<trkpt lat="53.0783374017" lon="-4.0382195655"><ele>505</ele><time>2010-01-01T06:08:18Z</time></trkpt>
<trkpt lat="53.0783726895" lon="-4.0382107645"><ele>515</ele><time>2010-01-01T06:08:30Z</time></trkpt>
<trkpt lat="53.0783782215" lon="-4.0382012930"><ele>518</ele><time>2010-01-01T06:08:38Z</time></trkpt>
<trkpt lat="53.0783530758" lon="-4.0381998681"><ele>516</ele><time>2010-01-01T06:09:02Z</time></trkpt>
<trkpt lat="53.0783303609" lon="-4.0381904803"><ele>520</ele><time>2010-01-01T06:09:10Z</time></trkpt>
<trkpt lat="53.0783422632" lon="-4.0381829366"><ele>523</ele><time>2010-01-01T06:09:20Z</time></trkpt>
<trkpt lat="53.0783715160" lon="-4.0381931625"><ele>525</ele><time>2010-01-01T06:09:28Z</time></trkpt>
<trkpt lat="53.0783893695" lon="-4.0382381734"><ele>526</ele><time>2010-01-01T06:09:34Z</time></trkpt>
<trkpt lat="53.0784013556" lon="-4.0383047257"><ele>526</ele><time>2010-01-01T06:09:40Z</time></trkpt>
<trkpt lat="53.0783701749" lon="-4.0383538436"><ele>523</ele><time>2010-01-01T06:09:47Z</time></trkpt>
<trkpt lat="53.0783529920" lon="-4.0384996887"><ele>521</ele><time>2010-01-01T06:09:56Z</time></trkpt>
<trkpt lat="53.0783440234" lon="-4.0385901295"><ele>520</ele><time>2010-01-01T06:10:03Z</time></trkpt>
<trkpt lat="53.0783629665" lon="-4.0387642216"><ele>519</ele><time>2010-01-01T06:10:14Z</time></trkpt>
<trkpt lat="53.0783627988" lon="-4.0388649721"><ele>521</ele><time>2010-01-01T06:10:21Z</time></trkpt>
<trkpt lat="53.0783624635" lon="-4.0389555805"><ele>522</ele><time>2010-01-01T06:10:29Z</time></trkpt>
<trkpt lat="53.0783534949" lon="-4.0390455183"><ele>522</ele><time>2010-01-01T06:10:40Z</time></trkpt>
<trkpt lat="53.0783599490" lon="-4.0390995816"><ele>523</ele><time>2010-01-01T06:10:46Z</time></trkpt>
<trkpt lat="53.0783764613" lon="-4.0391931236"><ele>526</ele><time>2010-01-01T06:10:53Z</time></trkpt>
<trkpt lat="53.0783863520" lon="-4.0392966401"><ele>525</ele><time>2010-01-01T06:11:00Z</time></trkpt>
<trkpt lat="53.0783803170" lon="-4.0393484403"><ele>524</ele><time>2010-01-01T06:11:06Z</time></trkpt>
<trkpt lat="53.0783665707" lon="-4.0393968877"><ele>525</ele><time>2010-01-01T06:11:14Z</time></trkpt>
<trkpt lat="53.0783643076" lon="-4.0394315887"><ele>525</ele><time>2010-01-01T06:11:19Z</time></trkpt>
<trkpt lat="53.0783572668" lon="-4.0394975543"><ele>526</ele><time>2010-01-01T06:11:27Z</time></trkpt>
<trkpt lat="53.0783638046" lon="-4.0395920184"><ele>527</ele><time>2010-01-01T06:11:35Z</time></trkpt>
<trkpt lat="53.0783687500" lon="-4.0396270547"><ele>527</ele><time>2010-01-01T06:11:40Z</time></trkpt>
<trkpt lat="53.0783645590" lon="-4.0397068504"><ele>529</ele><time>2010-01-01T06:11:48Z</time></trkpt>
<trkpt lat="53.0783521538" lon="-4.0397738218"><ele>529</ele><time>2010-01-01T06:11:57Z</time></trkpt>
<trkpt lat="53.0783452806" lon="-4.0398263764"><ele>530</ele><time>2010-01-01T06:12:04Z</time></trkpt>
<trkpt lat="53.0783409221" lon="-4.0398835410"><ele>532</ele><time>2010-01-01T06:12:12Z</time></trkpt>
<trkpt lat="53.0783488849" lon="-4.0398998019"><ele>533</ele><time>2010-01-01T06:12:17Z</time></trkpt>
<trkpt lat="53.0783589431" lon="-4.0399668571"><ele>536</ele><time>2010-01-01T06:12:24Z</time></trkpt>
<trkpt lat="53.0783554227" lon="-4.0400591418"><ele>536</ele><time>2010-01-01T06:12:32Z</time></trkpt>
<trkpt lat="53.0783394133" lon="-4.0401379317"><ele>537</ele><time>2010-01-01T06:12:41Z</time></trkpt>
<trkpt lat="53.0783254994" lon="-4.0401709564"><ele>537</ele><time>2010-01-01T06:12:46Z</time></trkpt>
<trkpt lat="53.0782857691" lon="-4.0402569547"><ele>538</ele><time>2010-01-01T06:12:54Z</time></trkpt>
<trkpt lat="53.0782636409" lon="-4.0403844435"><ele>538</ele><time>2010-01-01T06:13:04Z</time></trkpt>
<trkpt lat="53.0782413450" lon="-4.0404347349"><ele>539</ele><time>2010-01-01T06:13:11Z</time></trkpt>
<trkpt lat="53.0782141039" lon="-4.0405038018"><ele>540</ele><time>2010-01-01T06:13:19Z</time></trkpt>
<trkpt lat="53.0782038779" lon="-4.0405812506"><ele>542</ele><time>2010-01-01T06:13:26Z</time></trkpt>
<trkpt lat="53.0781783970" lon="-4.0406767205"><ele>543</ele><time>2010-01-01T06:13:34Z</time></trkpt>
<trkpt lat="53.0781468810" lon="-4.0406860244"><ele>546</ele><time>2010-01-01T06:13:41Z</time></trkpt>
<trkpt lat="53.0781291114" lon="-4.0406533349"><ele>547</ele><time>2010-01-01T06:13:49Z</time></trkpt>
<trkpt lat="53.0781035466" lon="-4.0406159517"><ele>549</ele><time>2010-01-01T06:13:56Z</time></trkpt>
<trkpt lat="53.0780506567" lon="-4.0406007804"><ele>549</ele><time>2010-01-01T06:14:03Z</time></trkpt>
<trkpt lat="53.0779919834" lon="-4.0406425223"><ele>549</ele><time>2010-01-01T06:14:11Z</time></trkpt>
<trkpt lat="53.0779437037" lon="-4.0406697635"><ele>549</ele><time>2010-01-01T06:14:19Z</time></trkpt>
<trkpt lat="53.0779136964" lon="-4.0406844318"><ele>550</ele><time>2010-01-01T06:14:27Z</time></trkpt>
<trkpt lat="53.0778810908" lon="-4.0406807438"><ele>550</ele><time>2010-01-01T06:14:35Z</time></trkpt>
<trkpt lat="53.0778494911" lon="-4.0406991840"><ele>551</ele><time>2010-01-01T06:14:43Z</time></trkpt>
<trkpt lat="53.0778090903" lon="-4.0407073982"><ele>552</ele><time>2010-01-01T06:14:52Z</time></trkpt>
<trkpt lat="53.0777878841" lon="-4.0407118406"><ele>552</ele><time>2010-01-01T06:14:58Z</time></trkpt>
<trkpt lat="53.0777551947" lon="-4.0407184623"><ele>551</ele><time>2010-01-01T06:15:03Z</time></trkpt>
<trkpt lat="53.0777383470" lon="-4.0406715237"><ele>552</ele><time>2010-01-01T06:15:11Z</time></trkpt>
<trkpt lat="53.0777129499" lon="-4.0406586994"><ele>554</ele><time>2010-01-01T06:15:18Z</time></trkpt>
<trkpt lat="53.0776869660" lon="-4.0406774748"><ele>555</ele><time>2010-01-01T06:15:24Z</time></trkpt>
<trkpt lat="53.0776632452" lon="-4.0407261737"><ele>556</ele><time>2010-01-01T06:15:31Z</time></trkpt>
<trkpt lat="53.0776453079" lon="-4.0407549236"><ele>555</ele><time>2010-01-01T06:15:37Z</time></trkpt>
<trkpt lat="53.0776210842" lon="-4.0407647304"><ele>556</ele><time>2010-01-01T06:15:43Z</time></trkpt>
<trkpt lat="53.0775774983" lon="-4.0407814942"><ele>556</ele><time>2010-01-01T06:15:52Z</time></trkpt>
<trkpt lat="53.0775433840" lon="-4.0407972522"><ele>556</ele><time>2010-01-01T06:16:00Z</time></trkpt>
<trkpt lat="53.0774964453" lon="-4.0408656486"><ele>558</ele><time>2010-01-01T06:16:09Z</time></trkpt>
<trkpt lat="53.0774522727" lon="-4.0409661476"><ele>557</ele><time>2010-01-01T06:16:19Z</time></trkpt>
<trkpt lat="53.0774332458" lon="-4.0410088953"><ele>559</ele><time>2010-01-01T06:16:26Z</time></trkpt>
<trkpt lat="53.0773987123" lon="-4.0410326999"><ele>563</ele><time>2010-01-01T06:16:53Z</time></trkpt>
<trkpt lat="53.0773679507" lon="-4.0410882719"><ele>564</ele><time>2010-01-01T06:17:02Z</time></trkpt>
<trkpt lat="53.0773365186" lon="-4.0411298461"><ele>564</ele><time>2010-01-01T06:17:09Z</time></trkpt>
<trkpt lat="53.0773091098" lon="-4.0411802214"><ele>564</ele><time>2010-01-01T06:17:16Z</time></trkpt>
<trkpt lat="53.0772685414" lon="-4.0412272439"><ele>566</ele><time>2010-01-01T06:17:23Z</time></trkpt>
<trkpt lat="53.0772278891" lon="-4.0413456802"><ele>566</ele><time>2010-01-01T06:17:33Z</time></trkpt>
<trkpt lat="53.0771917631" lon="-4.0414570756"><ele>566</ele><time>2010-01-01T06:17:42Z</time></trkpt>
<trkpt lat="53.0771336765" lon="-4.0415489413"><ele>567</ele><time>2010-01-01T06:17:51Z</time></trkpt>
<trkpt lat="53.0770917670" lon="-4.0415998195"><ele>568</ele><time>2010-01-01T06:17:58Z</time></trkpt>
<trkpt lat="53.0770338481" lon="-4.0416375380"><ele>570</ele><time>2010-01-01T06:18:07Z</time></trkpt>
<trkpt lat="53.0769501967" lon="-4.0416534636"><ele>571</ele><time>2010-01-01T06:18:17Z</time></trkpt>
<trkpt lat="53.0769144060" lon="-4.0416684672"><ele>571</ele><time>2010-01-01T06:18:25Z</time></trkpt>
<trkpt lat="53.0768808783" lon="-4.0417254642"><ele>573</ele><time>2010-01-01T06:18:45Z</time></trkpt>
<trkpt lat="53.0768642822" lon="-4.0417625960"><ele>573</ele><time>2010-01-01T06:18:53Z</time></trkpt>
<trkpt lat="53.0768191037" lon="-4.0418191739"><ele>573</ele><time>2010-01-01T06:19:03Z</time></trkpt>
<trkpt lat="53.0768164215" lon="-4.0418371950"><ele>572</ele><time>2010-01-01T06:19:23Z</time></trkpt>
<trkpt lat="53.0767905214" lon="-4.0418843851"><ele>572</ele><time>2010-01-01T06:19:38Z</time></trkpt>
<trkpt lat="53.0767913596" lon="-4.0418929346"><ele>574</ele><time>2010-01-01T06:19:55Z</time></trkpt>
<trkpt lat="53.0767662977" lon="-4.0419513565"><ele>574</ele><time>2010-01-01T06:20:06Z</time></trkpt>
<trkpt lat="53.0767364581" lon="-4.0420232732"><ele>574</ele><time>2010-01-01T06:20:12Z</time></trkpt>
<trkpt lat="53.0767157548" lon="-4.0420707986"><ele>574</ele><time>2010-01-01T06:20:20Z</time></trkpt>
<trkpt lat="53.0766893519" lon="-4.0421351716"><ele>574</ele><time>2010-01-01T06:20:28Z</time></trkpt>
<trkpt lat="53.0766539802" lon="-4.0422672704"><ele>573</ele><time>2010-01-01T06:20:37Z</time></trkpt>
<trkpt lat="53.0766129089" lon="-4.0424161330"><ele>571</ele><time>2010-01-01T06:20:47Z</time></trkpt>
<trkpt lat="53.0765880985" lon="-4.0425755568"><ele>570</ele><time>2010-01-01T06:20:57Z</time></trkpt>
<trkpt lat="53.0765676466" lon="-4.0427552648"><ele>569</ele><time>2010-01-01T06:21:08Z</time></trkpt>
<trkpt lat="53.0765492902" lon="-4.0428902973"><ele>568</ele><time>2010-01-01T06:21:18Z</time></trkpt>
<trkpt lat="53.0765342028" lon="-4.0430113320"><ele>568</ele><time>2010-01-01T06:21:27Z</time></trkpt>
<trkpt lat="53.0765051176" lon="-4.0431145970"><ele>567</ele><time>2010-01-01T06:21:36Z</time></trkpt>
<trkpt lat="53.0764549100" lon="-4.0432577599"><ele>565</ele><time>2010-01-01T06:21:47Z</time></trkpt>
<trkpt lat="53.0764060435" lon="-4.0433789622"><ele>565</ele><time>2010-01-01T06:21:57Z</time></trkpt>
<trkpt lat="53.0763555845" lon="-4.0434773658"><ele>565</ele><time>2010-01-01T06:22:06Z</time></trkpt>
<trkpt lat="53.0763054607" lon="-4.0436324310"><ele>563</ele><time>2010-01-01T06:22:18Z</time></trkpt>
<trkpt lat="53.0762758726" lon="-4.0437712353"><ele>563</ele><time>2010-01-01T06:22:28Z</time></trkpt>
<trkpt lat="53.0762345498" lon="-4.0438701418"><ele>562</ele><time>2010-01-01T06:22:37Z</time></trkpt>
<trkpt lat="53.0761903772" lon="-4.0439636000"><ele>562</ele><time>2010-01-01T06:22:45Z</time></trkpt>
<trkpt lat="53.0761119225" lon="-4.0440344271"><ele>563</ele><time>2010-01-01T06:22:54Z</time></trkpt>
<trkpt lat="53.0760562667" lon="-4.0441082716"><ele>564</ele><time>2010-01-01T06:23:03Z</time></trkpt>
<trkpt lat="53.0760221524" lon="-4.0441443976"><ele>564</ele><time>2010-01-01T06:23:10Z</time></trkpt>
<trkpt lat="53.0759552648" lon="-4.0441771709"><ele>565</ele><time>2010-01-01T06:23:19Z</time></trkpt>
<trkpt lat="53.0759136067" lon="-4.0442242772"><ele>566</ele><time>2010-01-01T06:23:27Z</time></trkpt>
<trkpt lat="53.0758939931" lon="-4.0442459863"><ele>565</ele><time>2010-01-01T06:23:33Z</time></trkpt>
<trkpt lat="53.0758412709" lon="-4.0443291348"><ele>565</ele><time>2010-01-01T06:23:41Z</time></trkpt>
<trkpt lat="53.0757873753" lon="-4.0444584675"><ele>564</ele><time>2010-01-01T06:23:51Z</time></trkpt>
<trkpt lat="53.0757551049" lon="-4.0445755627"><ele>564</ele><time>2010-01-01T06:24:00Z</time></trkpt>
<trkpt lat="53.0757053164" lon="-4.0446996987"><ele>563</ele><time>2010-01-01T06:24:10Z</time></trkpt>
<trkpt lat="53.0756245987" lon="-4.0447838530"><ele>563</ele><time>2010-01-01T06:24:20Z</time></trkpt>
<trkpt lat="53.0755883889" lon="-4.0448164586"><ele>563</ele><time>2010-01-01T06:24:24Z</time></trkpt>
<trkpt lat="53.0755189029" lon="-4.0449012835"><ele>564</ele><time>2010-01-01T06:24:33Z</time></trkpt>
<trkpt lat="53.0754642529" lon="-4.0450100806"><ele>563</ele><time>2010-01-01T06:24:42Z</time></trkpt>
<trkpt lat="53.0754438010" lon="-4.0450516548"><ele>563</ele><time>2010-01-01T06:24:45Z</time></trkpt>
<trkpt lat="53.0753642568" lon="-4.0451630503"><ele>563</ele><time>2010-01-01T06:24:55Z</time></trkpt>
<trkpt lat="53.0753077628" lon="-4.0452761222"><ele>564</ele><time>2010-01-01T06:25:04Z</time></trkpt>
<trkpt lat="53.0752658532" lon="-4.0454279185"><ele>563</ele><time>2010-01-01T06:25:14Z</time></trkpt>
<trkpt lat="53.0752372709" lon="-4.0455743503"><ele>563</ele><time>2010-01-01T06:25:24Z</time></trkpt>
<trkpt lat="53.0752185793" lon="-4.0457173456"><ele>563</ele><time>2010-01-01T06:25:34Z</time></trkpt>
<trkpt lat="53.0752008935" lon="-4.0458268970"><ele>563</ele><time>2010-01-01T06:25:43Z</time></trkpt>
<trkpt lat="53.0751834591" lon="-4.0459356941"><ele>564</ele><time>2010-01-01T06:25:51Z</time></trkpt>
<trkpt lat="53.0751828724" lon="-4.0459506978"><ele>562</ele><time>2010-01-01T06:25:57Z</time></trkpt>
<trkpt lat="53.0751630911" lon="-4.0460230336"><ele>562</ele><time>2010-01-01T06:26:06Z</time></trkpt>
<trkpt lat="53.0751151466" lon="-4.0461512767"><ele>562</ele><time>2010-01-01T06:26:15Z</time></trkpt>
<trkpt lat="53.0750654419" lon="-4.0462755803"><ele>562</ele><time>2010-01-01T06:26:25Z</time></trkpt>
<trkpt lat="53.0750252088" lon="-4.0463768337"><ele>562</ele><time>2010-01-01T06:26:33Z</time></trkpt>
<trkpt lat="53.0749956207" lon="-4.0464706272"><ele>562</ele><time>2010-01-01T06:26:41Z</time></trkpt>
<trkpt lat="53.0749656973" lon="-4.0465565417"><ele>563</ele><time>2010-01-01T06:26:49Z</time></trkpt>
<trkpt lat="53.0749296551" lon="-4.0466564540"><ele>564</ele><time>2010-01-01T06:26:59Z</time></trkpt>
<trkpt lat="53.0749280625" lon="-4.0467189830"><ele>564</ele><time>2010-01-01T06:27:07Z</time></trkpt>
<trkpt lat="53.0749228658" lon="-4.0467676819"><ele>564</ele><time>2010-01-01T06:27:14Z</time></trkpt>
<trkpt lat="53.0749053476" lon="-4.0468101781"><ele>566</ele><time>2010-01-01T06:27:21Z</time></trkpt>
<trkpt lat="53.0748946187" lon="-4.0468333960"><ele>566</ele><time>2010-01-01T06:27:29Z</time></trkpt>
<trkpt lat="53.0748978877" lon="-4.0468671750"><ele>568</ele><time>2010-01-01T06:28:08Z</time></trkpt>
<trkpt lat="53.0749046770" lon="-4.0469238367"><ele>570</ele><time>2010-01-01T06:28:17Z</time></trkpt>
<trkpt lat="53.0748850634" lon="-4.0469938256"><ele>569</ele><time>2010-01-01T06:28:26Z</time></trkpt>
<trkpt lat="53.0748669585" lon="-4.0470815003"><ele>570</ele><time>2010-01-01T06:28:33Z</time></trkpt>
<trkpt lat="53.0748527930" lon="-4.0472150240"><ele>572</ele><time>2010-01-01T06:28:43Z</time></trkpt>
<trkpt lat="53.0748356101" lon="-4.0473222286"><ele>574</ele><time>2010-01-01T06:28:51Z</time></trkpt>
<trkpt lat="53.0748015796" lon="-4.0473962408"><ele>573</ele><time>2010-01-01T06:28:58Z</time></trkpt>
<trkpt lat="53.0747487736" lon="-4.0474545788"><ele>573</ele><time>2010-01-01T06:29:06Z</time></trkpt>
<trkpt lat="53.0746876696" lon="-4.0475826543"><ele>573</ele><time>2010-01-01T06:29:17Z</time></trkpt>
<trkpt lat="53.0746431616" lon="-4.0477216263"><ele>574</ele><time>2010-01-01T06:29:28Z</time></trkpt>
<trkpt lat="53.0745947981" lon="-4.0478308425"><ele>574</ele><time>2010-01-01T06:29:37Z</time></trkpt>
<trkpt lat="53.0745849074" lon="-4.0478423257"><ele>572</ele><time>2010-01-01T06:29:49Z</time></trkpt>
<trkpt lat="53.0745251445" lon="-4.0479430761"><ele>572</ele><time>2010-01-01T06:29:58Z</time></trkpt>
<trkpt lat="53.0744808042" lon="-4.0480643623"><ele>572</ele><time>2010-01-01T06:30:07Z</time></trkpt>
<trkpt lat="53.0744250645" lon="-4.0481351894"><ele>572</ele><time>2010-01-01T06:30:14Z</time></trkpt>
<trkpt lat="53.0744005894" lon="-4.0481664539"><ele>573</ele><time>2010-01-01T06:30:17Z</time></trkpt>
<trkpt lat="53.0743250684" lon="-4.0482646898"><ele>574</ele><time>2010-01-01T06:30:27Z</time></trkpt>
<trkpt lat="53.0742671495" lon="-4.0483319964"><ele>574</ele><time>2010-01-01T06:30:36Z</time></trkpt>
<trkpt lat="53.0742234798" lon="-4.0483594891"><ele>575</ele><time>2010-01-01T06:30:43Z</time></trkpt>
<trkpt lat="53.0741423429" lon="-4.0484419670"><ele>575</ele><time>2010-01-01T06:30:54Z</time></trkpt>
<trkpt lat="53.0740923030" lon="-4.0485385265"><ele>576</ele><time>2010-01-01T06:31:04Z</time></trkpt>
<trkpt lat="53.0740602841" lon="-4.0486135446"><ele>577</ele><time>2010-01-01T06:31:11Z</time></trkpt>
<trkpt lat="53.0740187099" lon="-4.0486984533"><ele>578</ele><time>2010-01-01T06:31:20Z</time></trkpt>
<trkpt lat="53.0739793987" lon="-4.0487544444"><ele>579</ele><time>2010-01-01T06:31:28Z</time></trkpt>
<trkpt lat="53.0739323763" lon="-4.0488036461"><ele>580</ele><time>2010-01-01T06:31:36Z</time></trkpt>
<trkpt lat="53.0738921431" lon="-4.0488752276"><ele>582</ele><time>2010-01-01T06:31:44Z</time></trkpt>
<trkpt lat="53.0738681709" lon="-4.0489333980"><ele>581</ele><time>2010-01-01T06:31:49Z</time></trkpt>
<trkpt lat="53.0738778939" lon="-4.0489447974"><ele>579</ele><time>2010-01-01T06:31:55Z</time></trkpt>
<trkpt lat="53.0738980943" lon="-4.0489283689"><ele>577</ele><time>2010-01-01T06:32:02Z</time></trkpt>
<trkpt lat="53.0739035425" lon="-4.0489340686"><ele>579</ele><time>2010-01-01T06:32:08Z</time></trkpt>
<trkpt lat="53.0738908858" lon="-4.0489995312"><ele>580</ele><time>2010-01-01T06:32:15Z</time></trkpt>
<trkpt lat="53.0738759661" lon="-4.0490916483"><ele>581</ele><time>2010-01-01T06:32:24Z</time></trkpt>
<trkpt lat="53.0738350624" lon="-4.0491876211"><ele>581</ele><time>2010-01-01T06:32:32Z</time></trkpt>
<trkpt lat="53.0737898001" lon="-4.0492956639"><ele>582</ele><time>2010-01-01T06:32:42Z</time></trkpt>
<trkpt lat="53.0737679233" lon="-4.0493639764"><ele>583</ele><time>2010-01-01T06:32:50Z</time></trkpt>
<trkpt lat="53.0737447893" lon="-4.0494604521"><ele>585</ele><time>2010-01-01T06:32:59Z</time></trkpt>
<trkpt lat="53.0737276902" lon="-4.0495130904"><ele>586</ele><time>2010-01-01T06:33:06Z</time></trkpt>
<trkpt lat="53.0737225772" lon="-4.0495205503"><ele>586</ele><time>2010-01-01T06:33:14Z</time></trkpt>
<trkpt lat="53.0737127704" lon="-4.0495522339"><ele>587</ele><time>2010-01-01T06:33:32Z</time></trkpt>
<trkpt lat="53.0736656641" lon="-4.0496452730"><ele>587</ele><time>2010-01-01T06:33:41Z</time></trkpt>
<trkpt lat="53.0736288675" lon="-4.0497339536"><ele>587</ele><time>2010-01-01T06:33:50Z</time></trkpt>
<trkpt lat="53.0735754748" lon="-4.0498425830"><ele>587</ele><time>2010-01-01T06:34:00Z</time></trkpt>
<trkpt lat="53.0735427854" lon="-4.0499181878"><ele>588</ele><time>2010-01-01T06:34:09Z</time></trkpt>
<trkpt lat="53.0735317213" lon="-4.0500023421"><ele>588</ele><time>2010-01-01T06:34:17Z</time></trkpt>
<trkpt lat="53.0735053183" lon="-4.0500565730"><ele>589</ele><time>2010-01-01T06:34:24Z</time></trkpt>
<trkpt lat="53.0734936674" lon="-4.0500981473"><ele>590</ele><time>2010-01-01T06:34:31Z</time></trkpt>
<trkpt lat="53.0734854532" lon="-4.0501308367"><ele>590</ele><time>2010-01-01T06:34:53Z</time></trkpt>
<trkpt lat="53.0734655881" lon="-4.0501902644"><ele>590</ele><time>2010-01-01T06:35:02Z</time></trkpt>
<trkpt lat="53.0734445495" lon="-4.0502456688"><ele>591</ele><time>2010-01-01T06:35:09Z</time></trkpt>
<trkpt lat="53.0734225051" lon="-4.0502983909"><ele>592</ele><time>2010-01-01T06:35:16Z</time></trkpt>
<trkpt lat="53.0733930846" lon="-4.0503566452"><ele>592</ele><time>2010-01-01T06:35:24Z</time></trkpt>
<trkpt lat="53.0733691962" lon="-4.0504002311"><ele>595</ele><time>2010-01-01T06:35:32Z</time></trkpt>
<trkpt lat="53.0733452239" lon="-4.0504421406"><ele>595</ele><time>2010-01-01T06:35:39Z</time></trkpt>
<trkpt lat="53.0732931723" lon="-4.0505183321"><ele>595</ele><time>2010-01-01T06:35:48Z</time></trkpt>
<trkpt lat="53.0732608182" lon="-4.0505821184"><ele>597</ele><time>2010-01-01T06:35:56Z</time></trkpt>
<trkpt lat="53.0732425456" lon="-4.0506336671"><ele>599</ele><time>2010-01-01T06:36:03Z</time></trkpt>
<trkpt lat="53.0732313139" lon="-4.0507093556"><ele>600</ele><time>2010-01-01T06:36:11Z</time></trkpt>
<trkpt lat="53.0732282964" lon="-4.0507652629"><ele>601</ele><time>2010-01-01T06:36:17Z</time></trkpt>
<trkpt lat="53.0732273744" lon="-4.0508260317"><ele>602</ele><time>2010-01-01T06:36:25Z</time></trkpt>
<trkpt lat="53.0732273744" lon="-4.0508726351"><ele>602</ele><time>2010-01-01T06:36:31Z</time></trkpt>
<trkpt lat="53.0732272906" lon="-4.0508854594"><ele>601</ele><time>2010-01-01T06:36:39Z</time></trkpt>
<trkpt lat="53.0732497541" lon="-4.0509143770"><ele>602</ele><time>2010-01-01T06:37:04Z</time></trkpt>
<trkpt lat="53.0732672722" lon="-4.0509560351"><ele>603</ele><time>2010-01-01T06:37:12Z</time></trkpt>
<trkpt lat="53.0732780849" lon="-4.0510033928"><ele>603</ele><time>2010-01-01T06:37:19Z</time></trkpt>
<trkpt lat="53.0732713794" lon="-4.0510293767"><ele>604</ele><time>2010-01-01T06:37:28Z</time></trkpt>
<trkpt lat="53.0732587227" lon="-4.0510830209"><ele>603</ele><time>2010-01-01T06:37:35Z</time></trkpt>
<trkpt lat="53.0732604829" lon="-4.0510860384"><ele>605</ele><time>2010-01-01T06:37:44Z</time></trkpt>
<trkpt lat="53.0732769952" lon="-4.0510947556"><ele>606</ele><time>2010-01-01T06:37:50Z</time></trkpt>
<trkpt lat="53.0732935076" lon="-4.0511212424"><ele>607</ele><time>2010-01-01T06:37:57Z</time></trkpt>
<trkpt lat="53.0732956869" lon="-4.0511654988"><ele>608</ele><time>2010-01-01T06:38:04Z</time></trkpt>
<trkpt lat="53.0733023086" lon="-4.0512176343"><ele>608</ele><time>2010-01-01T06:38:11Z</time></trkpt>
<trkpt lat="53.0733098523" lon="-4.0512677580"><ele>609</ele><time>2010-01-01T06:38:18Z</time></trkpt>
<trkpt lat="53.0733025601" lon="-4.0513052251"><ele>610</ele><time>2010-01-01T06:38:24Z</time></trkpt>
<trkpt lat="53.0733209164" lon="-4.0513292812"><ele>610</ele><time>2010-01-01T06:38:34Z</time></trkpt>
<trkpt lat="53.0733098523" lon="-4.0513950791"><ele>611</ele><time>2010-01-01T06:38:41Z</time></trkpt>
<trkpt lat="53.0733197430" lon="-4.0514314566"><ele>611</ele><time>2010-01-01T06:38:48Z</time></trkpt>
<trkpt lat="53.0733159711" lon="-4.0514492262"><ele>613</ele><time>2010-01-01T06:39:09Z</time></trkpt>
<trkpt lat="53.0733171446" lon="-4.0514921416"><ele>614</ele><time>2010-01-01T06:39:24Z</time></trkpt>
<trkpt lat="53.0733168093" lon="-4.0515479651"><ele>614</ele><time>2010-01-01T06:39:31Z</time></trkpt>
<trkpt lat="53.0733113611" lon="-4.0515607894"><ele>615</ele><time>2010-01-01T06:39:37Z</time></trkpt>
<trkpt lat="53.0733059966" lon="-4.0516092368"><ele>616</ele><time>2010-01-01T06:40:03Z</time></trkpt>
<trkpt lat="53.0733171446" lon="-4.0516543314"><ele>615</ele><time>2010-01-01T06:40:10Z</time></trkpt>
<trkpt lat="53.0733236825" lon="-4.0516785551"><ele>616</ele><time>2010-01-01T06:40:15Z</time></trkpt>
<trkpt lat="53.0733153844" lon="-4.0516999290"><ele>617</ele><time>2010-01-01T06:40:21Z</time></trkpt>
<trkpt lat="53.0733102714" lon="-4.0517393239"><ele>618</ele><time>2010-01-01T06:40:28Z</time></trkpt>
<trkpt lat="53.0733043203" lon="-4.0517907888"><ele>618</ele><time>2010-01-01T06:40:34Z</time></trkpt>
<trkpt lat="53.0732948487" lon="-4.0518460255"><ele>619</ele><time>2010-01-01T06:40:42Z</time></trkpt>
<trkpt lat="53.0732613211" lon="-4.0518606939"><ele>620</ele><time>2010-01-01T06:40:52Z</time></trkpt>
<trkpt lat="53.0732461498" lon="-4.0519012623"><ele>620</ele><time>2010-01-01T06:40:59Z</time></trkpt>
<trkpt lat="53.0732305595" lon="-4.0519555770"><ele>621</ele><time>2010-01-01T06:41:06Z</time></trkpt>
<trkpt lat="53.0732344990" lon="-4.0519997496"><ele>620</ele><time>2010-01-01T06:41:12Z</time></trkpt>
<trkpt lat="53.0732305595" lon="-4.0520559922"><ele>621</ele><time>2010-01-01T06:41:19Z</time></trkpt>
<trkpt lat="53.0732258656" lon="-4.0520800483"><ele>621</ele><time>2010-01-01T06:41:25Z</time></trkpt>
<trkpt lat="53.0732278773" lon="-4.0520732589"><ele>621</ele><time>2010-01-01T06:41:36Z</time></trkpt>
<trkpt lat="53.0732303080" lon="-4.0521102231"><ele>622</ele><time>2010-01-01T06:42:25Z</time></trkpt>
<trkpt lat="53.0732263686" lon="-4.0521884263"><ele>623</ele><time>2010-01-01T06:42:33Z</time></trkpt>
<trkpt lat="53.0732252789" lon="-4.0522396397"><ele>624</ele><time>2010-01-01T06:42:40Z</time></trkpt>
<trkpt lat="53.0732045756" lon="-4.0522955470"><ele>627</ele><time>2010-01-01T06:42:48Z</time></trkpt>
<trkpt lat="53.0731973672" lon="-4.0523446650"><ele>626</ele><time>2010-01-01T06:42:55Z</time></trkpt>
<trkpt lat="53.0731946850" lon="-4.0523857363"><ele>627</ele><time>2010-01-01T06:43:00Z</time></trkpt>
<trkpt lat="53.0731645939" lon="-4.0524625983"><ele>629</ele><time>2010-01-01T06:43:09Z</time></trkpt>
<trkpt lat="53.0731356764" lon="-4.0525176674"><ele>631</ele><time>2010-01-01T06:43:17Z</time></trkpt>
<trkpt lat="53.0731179905" lon="-4.0525469203"><ele>632</ele><time>2010-01-01T06:43:25Z</time></trkpt>
<trkpt lat="53.0731085190" lon="-4.0525650252"><ele>632</ele><time>2010-01-01T06:43:37Z</time></trkpt>
<trkpt lat="53.0731308987" lon="-4.0525415559"><ele>633</ele><time>2010-01-01T06:44:33Z</time></trkpt>
<trkpt lat="53.0731068426" lon="-4.0525543802"><ele>636</ele><time>2010-01-01T06:45:11Z</time></trkpt>
<trkpt lat="53.0730904979" lon="-4.0526291467"><ele>635</ele><time>2010-01-01T06:46:07Z</time></trkpt>
<trkpt lat="53.0730660227" lon="-4.0526752472"><ele>634</ele><time>2010-01-01T06:46:15Z</time></trkpt>
<trkpt lat="53.0730382786" lon="-4.0527271312"><ele>633</ele><time>2010-01-01T06:46:25Z</time></trkpt>
<trkpt lat="53.0730075171" lon="-4.0527555458"><ele>635</ele><time>2010-01-01T06:46:32Z</time></trkpt>
<trkpt lat="53.0729616681" lon="-4.0528155603"><ele>636</ele><time>2010-01-01T06:46:40Z</time></trkpt>
<trkpt lat="53.0729419706" lon="-4.0528675281"><ele>636</ele><time>2010-01-01T06:46:47Z</time></trkpt>
<trkpt lat="53.0729340078" lon="-4.0529043246"><ele>637</ele><time>2010-01-01T06:46:54Z</time></trkpt>
<trkpt lat="53.0729089459" lon="-4.0529588908"><ele>637</ele><time>2010-01-01T06:47:03Z</time></trkpt>
<trkpt lat="53.0728824591" lon="-4.0529932566"><ele>639</ele><time>2010-01-01T06:47:11Z</time></trkpt>
<trkpt lat="53.0728534577" lon="-4.0530260299"><ele>641</ele><time>2010-01-01T06:47:18Z</time></trkpt>
<trkpt lat="53.0728314133" lon="-4.0530480743"><ele>641</ele><time>2010-01-01T06:47:25Z</time></trkpt>
<trkpt lat="53.0727868216" lon="-4.0530791711"><ele>642</ele><time>2010-01-01T06:47:33Z</time></trkpt>
<trkpt lat="53.0727605024" lon="-4.0530930851"><ele>643</ele><time>2010-01-01T06:47:40Z</time></trkpt>
<trkpt lat="53.0727267233" lon="-4.0530949291"><ele>644</ele><time>2010-01-01T06:47:48Z</time></trkpt>
<trkpt lat="53.0726880827" lon="-4.0531211645"><ele>645</ele><time>2010-01-01T06:47:56Z</time></trkpt>
<trkpt lat="53.0726658707" lon="-4.0531387665"><ele>645</ele><time>2010-01-01T06:48:01Z</time></trkpt>
<trkpt lat="53.0726128971" lon="-4.0531707015"><ele>646</ele><time>2010-01-01T06:48:10Z</time></trkpt>
<trkpt lat="53.0725595882" lon="-4.0532292910"><ele>648</ele><time>2010-01-01T06:48:19Z</time></trkpt>
<trkpt lat="53.0725133201" lon="-4.0532854498"><ele>649</ele><time>2010-01-01T06:48:27Z</time></trkpt>
<trkpt lat="53.0724864980" lon="-4.0533708614"><ele>648</ele><time>2010-01-01T06:48:36Z</time></trkpt>
<trkpt lat="53.0724352007" lon="-4.0534396768"><ele>647</ele><time>2010-01-01T06:48:45Z</time></trkpt>
<trkpt lat="53.0723870048" lon="-4.0535517428"><ele>647</ele><time>2010-01-01T06:48:54Z</time></trkpt>
<trkpt lat="53.0723649604" lon="-4.0536970850"><ele>647</ele><time>2010-01-01T06:49:05Z</time></trkpt>
<trkpt lat="53.0723502082" lon="-4.0537776351"><ele>647</ele><time>2010-01-01T06:49:13Z</time></trkpt>
<trkpt lat="53.0723349532" lon="-4.0538692493"><ele>649</ele><time>2010-01-01T06:49:21Z</time></trkpt>
<trkpt lat="53.0723230508" lon="-4.0539504700"><ele>650</ele><time>2010-01-01T06:49:29Z</time></trkpt>
<trkpt lat="53.0723103104" lon="-4.0540164355"><ele>651</ele><time>2010-01-01T06:49:37Z</time></trkpt>
<trkpt lat="53.0723162615" lon="-4.0541009251"><ele>651</ele><time>2010-01-01T06:49:46Z</time></trkpt>
<trkpt lat="53.0723011741" lon="-4.0541708302"><ele>650</ele><time>2010-01-01T06:49:53Z</time></trkpt>
<trkpt lat="53.0723058679" lon="-4.0542185232"><ele>650</ele><time>2010-01-01T06:49:59Z</time></trkpt>
<trkpt lat="53.0723042754" lon="-4.0542742629"><ele>651</ele><time>2010-01-01T06:50:06Z</time></trkpt>
<trkpt lat="53.0723036887" lon="-4.0543308407"><ele>652</ele><time>2010-01-01T06:50:12Z</time></trkpt>
<trkpt lat="53.0723127411" lon="-4.0543634463"><ele>651</ele><time>2010-01-01T06:50:17Z</time></trkpt>
<trkpt lat="53.0723106456" lon="-4.0543972254"><ele>651</ele><time>2010-01-01T06:50:23Z</time></trkpt>
<trkpt lat="53.0722979890" lon="-4.0544655379"><ele>653</ele><time>2010-01-01T06:50:30Z</time></trkpt>
<trkpt lat="53.0722938818" lon="-4.0545466747"><ele>654</ele><time>2010-01-01T06:50:38Z</time></trkpt>
<trkpt lat="53.0722829015" lon="-4.0546439886"><ele>655</ele><time>2010-01-01T06:50:48Z</time></trkpt>
<trkpt lat="53.0722605219" lon="-4.0547634308"><ele>657</ele><time>2010-01-01T06:50:57Z</time></trkpt>
<trkpt lat="53.0722399024" lon="-4.0549063422"><ele>657</ele><time>2010-01-01T06:51:08Z</time></trkpt>
<trkpt lat="53.0722438419" lon="-4.0549221840"><ele>658</ele><time>2010-01-01T06:51:14Z</time></trkpt>
<trkpt lat="53.0722412435" lon="-4.0549590644"><ele>658</ele><time>2010-01-01T06:51:21Z</time></trkpt>
<trkpt lat="53.0722419978" lon="-4.0550248623"><ele>658</ele><time>2010-01-01T06:51:29Z</time></trkpt>
<trkpt lat="53.0722640423" lon="-4.0551171471"><ele>657</ele><time>2010-01-01T06:51:37Z</time></trkpt>
<trkpt lat="53.0722566662" lon="-4.0551993735"><ele>656</ele><time>2010-01-01T06:51:44Z</time></trkpt>
<trkpt lat="53.0722690714" lon="-4.0552791693"><ele>656</ele><time>2010-01-01T06:51:51Z</time></trkpt>
<trkpt lat="53.0722963126" lon="-4.0553004593"><ele>655</ele><time>2010-01-01T06:51:59Z</time></trkpt>
<trkpt lat="53.0723150042" lon="-4.0553101823"><ele>655</ele><time>2010-01-01T06:52:15Z</time></trkpt>
<trkpt lat="53.0723514655" lon="-4.0553113558"><ele>653</ele><time>2010-01-01T06:52:22Z</time></trkpt>
<trkpt lat="53.0724135754" lon="-4.0553418659"><ele>652</ele><time>2010-01-01T06:52:30Z</time></trkpt>
<trkpt lat="53.0724781999" lon="-4.0553938337"><ele>650</ele><time>2010-01-01T06:52:39Z</time></trkpt>
<trkpt lat="53.0725275693" lon="-4.0554390960"><ele>650</ele><time>2010-01-01T06:52:46Z</time></trkpt>
<trkpt lat="53.0725532179" lon="-4.0555314645"><ele>651</ele><time>2010-01-01T06:52:55Z</time></trkpt>
<trkpt lat="53.0725753461" lon="-4.0555922333"><ele>651</ele><time>2010-01-01T06:53:02Z</time></trkpt>
<trkpt lat="53.0726063592" lon="-4.0556259286"><ele>651</ele><time>2010-01-01T06:53:11Z</time></trkpt>
<trkpt lat="53.0726037608" lon="-4.0556524992"><ele>653</ele><time>2010-01-01T06:53:18Z</time></trkpt>
<trkpt lat="53.0726069459" lon="-4.0557384976"><ele>655</ele><time>2010-01-01T06:53:26Z</time></trkpt>
<trkpt lat="53.0726192673" lon="-4.0558108334"><ele>656</ele><time>2010-01-01T06:53:33Z</time></trkpt>
<trkpt lat="53.0726354444" lon="-4.0558975861"><ele>657</ele><time>2010-01-01T06:53:42Z</time></trkpt>
<trkpt lat="53.0726491907" lon="-4.0559886974"><ele>657</ele><time>2010-01-01T06:53:51Z</time></trkpt>
<trkpt lat="53.0726532140" lon="-4.0560477898"><ele>657</ele><time>2010-01-01T06:53:58Z</time></trkpt>
<trkpt lat="53.0726527949" lon="-4.0561126657"><ele>658</ele><time>2010-01-01T06:54:07Z</time></trkpt>
<trkpt lat="53.0726440777" lon="-4.0561929643"><ele>658</ele><time>2010-01-01T06:54:15Z</time></trkpt>
<trkpt lat="53.0726568182" lon="-4.0562950559"><ele>657</ele><time>2010-01-01T06:54:24Z</time></trkpt>
<trkpt lat="53.0726621827" lon="-4.0563323554"><ele>657</ele><time>2010-01-01T06:54:31Z</time></trkpt>
<trkpt lat="53.0726612606" lon="-4.0563904420"><ele>655</ele><time>2010-01-01T06:54:38Z</time></trkpt>
<trkpt lat="53.0726429043" lon="-4.0564494506"><ele>655</ele><time>2010-01-01T06:54:45Z</time></trkpt>
<trkpt lat="53.0726331813" lon="-4.0565449205"><ele>655</ele><time>2010-01-01T06:54:54Z</time></trkpt>
<trkpt lat="53.0726299961" lon="-4.0566391330"><ele>656</ele><time>2010-01-01T06:55:02Z</time></trkpt>
<trkpt lat="53.0726237935" lon="-4.0567209404"><ele>656</ele><time>2010-01-01T06:55:09Z</time></trkpt>
<trkpt lat="53.0726149087" lon="-4.0568347667"><ele>656</ele><time>2010-01-01T06:55:19Z</time></trkpt>
<trkpt lat="53.0726109692" lon="-4.0569061805"><ele>655</ele><time>2010-01-01T06:55:25Z</time></trkpt>
<trkpt lat="53.0725988155" lon="-4.0569786001"><ele>654</ele><time>2010-01-01T06:55:31Z</time></trkpt>
<trkpt lat="53.0725853206" lon="-4.0570892412"><ele>654</ele><time>2010-01-01T06:55:41Z</time></trkpt>
<trkpt lat="53.0725877514" lon="-4.0571864713"><ele>654</ele><time>2010-01-01T06:55:49Z</time></trkpt>
<trkpt lat="53.0725884219" lon="-4.0572767444"><ele>654</ele><time>2010-01-01T06:55:57Z</time></trkpt>
<trkpt lat="53.0725970553" lon="-4.0573658441"><ele>654</ele><time>2010-01-01T06:56:05Z</time></trkpt>
<trkpt lat="53.0726394677" lon="-4.0574873816"><ele>652</ele><time>2010-01-01T06:56:15Z</time></trkpt>
<trkpt lat="53.0726596681" lon="-4.0575555265"><ele>652</ele><time>2010-01-01T06:56:22Z</time></trkpt>
<trkpt lat="53.0726651163" lon="-4.0576398485"><ele>653</ele><time>2010-01-01T06:56:30Z</time></trkpt>
<trkpt lat="53.0726688044" lon="-4.0577370785"><ele>654</ele><time>2010-01-01T06:56:39Z</time></trkpt>
<trkpt lat="53.0726771863" lon="-4.0577807483"><ele>654</ele><time>2010-01-01T06:56:47Z</time></trkpt>
<trkpt lat="53.0726814610" lon="-4.0578749609"><ele>654</ele><time>2010-01-01T06:56:56Z</time></trkpt>
<trkpt lat="53.0726796170" lon="-4.0579493922"><ele>653</ele><time>2010-01-01T06:57:05Z</time></trkpt>
<trkpt lat="53.0726708998" lon="-4.0579909664"><ele>652</ele><time>2010-01-01T06:57:12Z</time></trkpt>
<trkpt lat="53.0726501965" lon="-4.0580138490"><ele>654</ele><time>2010-01-01T06:57:20Z</time></trkpt>
<trkpt lat="53.0726382104" lon="-4.0580873583"><ele>654</ele><time>2010-01-01T06:57:27Z</time></trkpt>
<trkpt lat="53.0726258890" lon="-4.0581800621"><ele>652</ele><time>2010-01-01T06:57:36Z</time></trkpt>
<trkpt lat="53.0726026711" lon="-4.0582474526"><ele>652</ele><time>2010-01-01T06:57:44Z</time></trkpt>
<trkpt lat="53.0725646173" lon="-4.0582990013"><ele>653</ele><time>2010-01-01T06:57:51Z</time></trkpt>
<trkpt lat="53.0725682215" lon="-4.0583635420"><ele>654</ele><time>2010-01-01T06:57:58Z</time></trkpt>
<trkpt lat="53.0725986478" lon="-4.0584211257"><ele>653</ele><time>2010-01-01T06:58:07Z</time></trkpt>
<trkpt lat="53.0726140705" lon="-4.0584934615"><ele>653</ele><time>2010-01-01T06:58:15Z</time></trkpt>
<trkpt lat="53.0726278168" lon="-4.0585554876"><ele>653</ele><time>2010-01-01T06:58:23Z</time></trkpt>
<trkpt lat="53.0726371208" lon="-4.0586234648"><ele>653</ele><time>2010-01-01T06:58:31Z</time></trkpt>
<trkpt lat="53.0726431557" lon="-4.0586533882"><ele>654</ele><time>2010-01-01T06:58:38Z</time></trkpt>
<trkpt lat="53.0726481011" lon="-4.0587100499"><ele>655</ele><time>2010-01-01T06:59:11Z</time></trkpt>
<trkpt lat="53.0726248832" lon="-4.0587781947"><ele>656</ele><time>2010-01-01T06:59:18Z</time></trkpt>
<trkpt lat="53.0725975582" lon="-4.0588970501"><ele>656</ele><time>2010-01-01T06:59:28Z</time></trkpt>
<trkpt lat="53.0726000727" lon="-4.0589807853"><ele>656</ele><time>2010-01-01T06:59:36Z</time></trkpt>
<trkpt lat="53.0726043475" lon="-4.0590345972"><ele>657</ele><time>2010-01-01T06:59:44Z</time></trkpt>
<trkpt lat="53.0726133162" lon="-4.0590905883"><ele>658</ele><time>2010-01-01T06:59:52Z</time></trkpt>
<trkpt lat="53.0726255537" lon="-4.0591490940"><ele>657</ele><time>2010-01-01T07:00:00Z</time></trkpt>
<trkpt lat="53.0726136514" lon="-4.0592113715"><ele>659</ele><time>2010-01-01T07:00:09Z</time></trkpt>
<trkpt lat="53.0726032579" lon="-4.0592544545"><ele>661</ele><time>2010-01-01T07:00:17Z</time></trkpt>
<trkpt lat="53.0726015815" lon="-4.0592669435"><ele>662</ele><time>2010-01-01T07:00:24Z</time></trkpt>
<trkpt lat="53.0726056886" lon="-4.0592946876"><ele>662</ele><time>2010-01-01T07:00:31Z</time></trkpt>
<trkpt lat="53.0726143220" lon="-4.0593204201"><ele>662</ele><time>2010-01-01T07:00:37Z</time></trkpt>
<trkpt lat="53.0726195188" lon="-4.0593547859"><ele>663</ele><time>2010-01-01T07:00:44Z</time></trkpt>
<trkpt lat="53.0726237935" lon="-4.0593865533"><ele>663</ele><time>2010-01-01T07:00:52Z</time></trkpt>
<trkpt lat="53.0726174233" lon="-4.0594291333"><ele>664</ele><time>2010-01-01T07:01:00Z</time></trkpt>
<trkpt lat="53.0725915232" lon="-4.0594878905"><ele>664</ele><time>2010-01-01T07:01:08Z</time></trkpt>
<trkpt lat="53.0725771902" lon="-4.0595187359"><ele>665</ele><time>2010-01-01T07:01:12Z</time></trkpt>
<trkpt lat="53.0725550619" lon="-4.0595618189"><ele>666</ele><time>2010-01-01T07:01:17Z</time></trkpt>
<trkpt lat="53.0725248871" lon="-4.0596563667"><ele>667</ele><time>2010-01-01T07:01:26Z</time></trkpt>
<trkpt lat="53.0725089615" lon="-4.0597034730"><ele>668</ele><time>2010-01-01T07:01:33Z</time></trkpt>
<trkpt lat="53.0725017530" lon="-4.0597007908"><ele>668</ele><time>2010-01-01T07:01:45Z</time></trkpt>
<trkpt lat="53.0724965562" lon="-4.0597026348"><ele>668</ele><time>2010-01-01T07:02:05Z</time></trkpt>
<trkpt lat="53.0725009148" lon="-4.0597325582"><ele>669</ele><time>2010-01-01T07:02:20Z</time></trkpt>
<trkpt lat="53.0724955504" lon="-4.0597422812"><ele>669</ele><time>2010-01-01T07:02:35Z</time></trkpt>
<trkpt lat="53.0724766911" lon="-4.0597885493"><ele>669</ele><time>2010-01-01T07:02:45Z</time></trkpt>
<trkpt lat="53.0724333567" lon="-4.0598786548"><ele>670</ele><time>2010-01-01T07:02:54Z</time></trkpt>
<trkpt lat="53.0724061155" lon="-4.0599603784"><ele>671</ele><time>2010-01-01T07:03:02Z</time></trkpt>
<trkpt lat="53.0723901899" lon="-4.0600293614"><ele>672</ele><time>2010-01-01T07:03:10Z</time></trkpt>
<trkpt lat="53.0723833167" lon="-4.0600962490"><ele>671</ele><time>2010-01-01T07:03:17Z</time></trkpt>
<trkpt lat="53.0723782876" lon="-4.0601436906"><ele>671</ele><time>2010-01-01T07:03:23Z</time></trkpt>
<trkpt lat="53.0723798802" lon="-4.0601897911"><ele>670</ele><time>2010-01-01T07:03:28Z</time></trkpt>
<trkpt lat="53.0723849093" lon="-4.0602346342"><ele>670</ele><time>2010-01-01T07:03:36Z</time></trkpt>
<trkpt lat="53.0723881782" lon="-4.0602407530"><ele>670</ele><time>2010-01-01T07:03:42Z</time></trkpt>
<trkpt lat="53.0724066184" lon="-4.0602618754"><ele>670</ele><time>2010-01-01T07:03:49Z</time></trkpt>
<trkpt lat="53.0724031818" lon="-4.0602905415"><ele>670</ele><time>2010-01-01T07:03:55Z</time></trkpt>
<trkpt lat="53.0723851608" lon="-4.0602815729"><ele>672</ele><time>2010-01-01T07:04:02Z</time></trkpt>
<trkpt lat="53.0723862504" lon="-4.0602905415"><ele>670</ele><time>2010-01-01T07:04:17Z</time></trkpt>
<trkpt lat="53.0723892679" lon="-4.0602794774"><ele>671</ele><time>2010-01-01T07:04:23Z</time></trkpt>
<trkpt lat="53.0723724203" lon="-4.0602951516"><ele>671</ele><time>2010-01-01T07:04:44Z</time></trkpt>
<trkpt lat="53.0723565785" lon="-4.0602953192"><ele>670</ele><time>2010-01-01T07:04:49Z</time></trkpt>
<trkpt lat="53.0723626973" lon="-4.0603074730"><ele>671</ele><time>2010-01-01T07:05:03Z</time></trkpt>
<trkpt lat="53.0723958058" lon="-4.0603627935"><ele>671</ele><time>2010-01-01T07:05:23Z</time></trkpt>
<trkpt lat="53.0723927883" lon="-4.0603805632"><ele>672</ele><time>2010-01-01T07:05:31Z</time></trkpt>
<trkpt lat="53.0723940456" lon="-4.0604253225"><ele>672</ele><time>2010-01-01T07:05:38Z</time></trkpt>
<trkpt lat="53.0723802154" lon="-4.0604821518"><ele>674</ele><time>2010-01-01T07:05:46Z</time></trkpt>
<trkpt lat="53.0723649604" lon="-4.0605059564"><ele>673</ele><time>2010-01-01T07:05:53Z</time></trkpt>
<trkpt lat="53.0723373839" lon="-4.0605718382"><ele>673</ele><time>2010-01-01T07:06:00Z</time></trkpt>
<trkpt lat="53.0723430836" lon="-4.0606242251"><ele>675</ele><time>2010-01-01T07:06:07Z</time></trkpt>
<trkpt lat="53.0723478613" lon="-4.0607046914"><ele>676</ele><time>2010-01-01T07:06:16Z</time></trkpt>
<trkpt lat="53.0723530581" lon="-4.0607752670"><ele>677</ele><time>2010-01-01T07:06:24Z</time></trkpt>
<trkpt lat="53.0723550697" lon="-4.0608208645"><ele>677</ele><time>2010-01-01T07:06:35Z</time></trkpt>
<trkpt lat="53.0723577519" lon="-4.0608441662"><ele>676</ele><time>2010-01-01T07:06:47Z</time></trkpt>
<trkpt lat="53.0723317680" lon="-4.0608927813"><ele>676</ele><time>2010-01-01T07:06:55Z</time></trkpt>
<trkpt lat="53.0723021799" lon="-4.0609773547"><ele>677</ele><time>2010-01-01T07:07:04Z</time></trkpt>
<trkpt lat="53.0722788782" lon="-4.0610327591"><ele>678</ele><time>2010-01-01T07:07:11Z</time></trkpt>
<trkpt lat="53.0722597675" lon="-4.0610901751"><ele>679</ele><time>2010-01-01T07:07:19Z</time></trkpt>
<trkpt lat="53.0722450153" lon="-4.0611258820"><ele>680</ele><time>2010-01-01T07:07:28Z</time></trkpt>
<trkpt lat="53.0722191991" lon="-4.0611572303"><ele>680</ele><time>2010-01-01T07:07:33Z</time></trkpt>
<trkpt lat="53.0722028544" lon="-4.0612359364"><ele>681</ele><time>2010-01-01T07:07:41Z</time></trkpt>
<trkpt lat="53.0722059557" lon="-4.0613385309"><ele>681</ele><time>2010-01-01T07:07:50Z</time></trkpt>
<trkpt lat="53.0722021838" lon="-4.0613713879"><ele>683</ele><time>2010-01-01T07:07:57Z</time></trkpt>
<trkpt lat="53.0722041955" lon="-4.0613801889"><ele>684</ele><time>2010-01-01T07:08:04Z</time></trkpt>
<trkpt lat="53.0721903653" lon="-4.0613204260"><ele>683</ele><time>2010-01-01T07:08:14Z</time></trkpt>
<trkpt lat="53.0721730148" lon="-4.0612231959"><ele>683</ele><time>2010-01-01T07:08:21Z</time></trkpt>
<trkpt lat="53.0721867611" lon="-4.0611817893"><ele>683</ele><time>2010-01-01T07:08:27Z</time></trkpt>
<trkpt lat="53.0722004236" lon="-4.0611011554"><ele>682</ele><time>2010-01-01T07:08:34Z</time></trkpt>
<trkpt lat="53.0722114039" lon="-4.0610295739"><ele>681</ele><time>2010-01-01T07:08:42Z</time></trkpt>
<trkpt lat="53.0722120745" lon="-4.0609793663"><ele>681</ele><time>2010-01-01T07:08:50Z</time></trkpt>
<trkpt lat="53.0722120745" lon="-4.0609857366"><ele>681</ele><time>2010-01-01T07:08:56Z</time></trkpt>
<trkpt lat="53.0722109848" lon="-4.0610356927"><ele>682</ele><time>2010-01-01T07:09:03Z</time></trkpt>
<trkpt lat="53.0722132479" lon="-4.0610719864"><ele>683</ele><time>2010-01-01T07:09:08Z</time></trkpt>
<trkpt lat="53.0722111524" lon="-4.0611377843"><ele>685</ele><time>2010-01-01T07:09:16Z</time></trkpt>
<trkpt lat="53.0722207078" lon="-4.0611945298"><ele>685</ele><time>2010-01-01T07:09:23Z</time></trkpt>
<trkpt lat="53.0722395671" lon="-4.0612433963"><ele>686</ele><time>2010-01-01T07:09:29Z</time></trkpt>
<trkpt lat="53.0722647966" lon="-4.0612807796"><ele>687</ele><time>2010-01-01T07:09:36Z</time></trkpt>
<trkpt lat="53.0722724242" lon="-4.0613225214"><ele>687</ele><time>2010-01-01T07:09:42Z</time></trkpt>
<trkpt lat="53.0722778724" lon="-4.0613965337"><ele>686</ele><time>2010-01-01T07:09:49Z</time></trkpt>
<trkpt lat="53.0722840750" lon="-4.0614785925"><ele>686</ele><time>2010-01-01T07:09:56Z</time></trkpt>
<trkpt lat="53.0722923731" lon="-4.0615007207"><ele>687</ele><time>2010-01-01T07:10:02Z</time></trkpt>
<trkpt lat="53.0723000006" lon="-4.0614944343"><ele>688</ele><time>2010-01-01T07:10:17Z</time></trkpt>
<trkpt lat="53.0723057841" lon="-4.0615401995"><ele>688</ele><time>2010-01-01T07:10:27Z</time></trkpt>
<trkpt lat="53.0723163453" lon="-4.0615540296"><ele>687</ele><time>2010-01-01T07:10:31Z</time></trkpt>
<trkpt lat="53.0723110647" lon="-4.0615882278"><ele>686</ele><time>2010-01-01T07:10:38Z</time></trkpt>
<trkpt lat="53.0723041916" lon="-4.0616382677"><ele>686</ele><time>2010-01-01T07:10:45Z</time></trkpt>
<trkpt lat="53.0723238052" lon="-4.0616842844"><ele>686</ele><time>2010-01-01T07:10:51Z</time></trkpt>
<trkpt lat="53.0723522199" lon="-4.0617520940"><ele>685</ele><time>2010-01-01T07:10:59Z</time></trkpt>
<trkpt lat="53.0723833167" lon="-4.0617897287"><ele>685</ele><time>2010-01-01T07:11:06Z</time></trkpt>
<trkpt lat="53.0724166767" lon="-4.0618254356"><ele>685</ele><time>2010-01-01T07:11:12Z</time></trkpt>
<trkpt lat="53.0724519645" lon="-4.0618531797"><ele>685</ele><time>2010-01-01T07:11:18Z</time></trkpt>
<trkpt lat="53.0724826423" lon="-4.0618862883"><ele>685</ele><time>2010-01-01T07:11:23Z</time></trkpt>
<trkpt lat="53.0725268987" lon="-4.0619331431"><ele>685</ele><time>2010-01-01T07:11:31Z</time></trkpt>
<trkpt lat="53.0725622704" lon="-4.0619651620"><ele>685</ele><time>2010-01-01T07:11:38Z</time></trkpt>
<trkpt lat="53.0725921938" lon="-4.0619805008"><ele>685</ele><time>2010-01-01T07:11:44Z</time></trkpt>
<trkpt lat="53.0726227877" lon="-4.0620119330"><ele>685</ele><time>2010-01-01T07:11:52Z</time></trkpt>
<trkpt lat="53.0726470952" lon="-4.0620554351"><ele>686</ele><time>2010-01-01T07:11:59Z</time></trkpt>
<trkpt lat="53.0726726600" lon="-4.0620857776"><ele>686</ele><time>2010-01-01T07:12:05Z</time></trkpt>
<trkpt lat="53.0726938662" lon="-4.0621484742"><ele>686</ele><time>2010-01-01T07:12:12Z</time></trkpt>
<trkpt lat="53.0727301599" lon="-4.0622099974"><ele>686</ele><time>2010-01-01T07:12:21Z</time></trkpt>
<trkpt lat="53.0727643581" lon="-4.0622302816"><ele>687</ele><time>2010-01-01T07:12:28Z</time></trkpt>
<trkpt lat="53.0727881627" lon="-4.0622617975"><ele>687</ele><time>2010-01-01T07:12:35Z</time></trkpt>
<trkpt lat="53.0728097880" lon="-4.0622936487"><ele>687</ele><time>2010-01-01T07:12:42Z</time></trkpt>
<trkpt lat="53.0728290663" lon="-4.0623190459"><ele>687</ele><time>2010-01-01T07:12:48Z</time></trkpt>
<trkpt lat="53.0728516137" lon="-4.0623270925"><ele>686</ele><time>2010-01-01T07:12:57Z</time></trkpt>
<trkpt lat="53.0728838840" lon="-4.0623309482"><ele>685</ele><time>2010-01-01T07:13:10Z</time></trkpt>
<trkpt lat="53.0729175792" lon="-4.0623457004"><ele>684</ele><time>2010-01-01T07:13:15Z</time></trkpt>
<trkpt lat="53.0729383664" lon="-4.0623770487"><ele>684</ele><time>2010-01-01T07:13:22Z</time></trkpt>
<trkpt lat="53.0729575609" lon="-4.0623654817"><ele>682</ele><time>2010-01-01T07:13:32Z</time></trkpt>
<trkpt lat="53.0729571418" lon="-4.0623773001"><ele>685</ele><time>2010-01-01T07:13:51Z</time></trkpt>
<trkpt lat="53.0730050863" lon="-4.0623718519"><ele>683</ele><time>2010-01-01T07:14:15Z</time></trkpt>
<trkpt lat="53.0729858918" lon="-4.0623848439"><ele>682</ele><time>2010-01-01T07:15:06Z</time></trkpt>
<trkpt lat="53.0730227721" lon="-4.0623352230"><ele>679</ele><time>2010-01-01T07:16:54Z</time></trkpt>
<trkpt lat="53.0730467444" lon="-4.0623100773"><ele>680</ele><time>2010-01-01T07:17:00Z</time></trkpt>
<trkpt lat="53.0730754943" lon="-4.0623206385"><ele>680</ele><time>2010-01-01T07:17:05Z</time></trkpt>
<trkpt lat="53.0730990474" lon="-4.0623473767"><ele>682</ele><time>2010-01-01T07:17:11Z</time></trkpt>
<trkpt lat="53.0731428010" lon="-4.0623722710"><ele>685</ele><time>2010-01-01T07:17:19Z</time></trkpt>
<trkpt lat="53.0731555415" lon="-4.0623743665"><ele>685</ele><time>2010-01-01T07:17:25Z</time></trkpt>
<trkpt lat="53.0731807710" lon="-4.0623753723"><ele>686</ele><time>2010-01-01T07:17:31Z</time></trkpt>
<trkpt lat="53.0731951041" lon="-4.0623736959"><ele>686</ele><time>2010-01-01T07:17:37Z</time></trkpt>
<trkpt lat="53.0732347505" lon="-4.0623491369"><ele>685</ele><time>2010-01-01T07:17:44Z</time></trkpt>
<trkpt lat="53.0732717147" lon="-4.0623705946"><ele>686</ele><time>2010-01-01T07:17:52Z</time></trkpt>
<trkpt lat="53.0732874726" lon="-4.0624111630"><ele>687</ele><time>2010-01-01T07:17:58Z</time></trkpt>
<trkpt lat="53.0733264485" lon="-4.0624503903"><ele>688</ele><time>2010-01-01T07:18:05Z</time></trkpt>
<trkpt lat="53.0733645861" lon="-4.0625082255"><ele>690</ele><time>2010-01-01T07:18:13Z</time></trkpt>
<trkpt lat="53.0733997063" lon="-4.0625589360"><ele>691</ele><time>2010-01-01T07:18:20Z</time></trkpt>
<trkpt lat="53.0734273666" lon="-4.0625922960"><ele>693</ele><time>2010-01-01T07:18:27Z</time></trkpt>
<trkpt lat="53.0734528476" lon="-4.0626192019"><ele>694</ele><time>2010-01-01T07:18:33Z</time></trkpt>
<trkpt lat="53.0734862076" lon="-4.0626719240"><ele>694</ele><time>2010-01-01T07:18:41Z</time></trkpt>
<trkpt lat="53.0735090063" lon="-4.0627407395"><ele>695</ele><time>2010-01-01T07:18:49Z</time></trkpt>
<trkpt lat="53.0735364990" lon="-4.0627823975"><ele>695</ele><time>2010-01-01T07:18:56Z</time></trkpt>
<trkpt lat="53.0735439589" lon="-4.0627980717"><ele>695</ele><time>2010-01-01T07:19:02Z</time></trkpt>
<trkpt lat="53.0735541010" lon="-4.0628228821"><ele>695</ele><time>2010-01-01T07:19:08Z</time></trkpt>
<trkpt lat="53.0735655004" lon="-4.0628560745"><ele>695</ele><time>2010-01-01T07:19:14Z</time></trkpt>
<trkpt lat="53.0735870418" lon="-4.0629126523"><ele>696</ele><time>2010-01-01T07:19:21Z</time></trkpt>
<trkpt lat="53.0736033027" lon="-4.0629571602"><ele>697</ele><time>2010-01-01T07:19:28Z</time></trkpt>
<trkpt lat="53.0736377524" lon="-4.0630034283"><ele>697</ele><time>2010-01-01T07:19:35Z</time></trkpt>
<trkpt lat="53.0736514149" lon="-4.0630644486"><ele>697</ele><time>2010-01-01T07:19:43Z</time></trkpt>
<trkpt lat="53.0736626466" lon="-4.0631228704"><ele>697</ele><time>2010-01-01T07:19:49Z</time></trkpt>
<trkpt lat="53.0736737945" lon="-4.0631745868"><ele>697</ele><time>2010-01-01T07:19:57Z</time></trkpt>
<trkpt lat="53.0737076574" lon="-4.0632226989"><ele>698</ele><time>2010-01-01T07:20:05Z</time></trkpt>
<trkpt lat="53.0737260976" lon="-4.0632746667"><ele>698</ele><time>2010-01-01T07:20:12Z</time></trkpt>
<trkpt lat="53.0737635647" lon="-4.0633301549"><ele>699</ele><time>2010-01-01T07:20:20Z</time></trkpt>
<trkpt lat="53.0737753832" lon="-4.0633737408"><ele>699</ele><time>2010-01-01T07:20:28Z</time></trkpt>
<trkpt lat="53.0737825078" lon="-4.0634175781"><ele>698</ele><time>2010-01-01T07:20:34Z</time></trkpt>
<trkpt lat="53.0737858606" lon="-4.0634931829"><ele>698</ele><time>2010-01-01T07:20:41Z</time></trkpt>
<trkpt lat="53.0737858606" lon="-4.0635413789"><ele>697</ele><time>2010-01-01T07:20:46Z</time></trkpt>
<trkpt lat="53.0737686777" lon="-4.0636125412"><ele>698</ele><time>2010-01-01T07:20:53Z</time></trkpt>
<trkpt lat="53.0737722819" lon="-4.0636685323"><ele>697</ele><time>2010-01-01T07:20:58Z</time></trkpt>
<trkpt lat="53.0737773949" lon="-4.0637148004"><ele>695</ele><time>2010-01-01T07:21:04Z</time></trkpt>
<trkpt lat="53.0737644867" lon="-4.0637005512"><ele>696</ele><time>2010-01-01T07:21:16Z</time></trkpt>
<trkpt lat="53.0737618883" lon="-4.0637417902"><ele>698</ele><time>2010-01-01T07:21:37Z</time></trkpt>
<trkpt lat="53.0737636485" lon="-4.0637802631"><ele>698</ele><time>2010-01-01T07:21:43Z</time></trkpt>
<trkpt lat="53.0737985173" lon="-4.0638706200"><ele>697</ele><time>2010-01-01T07:22:01Z</time></trkpt>
<trkpt lat="53.0737938234" lon="-4.0639255215"><ele>696</ele><time>2010-01-01T07:22:07Z</time></trkpt>
<trkpt lat="53.0737881237" lon="-4.0639820993"><ele>696</ele><time>2010-01-01T07:22:14Z</time></trkpt>
<trkpt lat="53.0737933205" lon="-4.0640562792"><ele>694</ele><time>2010-01-01T07:22:25Z</time></trkpt>
<trkpt lat="53.0737771434" lon="-4.0640889686"><ele>696</ele><time>2010-01-01T07:22:31Z</time></trkpt>
<trkpt lat="53.0737975114" lon="-4.0641399306"><ele>696</ele><time>2010-01-01T07:22:38Z</time></trkpt>
<trkpt lat="53.0738076535" lon="-4.0641705245"><ele>699</ele><time>2010-01-01T07:22:45Z</time></trkpt>
<trkpt lat="53.0738099167" lon="-4.0641921498"><ele>699</ele><time>2010-01-01T07:22:53Z</time></trkpt>
<trkpt lat="53.0737946616" lon="-4.0642214865"><ele>698</ele><time>2010-01-01T07:23:00Z</time></trkpt>
<trkpt lat="53.0737904706" lon="-4.0642934870"><ele>698</ele><time>2010-01-01T07:23:06Z</time></trkpt>
<trkpt lat="53.0738146105" lon="-4.0643773899"><ele>697</ele><time>2010-01-01T07:23:19Z</time></trkpt>
<trkpt lat="53.0738167898" lon="-4.0644432716"><ele>696</ele><time>2010-01-01T07:23:27Z</time></trkpt>
<trkpt lat="53.0738353138" lon="-4.0644593649"><ele>694</ele><time>2010-01-01T07:23:33Z</time></trkpt>
<trkpt lat="53.0738581964" lon="-4.0644760449"><ele>694</ele><time>2010-01-01T07:23:38Z</time></trkpt>
<trkpt lat="53.0738573582" lon="-4.0645041243"><ele>694</ele><time>2010-01-01T07:23:42Z</time></trkpt>
<trkpt lat="53.0738464618" lon="-4.0645407532"><ele>695</ele><time>2010-01-01T07:23:48Z</time></trkpt>
<trkpt lat="53.0738454559" lon="-4.0646112450"><ele>694</ele><time>2010-01-01T07:23:54Z</time></trkpt>
<trkpt lat="53.0738467132" lon="-4.0647134204"><ele>692</ele><time>2010-01-01T07:24:03Z</time></trkpt>
<trkpt lat="53.0738957473" lon="-4.0648155958"><ele>685</ele><time>2010-01-01T07:24:13Z</time></trkpt>
<trkpt lat="53.0739052189" lon="-4.0648370534"><ele>684</ele><time>2010-01-01T07:24:18Z</time></trkpt>
<trkpt lat="53.0738949092" lon="-4.0648846627"><ele>685</ele><time>2010-01-01T07:24:24Z</time></trkpt>
<trkpt lat="53.0738691767" lon="-4.0649527237"><ele>686</ele><time>2010-01-01T07:24:33Z</time></trkpt>
<trkpt lat="53.0738121798" lon="-4.0650257301"><ele>689</ele><time>2010-01-01T07:24:42Z</time></trkpt>
<trkpt lat="53.0737367426" lon="-4.0651313421"><ele>699</ele><time>2010-01-01T07:24:59Z</time></trkpt>
<trkpt lat="53.0737589547" lon="-4.0651759338"><ele>700</ele><time>2010-01-01T07:25:07Z</time></trkpt>
<trkpt lat="53.0738104196" lon="-4.0652033426"><ele>699</ele><time>2010-01-01T07:25:14Z</time></trkpt>
<trkpt lat="53.0738340565" lon="-4.0652095452"><ele>701</ele><time>2010-01-01T07:25:19Z</time></trkpt>
<trkpt lat="53.0738426061" lon="-4.0652158317"><ele>702</ele><time>2010-01-01T07:25:22Z</time></trkpt>
<trkpt lat="53.0738788997" lon="-4.0652632732"><ele>701</ele><time>2010-01-01T07:25:28Z</time></trkpt>
<trkpt lat="53.0738930651" lon="-4.0653109663"><ele>701</ele><time>2010-01-01T07:25:36Z</time></trkpt>
<trkpt lat="53.0739301131" lon="-4.0653126426"><ele>700</ele><time>2010-01-01T07:25:47Z</time></trkpt>
<trkpt lat="53.0739480504" lon="-4.0653529596"><ele>695</ele><time>2010-01-01T07:26:03Z</time></trkpt>
<trkpt lat="53.0739909658" lon="-4.0653866548"><ele>689</ele><time>2010-01-01T07:26:08Z</time></trkpt>
<trkpt lat="53.0741132577" lon="-4.0654228647"><ele>678</ele><time>2010-01-01T07:26:22Z</time></trkpt>
<trkpt lat="53.0740753715" lon="-4.0654000659"><ele>683</ele><time>2010-01-01T07:26:36Z</time></trkpt>
<trkpt lat="53.0739454520" lon="-4.0652892571"><ele>709</ele><time>2010-01-01T07:27:04Z</time></trkpt>
<trkpt lat="53.0738318772" lon="-4.0652632732"><ele>722</ele><time>2010-01-01T07:27:16Z</time></trkpt>
<trkpt lat="53.0738614654" lon="-4.0653230362"><ele>721</ele><time>2010-01-01T07:27:46Z</time></trkpt>
<trkpt lat="53.0738618006" lon="-4.0654063523"><ele>715</ele><time>2010-01-01T07:27:53Z</time></trkpt>
<trkpt lat="53.0738535864" lon="-4.0654989723"><ele>711</ele><time>2010-01-01T07:27:58Z</time></trkpt>
<trkpt lat="53.0738452045" lon="-4.0655262973"><ele>709</ele><time>2010-01-01T07:28:00Z</time></trkpt>
<trkpt lat="53.0738308714" lon="-4.0655944422"><ele>706</ele><time>2010-01-01T07:28:06Z</time></trkpt>
<trkpt lat="53.0738185500" lon="-4.0656784289"><ele>705</ele><time>2010-01-01T07:28:13Z</time></trkpt>
<trkpt lat="53.0738097490" lon="-4.0657164827"><ele>705</ele><time>2010-01-01T07:28:20Z</time></trkpt>
<trkpt lat="53.0737478068" lon="-4.0657927580"><ele>704</ele><time>2010-01-01T07:28:29Z</time></trkpt>
<trkpt lat="53.0736845234" lon="-4.0658416245"><ele>706</ele><time>2010-01-01T07:28:34Z</time></trkpt>
<trkpt lat="53.0736327232" lon="-4.0659352504"><ele>705</ele><time>2010-01-01T07:28:44Z</time></trkpt>
<trkpt lat="53.0736132772" lon="-4.0660243500"><ele>703</ele><time>2010-01-01T07:28:51Z</time></trkpt>
<trkpt lat="53.0736051468" lon="-4.0660811793"><ele>702</ele><time>2010-01-01T07:28:56Z</time></trkpt>
<trkpt lat="53.0735763130" lon="-4.0661463905"><ele>703</ele><time>2010-01-01T07:29:03Z</time></trkpt>
<trkpt lat="53.0736139478" lon="-4.0662302934"><ele>702</ele><time>2010-01-01T07:29:13Z</time></trkpt>
<trkpt lat="53.0736225811" lon="-4.0662991926"><ele>700</ele><time>2010-01-01T07:29:24Z</time></trkpt>
<trkpt lat="53.0736231679" lon="-4.0663701874"><ele>696</ele><time>2010-01-01T07:29:33Z</time></trkpt>
<trkpt lat="53.0736131096" lon="-4.0664247535"><ele>694</ele><time>2010-01-01T07:29:42Z</time></trkpt>
<trkpt lat="53.0735828509" lon="-4.0664556828"><ele>692</ele><time>2010-01-01T07:29:52Z</time></trkpt>
<trkpt lat="53.0735323918" lon="-4.0664116778"><ele>700</ele><time>2010-01-01T07:30:11Z</time></trkpt>
<trkpt lat="53.0734988642" lon="-4.0664540902"><ele>700</ele><time>2010-01-01T07:30:21Z</time></trkpt>
<trkpt lat="53.0735023846" lon="-4.0664913897"><ele>700</ele><time>2010-01-01T07:30:27Z</time></trkpt>
<trkpt lat="53.0735504129" lon="-4.0665272642"><ele>703</ele><time>2010-01-01T07:30:34Z</time></trkpt>
<trkpt lat="53.0735623152" lon="-4.0665662401"><ele>705</ele><time>2010-01-01T07:30:42Z</time></trkpt>
<trkpt lat="53.0735602198" lon="-4.0665673297"><ele>705</ele><time>2010-01-01T07:30:43Z</time></trkpt>
<trkpt lat="53.0735121915" lon="-4.0665989295"><ele>704</ele><time>2010-01-01T07:30:49Z</time></trkpt>
<trkpt lat="53.0735095092" lon="-4.0666351393"><ele>699</ele><time>2010-01-01T07:30:57Z</time></trkpt>
<trkpt lat="53.0734505845" lon="-4.0666611232"><ele>702</ele><time>2010-01-01T07:31:06Z</time></trkpt>
<trkpt lat="53.0734341559" lon="-4.0667050444"><ele>701</ele><time>2010-01-01T07:31:16Z</time></trkpt>
<trkpt lat="53.0733951801" lon="-4.0667453613"><ele>710</ele><time>2010-01-01T07:31:39Z</time></trkpt>
<trkpt lat="53.0733770752" lon="-4.0667797271"><ele>711</ele><time>2010-01-01T07:31:46Z</time></trkpt>
<trkpt lat="53.0733711240" lon="-4.0668337904"><ele>713</ele><time>2010-01-01T07:31:53Z</time></trkpt>
<trkpt lat="53.0733693638" lon="-4.0668994207"><ele>713</ele><time>2010-01-01T07:32:03Z</time></trkpt>
<trkpt lat="53.0733911568" lon="-4.0669477005"><ele>715</ele><time>2010-01-01T07:32:10Z</time></trkpt>
<trkpt lat="53.0734181465" lon="-4.0669831559"><ele>715</ele><time>2010-01-01T07:32:20Z</time></trkpt>
<trkpt lat="53.0734184818" lon="-4.0669951421"><ele>712</ele><time>2010-01-01T07:32:29Z</time></trkpt>
<trkpt lat="53.0734255226" lon="-4.0670160968"><ele>714</ele><time>2010-01-01T07:32:37Z</time></trkpt>
<trkpt lat="53.0734852017" lon="-4.0670580902"><ele>715</ele><time>2010-01-01T07:32:45Z</time></trkpt>
<trkpt lat="53.0735318051" lon="-4.0671061185"><ele>718</ele><time>2010-01-01T07:32:53Z</time></trkpt>
<trkpt lat="53.0735108503" lon="-4.0671667196"><ele>719</ele><time>2010-01-01T07:33:00Z</time></trkpt>
<trkpt lat="53.0735157957" lon="-4.0672286619"><ele>720</ele><time>2010-01-01T07:33:06Z</time></trkpt>
<trkpt lat="53.0735153766" lon="-4.0672915262"><ele>722</ele><time>2010-01-01T07:33:14Z</time></trkpt>
<trkpt lat="53.0735442941" lon="-4.0673258920"><ele>724</ele><time>2010-01-01T07:33:20Z</time></trkpt>
<trkpt lat="53.0735256025" lon="-4.0674203560"><ele>726</ele><time>2010-01-01T07:33:29Z</time></trkpt>
<trkpt lat="53.0735288714" lon="-4.0674875789"><ele>728</ele><time>2010-01-01T07:33:37Z</time></trkpt>
<trkpt lat="53.0735501615" lon="-4.0675166641"><ele>731</ele><time>2010-01-01T07:33:46Z</time></trkpt>
<trkpt lat="53.0735458867" lon="-4.0675155744"><ele>731</ele><time>2010-01-01T07:33:54Z</time></trkpt>
<trkpt lat="53.0734634926" lon="-4.0675474257"><ele>727</ele><time>2010-01-01T07:34:00Z</time></trkpt>
<trkpt lat="53.0734142070" lon="-4.0676038359"><ele>724</ele><time>2010-01-01T07:34:04Z</time></trkpt>
<trkpt lat="53.0733911568" lon="-4.0676567257"><ele>722</ele><time>2010-01-01T07:34:11Z</time></trkpt>
<trkpt lat="53.0733957668" lon="-4.0677000601"><ele>724</ele><time>2010-01-01T07:34:20Z</time></trkpt>
<trkpt lat="53.0734009636" lon="-4.0677398742"><ele>726</ele><time>2010-01-01T07:34:27Z</time></trkpt>
<trkpt lat="53.0734157996" lon="-4.0677594878"><ele>726</ele><time>2010-01-01T07:34:35Z</time></trkpt>
<trkpt lat="53.0734062442" lon="-4.0678094440"><ele>726</ele><time>2010-01-01T07:34:42Z</time></trkpt>
<trkpt lat="53.0733813499" lon="-4.0678718891"><ele>723</ele><time>2010-01-01T07:34:51Z</time></trkpt>
<trkpt lat="53.0733734710" lon="-4.0678916704"><ele>724</ele><time>2010-01-01T07:35:00Z</time></trkpt>
<trkpt lat="53.0733810147" lon="-4.0679254495"><ele>725</ele><time>2010-01-01T07:35:07Z</time></trkpt>
<trkpt lat="53.0733795059" lon="-4.0679595638"><ele>727</ele><time>2010-01-01T07:35:13Z</time></trkpt>
<trkpt lat="53.0733877202" lon="-4.0679869727"><ele>729</ele><time>2010-01-01T07:35:20Z</time></trkpt>
<trkpt lat="53.0733848703" lon="-4.0679936782"><ele>730</ele><time>2010-01-01T07:35:27Z</time></trkpt>
<trkpt lat="53.0733645023" lon="-4.0680336599"><ele>730</ele><time>2010-01-01T07:35:34Z</time></trkpt>
<trkpt lat="53.0733481576" lon="-4.0680383537"><ele>729</ele><time>2010-01-01T07:35:41Z</time></trkpt>
<trkpt lat="53.0733054937" lon="-4.0681141261"><ele>730</ele><time>2010-01-01T07:35:55Z</time></trkpt>
<trkpt lat="53.0733315614" lon="-4.0680814367"><ele>732</ele><time>2010-01-01T07:36:13Z</time></trkpt>
<trkpt lat="53.0733639994" lon="-4.0680532735"><ele>733</ele><time>2010-01-01T07:36:28Z</time></trkpt>
<trkpt lat="53.0733546955" lon="-4.0680570454"><ele>730</ele><time>2010-01-01T07:36:42Z</time></trkpt>
<trkpt lat="53.0733444696" lon="-4.0680647567"><ele>728</ele><time>2010-01-01T07:36:49Z</time></trkpt>
<trkpt lat="53.0733505045" lon="-4.0680766590"><ele>718</ele><time>2010-01-01T07:37:09Z</time></trkpt>
<trkpt lat="53.0733966888" lon="-4.0681031458"><ele>711</ele><time>2010-01-01T07:37:20Z</time></trkpt>
<trkpt lat="53.0734660072" lon="-4.0682331492"><ele>701</ele><time>2010-01-01T07:37:36Z</time></trkpt>
<trkpt lat="53.0734782447" lon="-4.0682165530"><ele>699</ele><time>2010-01-01T07:38:22Z</time></trkpt>
<trkpt lat="53.0734593016" lon="-4.0681643337"><ele>706</ele><time>2010-01-01T07:38:34Z</time></trkpt>
<trkpt lat="53.0734088426" lon="-4.0681356676"><ele>708</ele><time>2010-01-01T07:38:44Z</time></trkpt>
<trkpt lat="53.0734307194" lon="-4.0681895633"><ele>707</ele><time>2010-01-01T07:38:58Z</time></trkpt>
<trkpt lat="53.0734153805" lon="-4.0680126213"><ele>723</ele><time>2010-01-01T07:39:24Z</time></trkpt>
<trkpt lat="53.0734015503" lon="-4.0679804348"><ele>727</ele><time>2010-01-01T07:41:36Z</time></trkpt>
<trkpt lat="53.0733955154" lon="-4.0679874756"><ele>727</ele><time>2010-01-01T07:41:42Z</time></trkpt>
<trkpt lat="53.0733831101" lon="-4.0679842905"><ele>727</ele><time>2010-01-01T07:41:48Z</time></trkpt>
<trkpt lat="53.0733287954" lon="-4.0680061672"><ele>729</ele><time>2010-01-01T07:42:33Z</time></trkpt>
<trkpt lat="53.0733504207" lon="-4.0680043232"><ele>732</ele><time>2010-01-01T07:42:55Z</time></trkpt>
<trkpt lat="53.0733371773" lon="-4.0680013895"><ele>729</ele><time>2010-01-01T07:43:30Z</time></trkpt>
<trkpt lat="53.0733148815" lon="-4.0680613201"><ele>732</ele><time>2010-01-01T07:44:53Z</time></trkpt>
<trkpt lat="53.0733119478" lon="-4.0681156349"><ele>732</ele><time>2010-01-01T07:45:01Z</time></trkpt>
<trkpt lat="53.0733274543" lon="-4.0681254417"><ele>733</ele><time>2010-01-01T07:45:08Z</time></trkpt>
<trkpt lat="53.0733254427" lon="-4.0681494978"><ele>734</ele><time>2010-01-01T07:45:15Z</time></trkpt>
<trkpt lat="53.0733364229" lon="-4.0681582988"><ele>732</ele><time>2010-01-01T07:45:27Z</time></trkpt>
<trkpt lat="53.0733309747" lon="-4.0681923293"><ele>732</ele><time>2010-01-01T07:45:33Z</time></trkpt>
<trkpt lat="53.0733298012" lon="-4.0682175588"><ele>731</ele><time>2010-01-01T07:45:39Z</time></trkpt>
<trkpt lat="53.0733300527" lon="-4.0682561994"><ele>731</ele><time>2010-01-01T07:45:46Z</time></trkpt>
<trkpt lat="53.0733263647" lon="-4.0682869610"><ele>733</ele><time>2010-01-01T07:45:53Z</time></trkpt>
<trkpt lat="53.0733147976" lon="-4.0683287867"><ele>733</ele><time>2010-01-01T07:46:00Z</time></trkpt>
<trkpt lat="53.0733064995" lon="-4.0683607217"><ele>737</ele><time>2010-01-01T07:46:10Z</time></trkpt>
<trkpt lat="53.0733086788" lon="-4.0683743842"><ele>738</ele><time>2010-01-01T07:46:15Z</time></trkpt>
<trkpt lat="53.0733137080" lon="-4.0684293695"><ele>742</ele><time>2010-01-01T07:46:26Z</time></trkpt>
<trkpt lat="53.0733360038" lon="-4.0684294533"><ele>745</ele><time>2010-01-01T07:46:34Z</time></trkpt>
<trkpt lat="53.0733490796" lon="-4.0684469715"><ele>748</ele><time>2010-01-01T07:46:41Z</time></trkpt>
<trkpt lat="53.0733403624" lon="-4.0684755538"><ele>749</ele><time>2010-01-01T07:46:50Z</time></trkpt>
<trkpt lat="53.0733377640" lon="-4.0685071536"><ele>749</ele><time>2010-01-01T07:46:57Z</time></trkpt>
<trkpt lat="53.0733513427" lon="-4.0685211514"><ele>749</ele><time>2010-01-01T07:47:06Z</time></trkpt>
<trkpt lat="53.0733616525" lon="-4.0685252585"><ele>750</ele><time>2010-01-01T07:47:14Z</time></trkpt>
<trkpt lat="53.0733546117" lon="-4.0685421899"><ele>745</ele><time>2010-01-01T07:47:26Z</time></trkpt>
<trkpt lat="53.0733672683" lon="-4.0685586185"><ele>740</ele><time>2010-01-01T07:47:39Z</time></trkpt>
<trkpt lat="53.0733575453" lon="-4.0685916432"><ele>741</ele><time>2010-01-01T07:47:48Z</time></trkpt>
<trkpt lat="53.0733831101" lon="-4.0685914755"><ele>741</ele><time>2010-01-01T07:47:57Z</time></trkpt>
<trkpt lat="53.0733494987" lon="-4.0686571896"><ele>744</ele><time>2010-01-01T07:48:07Z</time></trkpt>
<trkpt lat="53.0733621554" lon="-4.0686682538"><ele>749</ele><time>2010-01-01T07:48:14Z</time></trkpt>
<trkpt lat="53.0733437990" lon="-4.0687065590"><ele>748</ele><time>2010-01-01T07:48:23Z</time></trkpt>
<trkpt lat="53.0733479062" lon="-4.0687015299"><ele>746</ele><time>2010-01-01T07:48:32Z</time></trkpt>
<trkpt lat="53.0733191562" lon="-4.0687167850"><ele>747</ele><time>2010-01-01T07:48:43Z</time></trkpt>
<trkpt lat="53.0732847904" lon="-4.0687497259"><ele>747</ele><time>2010-01-01T07:48:51Z</time></trkpt>
<trkpt lat="53.0732660150" lon="-4.0687884502"><ele>748</ele><time>2010-01-01T07:48:57Z</time></trkpt>
<trkpt lat="53.0732386061" lon="-4.0688441899"><ele>749</ele><time>2010-01-01T07:49:04Z</time></trkpt>
<trkpt lat="53.0731957746" lon="-4.0689091496"><ele>749</ele><time>2010-01-01T07:49:12Z</time></trkpt>
<trkpt lat="53.0731697069" lon="-4.0689809826"><ele>750</ele><time>2010-01-01T07:49:20Z</time></trkpt>
<trkpt lat="53.0731594810" lon="-4.0690413323"><ele>748</ele><time>2010-01-01T07:49:30Z</time></trkpt>
<trkpt lat="53.0731821959" lon="-4.0690755304"><ele>758</ele><time>2010-01-01T07:50:05Z</time></trkpt>
<trkpt lat="53.0731267077" lon="-4.0691589304"><ele>753</ele><time>2010-01-01T07:50:17Z</time></trkpt>
<trkpt lat="53.0731169009" lon="-4.0692082998"><ele>753</ele><time>2010-01-01T07:50:23Z</time></trkpt>
<trkpt lat="53.0730813616" lon="-4.0693132412"><ele>753</ele><time>2010-01-01T07:50:36Z</time></trkpt>
<trkpt lat="53.0730650169" lon="-4.0693852417"><ele>753</ele><time>2010-01-01T07:50:43Z</time></trkpt>
<trkpt lat="53.0730615803" lon="-4.0694333539"><ele>753</ele><time>2010-01-01T07:50:49Z</time></trkpt>
<trkpt lat="53.0730600716" lon="-4.0694790352"><ele>754</ele><time>2010-01-01T07:50:54Z</time></trkpt>
<trkpt lat="53.0730636758" lon="-4.0695315898"><ele>756</ele><time>2010-01-01T07:51:01Z</time></trkpt>
<trkpt lat="53.0730606583" lon="-4.0695679672"><ele>757</ele><time>2010-01-01T07:51:08Z</time></trkpt>
<trkpt lat="53.0730557968" lon="-4.0696420633"><ele>758</ele><time>2010-01-01T07:51:19Z</time></trkpt>
<trkpt lat="53.0730287233" lon="-4.0697509442"><ele>757</ele><time>2010-01-01T07:51:31Z</time></trkpt>
<trkpt lat="53.0730309864" lon="-4.0697971285"><ele>759</ele><time>2010-01-01T07:51:38Z</time></trkpt>
<trkpt lat="53.0730634244" lon="-4.0698217713"><ele>764</ele><time>2010-01-01T07:51:45Z</time></trkpt>
<trkpt lat="53.0730588143" lon="-4.0698721465"><ele>765</ele><time>2010-01-01T07:51:54Z</time></trkpt>
<trkpt lat="53.0730746561" lon="-4.0699117929"><ele>768</ele><time>2010-01-01T07:52:04Z</time></trkpt>
<trkpt lat="53.0730622509" lon="-4.0699429736"><ele>764</ele><time>2010-01-01T07:52:11Z</time></trkpt>
<trkpt lat="53.0730476664" lon="-4.0699590668"><ele>759</ele><time>2010-01-01T07:52:20Z</time></trkpt>
<trkpt lat="53.0730236103" lon="-4.0700037424"><ele>758</ele><time>2010-01-01T07:52:27Z</time></trkpt>
<trkpt lat="53.0730008954" lon="-4.0700478312"><ele>759</ele><time>2010-01-01T07:52:35Z</time></trkpt>
<trkpt lat="53.0729746600" lon="-4.0701043252"><ele>759</ele><time>2010-01-01T07:52:43Z</time></trkpt>
<trkpt lat="53.0729542920" lon="-4.0701458995"><ele>760</ele><time>2010-01-01T07:52:50Z</time></trkpt>
<trkpt lat="53.0729404618" lon="-4.0701790918"><ele>761</ele><time>2010-01-01T07:52:57Z</time></trkpt>
<trkpt lat="53.0729150647" lon="-4.0702383519"><ele>762</ele><time>2010-01-01T07:53:04Z</time></trkpt>
<trkpt lat="53.0728932717" lon="-4.0702872184"><ele>763</ele><time>2010-01-01T07:53:10Z</time></trkpt>
<trkpt lat="53.0728682937" lon="-4.0703620687"><ele>765</ele><time>2010-01-01T07:53:20Z</time></trkpt>
<trkpt lat="53.0728428965" lon="-4.0704493244"><ele>765</ele><time>2010-01-01T07:53:33Z</time></trkpt>
<trkpt lat="53.0728253783" lon="-4.0704756435"><ele>768</ele><time>2010-01-01T07:53:40Z</time></trkpt>
<trkpt lat="53.0728322515" lon="-4.0705263540"><ele>769</ele><time>2010-01-01T07:53:53Z</time></trkpt>
<trkpt lat="53.0728279767" lon="-4.0705474764"><ele>768</ele><time>2010-01-01T07:53:58Z</time></trkpt>
<trkpt lat="53.0728320000" lon="-4.0705950018"><ele>771</ele><time>2010-01-01T07:54:11Z</time></trkpt>
<trkpt lat="53.0728327544" lon="-4.0706083291"><ele>772</ele><time>2010-01-01T07:54:18Z</time></trkpt>
<trkpt lat="53.0728340955" lon="-4.0707004462"><ele>780</ele><time>2010-01-01T07:54:39Z</time></trkpt>
<trkpt lat="53.0728257974" lon="-4.0707435292"><ele>781</ele><time>2010-01-01T07:54:46Z</time></trkpt>
<trkpt lat="53.0728092012" lon="-4.0707879532"><ele>780</ele><time>2010-01-01T07:54:59Z</time></trkpt>
<trkpt lat="53.0727771824" lon="-4.0708511528"><ele>781</ele><time>2010-01-01T07:55:10Z</time></trkpt>
<trkpt lat="53.0727721532" lon="-4.0708513204"><ele>779</ele><time>2010-01-01T07:55:17Z</time></trkpt>
<trkpt lat="53.0727343508" lon="-4.0709018633"><ele>779</ele><time>2010-01-01T07:55:45Z</time></trkpt>
<trkpt lat="53.0727097919" lon="-4.0709356424"><ele>780</ele><time>2010-01-01T07:55:52Z</time></trkpt>
<trkpt lat="53.0726869093" lon="-4.0709673260"><ele>780</ele><time>2010-01-01T07:55:58Z</time></trkpt>
<trkpt lat="53.0726457541" lon="-4.0710504745"><ele>782</ele><time>2010-01-01T07:56:09Z</time></trkpt>
<trkpt lat="53.0726218657" lon="-4.0711185355"><ele>783</ele><time>2010-01-01T07:56:17Z</time></trkpt>
<trkpt lat="53.0726046828" lon="-4.0711464472"><ele>782</ele><time>2010-01-01T07:56:24Z</time></trkpt>
<trkpt lat="53.0726058563" lon="-4.0711198766"><ele>771</ele><time>2010-01-01T07:56:40Z</time></trkpt>
<trkpt lat="53.0726556448" lon="-4.0711070523"><ele>767</ele><time>2010-01-01T07:57:14Z</time></trkpt>
<trkpt lat="53.0727623464" lon="-4.0711194575"><ele>760</ele><time>2010-01-01T07:57:44Z</time></trkpt>
<trkpt lat="53.0727504441" lon="-4.0711238999"><ele>760</ele><time>2010-01-01T07:57:55Z</time></trkpt>
<trkpt lat="53.0727082831" lon="-4.0711637978"><ele>763</ele><time>2010-01-01T07:58:56Z</time></trkpt>
<trkpt lat="53.0727094566" lon="-4.0711839982"><ele>766</ele><time>2010-01-01T07:59:05Z</time></trkpt>
<trkpt lat="53.0727172518" lon="-4.0712462757"><ele>769</ele><time>2010-01-01T07:59:13Z</time></trkpt>
<trkpt lat="53.0727255498" lon="-4.0713123251"><ele>772</ele><time>2010-01-01T07:59:22Z</time></trkpt>
<trkpt lat="53.0727212751" lon="-4.0713540670"><ele>773</ele><time>2010-01-01T07:59:27Z</time></trkpt>
<trkpt lat="53.0727170003" lon="-4.0713922885"><ele>774</ele><time>2010-01-01T07:59:32Z</time></trkpt>
<trkpt lat="53.0727232867" lon="-4.0714370478"><ele>777</ele><time>2010-01-01T07:59:38Z</time></trkpt>
<trkpt lat="53.0727252146" lon="-4.0714908596"><ele>777</ele><time>2010-01-01T07:59:45Z</time></trkpt>
<trkpt lat="53.0727466722" lon="-4.0715465993"><ele>777</ele><time>2010-01-01T07:59:52Z</time></trkpt>
<trkpt lat="53.0727625979" lon="-4.0716000758"><ele>777</ele><time>2010-01-01T07:59:59Z</time></trkpt>
<trkpt lat="53.0727758413" lon="-4.0716537200"><ele>779</ele><time>2010-01-01T08:00:08Z</time></trkpt>
<trkpt lat="53.0727765118" lon="-4.0716963001"><ele>780</ele><time>2010-01-01T08:00:14Z</time></trkpt>
<trkpt lat="53.0727989753" lon="-4.0717515368"><ele>786</ele><time>2010-01-01T08:00:24Z</time></trkpt>
<trkpt lat="53.0727998135" lon="-4.0717891716"><ele>787</ele><time>2010-01-01T08:00:30Z</time></trkpt>
<trkpt lat="53.0728021604" lon="-4.0718272254"><ele>788</ele><time>2010-01-01T08:00:37Z</time></trkpt>
<trkpt lat="53.0728176670" lon="-4.0718546342"><ele>791</ele><time>2010-01-01T08:00:45Z</time></trkpt>
<trkpt lat="53.0728166611" lon="-4.0718959570"><ele>792</ele><time>2010-01-01T08:00:53Z</time></trkpt>
<trkpt lat="53.0728070219" lon="-4.0719324183"><ele>792</ele><time>2010-01-01T08:00:59Z</time></trkpt>
<trkpt lat="53.0728009031" lon="-4.0719621741"><ele>792</ele><time>2010-01-01T08:01:05Z</time></trkpt>
<trkpt lat="53.0727801160" lon="-4.0719991383"><ele>789</ele><time>2010-01-01T08:01:13Z</time></trkpt>
<trkpt lat="53.0727586584" lon="-4.0720298998"><ele>786</ele><time>2010-01-01T08:01:22Z</time></trkpt>
<trkpt lat="53.0727496897" lon="-4.0720485915"><ele>786</ele><time>2010-01-01T08:01:28Z</time></trkpt>
<trkpt lat="53.0727284835" lon="-4.0720825382"><ele>783</ele><time>2010-01-01T08:01:37Z</time></trkpt>
<trkpt lat="53.0727037569" lon="-4.0721164849"><ele>785</ele><time>2010-01-01T08:01:52Z</time></trkpt>
<trkpt lat="53.0726678823" lon="-4.0721679498"><ele>785</ele><time>2010-01-01T08:02:02Z</time></trkpt>
<trkpt lat="53.0726472629" lon="-4.0721843783"><ele>786</ele><time>2010-01-01T08:02:09Z</time></trkpt>
<trkpt lat="53.0726322593" lon="-4.0721981246"><ele>787</ele><time>2010-01-01T08:02:18Z</time></trkpt>
<trkpt lat="53.0725968876" lon="-4.0722315684"><ele>788</ele><time>2010-01-01T08:02:24Z</time></trkpt>
<trkpt lat="53.0725848177" lon="-4.0722979531"><ele>792</ele><time>2010-01-01T08:02:34Z</time></trkpt>
<trkpt lat="53.0725675510" lon="-4.0723470711"><ele>792</ele><time>2010-01-01T08:02:41Z</time></trkpt>
<trkpt lat="53.0725584985" lon="-4.0723937583"><ele>792</ele><time>2010-01-01T08:02:47Z</time></trkpt>
<trkpt lat="53.0725753461" lon="-4.0724103544"><ele>797</ele><time>2010-01-01T08:02:59Z</time></trkpt>
<trkpt lat="53.0725720772" lon="-4.0724573769"><ele>798</ele><time>2010-01-01T08:03:14Z</time></trkpt>
<trkpt lat="53.0725502842" lon="-4.0725090932"><ele>796</ele><time>2010-01-01T08:03:20Z</time></trkpt>
<trkpt lat="53.0725461771" lon="-4.0725454707"><ele>797</ele><time>2010-01-01T08:03:28Z</time></trkpt>
<trkpt lat="53.0725392201" lon="-4.0725780763"><ele>795</ele><time>2010-01-01T08:03:36Z</time></trkpt>
<trkpt lat="53.0725270664" lon="-4.0726213269"><ele>794</ele><time>2010-01-01T08:03:47Z</time></trkpt>
<trkpt lat="53.0725429082" lon="-4.0727093369"><ele>800</ele><time>2010-01-01T08:04:01Z</time></trkpt>
<trkpt lat="53.0725436625" lon="-4.0727625620"><ele>801</ele><time>2010-01-01T08:04:08Z</time></trkpt>
<trkpt lat="53.0725548943" lon="-4.0728194751"><ele>803</ele><time>2010-01-01T08:04:16Z</time></trkpt>
<trkpt lat="53.0725560678" lon="-4.0728753824"><ele>804</ele><time>2010-01-01T08:04:23Z</time></trkpt>
<trkpt lat="53.0725741727" lon="-4.0729628895"><ele>808</ele><time>2010-01-01T08:04:35Z</time></trkpt>
<trkpt lat="53.0725761843" lon="-4.0730257538"><ele>810</ele><time>2010-01-01T08:04:44Z</time></trkpt>
<trkpt lat="53.0725859912" lon="-4.0730607901"><ele>814</ele><time>2010-01-01T08:04:51Z</time></trkpt>
<trkpt lat="53.0725836442" lon="-4.0730935634"><ele>815</ele><time>2010-01-01T08:04:57Z</time></trkpt>
<trkpt lat="53.0725777769" lon="-4.0730944015"><ele>811</ele><time>2010-01-01T08:05:07Z</time></trkpt>
<trkpt lat="53.0725823031" lon="-4.0731291864"><ele>811</ele><time>2010-01-01T08:06:30Z</time></trkpt>
<trkpt lat="53.0725880028" lon="-4.0731678270"><ele>814</ele><time>2010-01-01T08:06:37Z</time></trkpt>
<trkpt lat="53.0725885895" lon="-4.0732097365"><ele>817</ele><time>2010-01-01T08:06:43Z</time></trkpt>
<trkpt lat="53.0725979773" lon="-4.0732433480"><ele>821</ele><time>2010-01-01T08:06:50Z</time></trkpt>
<trkpt lat="53.0725949598" lon="-4.0732885264"><ele>821</ele><time>2010-01-01T08:07:00Z</time></trkpt>
<trkpt lat="53.0725952112" lon="-4.0733130854"><ele>821</ele><time>2010-01-01T08:07:06Z</time></trkpt>
<trkpt lat="53.0725965523" lon="-4.0733316932"><ele>820</ele><time>2010-01-01T08:07:13Z</time></trkpt>
<trkpt lat="53.0726149925" lon="-4.0733322800"><ele>815</ele><time>2010-01-01T08:07:20Z</time></trkpt>
<trkpt lat="53.0726211951" lon="-4.0733632930"><ele>814</ele><time>2010-01-01T08:07:26Z</time></trkpt>
<trkpt lat="53.0726285712" lon="-4.0734038614"><ele>814</ele><time>2010-01-01T08:07:34Z</time></trkpt>
<trkpt lat="53.0726377913" lon="-4.0734485370"><ele>818</ele><time>2010-01-01T08:07:41Z</time></trkpt>
<trkpt lat="53.0726191835" lon="-4.0734905303"><ele>816</ele><time>2010-01-01T08:07:50Z</time></trkpt>
<trkpt lat="53.0726156631" lon="-4.0735426657"><ele>817</ele><time>2010-01-01T08:07:59Z</time></trkpt>
<trkpt lat="53.0726068621" lon="-4.0735893529"><ele>817</ele><time>2010-01-01T08:08:05Z</time></trkpt>
<trkpt lat="53.0726072812" lon="-4.0736281611"><ele>815</ele><time>2010-01-01T08:08:12Z</time></trkpt>
<trkpt lat="53.0726280683" lon="-4.0736381356"><ele>815</ele><time>2010-01-01T08:08:19Z</time></trkpt>
<trkpt lat="53.0726413117" lon="-4.0736623593"><ele>816</ele><time>2010-01-01T08:08:25Z</time></trkpt>
<trkpt lat="53.0726436586" lon="-4.0737038497"><ele>817</ele><time>2010-01-01T08:08:33Z</time></trkpt>
<trkpt lat="53.0726409764" lon="-4.0737318453"><ele>817</ele><time>2010-01-01T08:08:40Z</time></trkpt>
<trkpt lat="53.0726356120" lon="-4.0737649538"><ele>816</ele><time>2010-01-01T08:08:48Z</time></trkpt>
<trkpt lat="53.0726332651" lon="-4.0737833940"><ele>816</ele><time>2010-01-01T08:08:54Z</time></trkpt>
<trkpt lat="53.0726330974" lon="-4.0738100484"><ele>816</ele><time>2010-01-01T08:09:02Z</time></trkpt>
<trkpt lat="53.0726331813" lon="-4.0738379602"><ele>818</ele><time>2010-01-01T08:09:09Z</time></trkpt>
<trkpt lat="53.0726222010" lon="-4.0738381278"><ele>818</ele><time>2010-01-01T08:09:20Z</time></trkpt>
<trkpt lat="53.0726175071" lon="-4.0738377925"><ele>825</ele><time>2010-01-01T08:10:03Z</time></trkpt>
<trkpt lat="53.0726185129" lon="-4.0738615971"><ele>828</ele><time>2010-01-01T08:10:11Z</time></trkpt>
<trkpt lat="53.0726182615" lon="-4.0738865752"><ele>828</ele><time>2010-01-01T08:10:18Z</time></trkpt>
<trkpt lat="53.0726249670" lon="-4.0739250481"><ele>825</ele><time>2010-01-01T08:10:25Z</time></trkpt>
<trkpt lat="53.0726268110" lon="-4.0739558936"><ele>820</ele><time>2010-01-01T08:10:34Z</time></trkpt>
<trkpt lat="53.0726024197" lon="-4.0739345197"><ele>822</ele><time>2010-01-01T08:10:45Z</time></trkpt>
<trkpt lat="53.0725750947" lon="-4.0739749205"><ele>825</ele><time>2010-01-01T08:10:52Z</time></trkpt>
<trkpt lat="53.0725460095" lon="-4.0740206857"><ele>829</ele><time>2010-01-01T08:10:58Z</time></trkpt>
<trkpt lat="53.0725250547" lon="-4.0740653612"><ele>829</ele><time>2010-01-01T08:11:03Z</time></trkpt>
<trkpt lat="53.0725095482" lon="-4.0741175805"><ele>831</ele><time>2010-01-01T08:11:11Z</time></trkpt>
<trkpt lat="53.0725128171" lon="-4.0741765891"><ele>830</ele><time>2010-01-01T08:11:19Z</time></trkpt>
<trkpt lat="53.0725217020" lon="-4.0741680395"><ele>828</ele><time>2010-01-01T08:11:29Z</time></trkpt>
<trkpt lat="53.0725388849" lon="-4.0741600767"><ele>827</ele><time>2010-01-01T08:12:08Z</time></trkpt>
<trkpt lat="53.0725517930" lon="-4.0742358491"><ele>831</ele><time>2010-01-01T08:12:17Z</time></trkpt>
<trkpt lat="53.0725380467" lon="-4.0743026529"><ele>831</ele><time>2010-01-01T08:12:25Z</time></trkpt>
<trkpt lat="53.0725289104" lon="-4.0743505974"><ele>832</ele><time>2010-01-01T08:12:32Z</time></trkpt>
<trkpt lat="53.0725139068" lon="-4.0743871425"><ele>832</ele><time>2010-01-01T08:12:38Z</time></trkpt>
<trkpt lat="53.0724963048" lon="-4.0744209215"><ele>828</ele><time>2010-01-01T08:12:44Z</time></trkpt>
<trkpt lat="53.0725103864" lon="-4.0744564608"><ele>828</ele><time>2010-01-01T08:12:52Z</time></trkpt>
<trkpt lat="53.0725108893" lon="-4.0744829476"><ele>829</ele><time>2010-01-01T08:12:58Z</time></trkpt>
<trkpt lat="53.0725072013" lon="-4.0745239351"><ele>829</ele><time>2010-01-01T08:13:06Z</time></trkpt>
<trkpt lat="53.0725105540" lon="-4.0745654255"><ele>831</ele><time>2010-01-01T08:13:14Z</time></trkpt>
<trkpt lat="53.0725222049" lon="-4.0746164713"><ele>838</ele><time>2010-01-01T08:13:22Z</time></trkpt>
<trkpt lat="53.0725364541" lon="-4.0746674333"><ele>847</ele><time>2010-01-01T08:13:29Z</time></trkpt>
<trkpt lat="53.0725439978" lon="-4.0747063253"><ele>855</ele><time>2010-01-01T08:13:36Z</time></trkpt>
<trkpt lat="53.0725424891" lon="-4.0747548566"><ele>859</ele><time>2010-01-01T08:13:43Z</time></trkpt>
<trkpt lat="53.0725289942" lon="-4.0747998674"><ele>858</ele><time>2010-01-01T08:13:50Z</time></trkpt>
<trkpt lat="53.0725305030" lon="-4.0748350714"><ele>860</ele><time>2010-01-01T08:13:55Z</time></trkpt>
<trkpt lat="53.0725167566" lon="-4.0748977680"><ele>855</ele><time>2010-01-01T08:14:04Z</time></trkpt>
<trkpt lat="53.0725171757" lon="-4.0749156215"><ele>850</ele><time>2010-01-01T08:14:11Z</time></trkpt>
<trkpt lat="53.0725125657" lon="-4.0749010370"><ele>844</ele><time>2010-01-01T08:14:26Z</time></trkpt>
<trkpt lat="53.0725022559" lon="-4.0748805851"><ele>842</ele><time>2010-01-01T08:15:10Z</time></trkpt>
<trkpt lat="53.0725107217" lon="-4.0748880450"><ele>841</ele><time>2010-01-01T08:15:37Z</time></trkpt>
<trkpt lat="53.0725068660" lon="-4.0749001988"><ele>841</ele><time>2010-01-01T08:15:44Z</time></trkpt>
<trkpt lat="53.0725160023" lon="-4.0749558546"><ele>842</ele><time>2010-01-01T08:15:52Z</time></trkpt>
<trkpt lat="53.0725156670" lon="-4.0750028771"><ele>843</ele><time>2010-01-01T08:15:59Z</time></trkpt>
<trkpt lat="53.0725128171" lon="-4.0750724469"><ele>842</ele><time>2010-01-01T08:16:08Z</time></trkpt>
<trkpt lat="53.0725107217" lon="-4.0751246661"><ele>844</ele><time>2010-01-01T08:16:15Z</time></trkpt>
<trkpt lat="53.0725335204" lon="-4.0751712695"><ele>852</ele><time>2010-01-01T08:16:21Z</time></trkpt>
<trkpt lat="53.0725523797" lon="-4.0752375704"><ele>861</ele><time>2010-01-01T08:16:29Z</time></trkpt>
<trkpt lat="53.0725664613" lon="-4.0752748698"><ele>869</ele><time>2010-01-01T08:16:35Z</time></trkpt>
<trkpt lat="53.0725814649" lon="-4.0753298551"><ele>879</ele><time>2010-01-01T08:16:42Z</time></trkpt>
<trkpt lat="53.0725797885" lon="-4.0753763747"><ele>885</ele><time>2010-01-01T08:16:48Z</time></trkpt>
<trkpt lat="53.0725814649" lon="-4.0754225590"><ele>893</ele><time>2010-01-01T08:16:55Z</time></trkpt>
<trkpt lat="53.0725786151" lon="-4.0754788015"><ele>900</ele><time>2010-01-01T08:17:03Z</time></trkpt>
<trkpt lat="53.0725634438" lon="-4.0755181965"><ele>899</ele><time>2010-01-01T08:17:08Z</time></trkpt>
<trkpt lat="53.0725618513" lon="-4.0755600222"><ele>898</ele><time>2010-01-01T08:17:15Z</time></trkpt>
<trkpt lat="53.0725657908" lon="-4.0755929631"><ele>900</ele><time>2010-01-01T08:17:27Z</time></trkpt>
<trkpt lat="53.0725675510" lon="-4.0756481998"><ele>898</ele><time>2010-01-01T08:17:34Z</time></trkpt>
<trkpt lat="53.0725622704" lon="-4.0756903608"><ele>892</ele><time>2010-01-01T08:17:40Z</time></trkpt>
<trkpt lat="53.0725625218" lon="-4.0757128243"><ele>891</ele><time>2010-01-01T08:17:45Z</time></trkpt>
<trkpt lat="53.0725658746" lon="-4.0757535603"><ele>893</ele><time>2010-01-01T08:18:04Z</time></trkpt>
<trkpt lat="53.0725748432" lon="-4.0758113955"><ele>894</ele><time>2010-01-01T08:18:11Z</time></trkpt>
<trkpt lat="53.0725673833" lon="-4.0758774449"><ele>894</ele><time>2010-01-01T08:18:20Z</time></trkpt>
<trkpt lat="53.0725559001" lon="-4.0759183485"><ele>891</ele><time>2010-01-01T08:18:26Z</time></trkpt>
<trkpt lat="53.0725594205" lon="-4.0759537202"><ele>894</ele><time>2010-01-01T08:18:33Z</time></trkpt>
<trkpt lat="53.0725672157" lon="-4.0760007426"><ele>896</ele><time>2010-01-01T08:18:40Z</time></trkpt>
<trkpt lat="53.0725714905" lon="-4.0760190990"><ele>896</ele><time>2010-01-01T08:18:46Z</time></trkpt>
<trkpt lat="53.0725765196" lon="-4.0760635231"><ele>900</ele><time>2010-01-01T08:18:53Z</time></trkpt>
<trkpt lat="53.0725761005" lon="-4.0761292372"><ele>906</ele><time>2010-01-01T08:19:02Z</time></trkpt>
<trkpt lat="53.0725736698" lon="-4.0761688836"><ele>909</ele><time>2010-01-01T08:19:08Z</time></trkpt>
<trkpt lat="53.0725705685" lon="-4.0762055964"><ele>910</ele><time>2010-01-01T08:19:16Z</time></trkpt>
<trkpt lat="53.0725742565" lon="-4.0762270540"><ele>912</ele><time>2010-01-01T08:19:29Z</time></trkpt>
<trkpt lat="53.0725892601" lon="-4.0762585700"><ele>938</ele><time>2010-01-01T08:19:36Z</time></trkpt>
<trkpt lat="53.0726064430" lon="-4.0762849730"><ele>941</ele><time>2010-01-01T08:19:43Z</time></trkpt>
<trkpt lat="53.0726263081" lon="-4.0763002281"><ele>943</ele><time>2010-01-01T08:19:50Z</time></trkpt>
<trkpt lat="53.0726352767" lon="-4.0763059277"><ele>944</ele><time>2010-01-01T08:19:57Z</time></trkpt>
<trkpt lat="53.0726447483" lon="-4.0763158184"><ele>936</ele><time>2010-01-01T08:20:03Z</time></trkpt>
<trkpt lat="53.0726584108" lon="-4.0763294809"><ele>935</ele><time>2010-01-01T08:20:10Z</time></trkpt>
<trkpt lat="53.0726695587" lon="-4.0763295647"><ele>887</ele><time>2010-01-01T08:21:00Z</time></trkpt>
<trkpt lat="53.0726693911" lon="-4.0763791018"><ele>885</ele><time>2010-01-01T08:21:11Z</time></trkpt>
<trkpt lat="53.0726786112" lon="-4.0764030740"><ele>886</ele><time>2010-01-01T08:21:17Z</time></trkpt>
<trkpt lat="53.0726978896" lon="-4.0764382780"><ele>885</ele><time>2010-01-01T08:21:27Z</time></trkpt>
<trkpt lat="53.0727122226" lon="-4.0764591489"><ele>881</ele><time>2010-01-01T08:21:36Z</time></trkpt>
<trkpt lat="53.0727362787" lon="-4.0764622502"><ele>877</ele><time>2010-01-01T08:21:43Z</time></trkpt>
<trkpt lat="53.0727640228" lon="-4.0764665250"><ele>873</ele><time>2010-01-01T08:21:49Z</time></trkpt>
<trkpt lat="53.0727859834" lon="-4.0764636752"><ele>869</ele><time>2010-01-01T08:21:54Z</time></trkpt>
<trkpt lat="53.0727926889" lon="-4.0764614959"><ele>853</ele><time>2010-01-01T08:22:23Z</time></trkpt>
<trkpt lat="53.0727896714" lon="-4.0764609930"><ele>858</ele><time>2010-01-01T08:22:35Z</time></trkpt>
<trkpt lat="53.0727675432" lon="-4.0764667765"><ele>863</ele><time>2010-01-01T08:22:49Z</time></trkpt>
<trkpt lat="53.0727682137" lon="-4.0764636752"><ele>864</ele><time>2010-01-01T08:22:55Z</time></trkpt>
<trkpt lat="53.0727648610" lon="-4.0764548742"><ele>865</ele><time>2010-01-01T08:23:12Z</time></trkpt>
<trkpt lat="53.0727729076" lon="-4.0764528625"><ele>868</ele><time>2010-01-01T08:23:29Z</time></trkpt>
<trkpt lat="53.0727801998" lon="-4.0764559638"><ele>870</ele><time>2010-01-01T08:23:34Z</time></trkpt>
<trkpt lat="53.0728288987" lon="-4.0764782597"><ele>868</ele><time>2010-01-01T08:23:43Z</time></trkpt>
<trkpt lat="53.0728376159" lon="-4.0765128769"><ele>872</ele><time>2010-01-01T08:23:51Z</time></trkpt>
<trkpt lat="53.0728516137" lon="-4.0765124578"><ele>873</ele><time>2010-01-01T08:23:57Z</time></trkpt>
<trkpt lat="53.0728942776" lon="-4.0765244440"><ele>867</ele><time>2010-01-01T08:24:04Z</time></trkpt>
<trkpt lat="53.0729290624" lon="-4.0765429680"><ele>864</ele><time>2010-01-01T08:24:10Z</time></trkpt>
<trkpt lat="53.0729424735" lon="-4.0765582230"><ele>864</ele><time>2010-01-01T08:24:16Z</time></trkpt>
<trkpt lat="53.0729309903" lon="-4.0765971989"><ele>879</ele><time>2010-01-01T08:24:33Z</time></trkpt>
<trkpt lat="53.0729393722" lon="-4.0766428803"><ele>880</ele><time>2010-01-01T08:24:45Z</time></trkpt>
<trkpt lat="53.0729549625" lon="-4.0766597279"><ele>879</ele><time>2010-01-01T08:24:52Z</time></trkpt>
<trkpt lat="53.0729377796" lon="-4.0766928364"><ele>885</ele><time>2010-01-01T08:25:02Z</time></trkpt>
<trkpt lat="53.0729283919" lon="-4.0766950995"><ele>892</ele><time>2010-01-01T08:25:50Z</time></trkpt>
<trkpt lat="53.0729063475" lon="-4.0766968597"><ele>896</ele><time>2010-01-01T08:26:24Z</time></trkpt>
<trkpt lat="53.0729579800" lon="-4.0766701214"><ele>880</ele><time>2010-01-01T08:26:56Z</time></trkpt>
<trkpt lat="53.0730299806" lon="-4.0767325666"><ele>861</ele><time>2010-01-01T08:27:38Z</time></trkpt>
<trkpt lat="53.0730149770" lon="-4.0767831933"><ele>864</ele><time>2010-01-01T08:27:44Z</time></trkpt>
<trkpt lat="53.0729993028" lon="-4.0767954309"><ele>870</ele><time>2010-01-01T08:27:51Z</time></trkpt>
<trkpt lat="53.0729538729" lon="-4.0768262763"><ele>877</ele><time>2010-01-01T08:28:10Z</time></trkpt>
<trkpt lat="53.0729813655" lon="-4.0768626538"><ele>879</ele><time>2010-01-01T08:28:19Z</time></trkpt>
<trkpt lat="53.0730226883" lon="-4.0768567864"><ele>879</ele><time>2010-01-01T08:28:26Z</time></trkpt>
<trkpt lat="53.0730464929" lon="-4.0768561997"><ele>878</ele><time>2010-01-01T08:28:33Z</time></trkpt>
<trkpt lat="53.0730378596" lon="-4.0768717900"><ele>882</ele><time>2010-01-01T08:28:42Z</time></trkpt>
<trkpt lat="53.0730459062" lon="-4.0768897273"><ele>882</ele><time>2010-01-01T08:28:47Z</time></trkpt>
<trkpt lat="53.0730409609" lon="-4.0769506637"><ele>888</ele><time>2010-01-01T08:29:19Z</time></trkpt>
<trkpt lat="53.0730451518" lon="-4.0769825988"><ele>887</ele><time>2010-01-01T08:29:27Z</time></trkpt>
<trkpt lat="53.0730673639" lon="-4.0770041403"><ele>887</ele><time>2010-01-01T08:29:34Z</time></trkpt>
<trkpt lat="53.0730738179" lon="-4.0770250950"><ele>887</ele><time>2010-01-01T08:29:40Z</time></trkpt>
<trkpt lat="53.0730932639" lon="-4.0770628974"><ele>886</ele><time>2010-01-01T08:29:55Z</time></trkpt>
<trkpt lat="53.0730866422" lon="-4.0770982691"><ele>888</ele><time>2010-01-01T08:30:02Z</time></trkpt>
<trkpt lat="53.0730821998" lon="-4.0771081597"><ele>889</ele><time>2010-01-01T08:30:16Z</time></trkpt>
<trkpt lat="53.0731049148" lon="-4.0771095846"><ele>889</ele><time>2010-01-01T08:30:25Z</time></trkpt>
<trkpt lat="53.0731189964" lon="-4.0771056451"><ele>885</ele><time>2010-01-01T08:30:39Z</time></trkpt>
<trkpt lat="53.0731454832" lon="-4.0771223251"><ele>883</ele><time>2010-01-01T08:30:45Z</time></trkpt>
<trkpt lat="53.0731796814" lon="-4.0771510750"><ele>881</ele><time>2010-01-01T08:30:53Z</time></trkpt>
<trkpt lat="53.0731168171" lon="-4.0771501530"><ele>892</ele><time>2010-01-01T08:31:08Z</time></trkpt>
<trkpt lat="53.0731035737" lon="-4.0771785677"><ele>900</ele><time>2010-01-01T08:31:26Z</time></trkpt>
<trkpt lat="53.0731412084" lon="-4.0771894642"><ele>899</ele><time>2010-01-01T08:31:36Z</time></trkpt>
<trkpt lat="53.0731163980" lon="-4.0772057251"><ele>900</ele><time>2010-01-01T08:32:05Z</time></trkpt>
<trkpt lat="53.0730755781" lon="-4.0772366543"><ele>903</ele><time>2010-01-01T08:32:28Z</time></trkpt>
<trkpt lat="53.0730976225" lon="-4.0772854369"><ele>898</ele><time>2010-01-01T08:32:35Z</time></trkpt>
<trkpt lat="53.0731268754" lon="-4.0773005244"><ele>900</ele><time>2010-01-01T08:32:41Z</time></trkpt>
<trkpt lat="53.0731463214" lon="-4.0773401708"><ele>900</ele><time>2010-01-01T08:32:48Z</time></trkpt>
<trkpt lat="53.0731551224" lon="-4.0773652327"><ele>899</ele><time>2010-01-01T08:32:57Z</time></trkpt>
<trkpt lat="53.0731397835" lon="-4.0774179548"><ele>898</ele><time>2010-01-01T08:33:05Z</time></trkpt>
<trkpt lat="53.0731511829" lon="-4.0774587747"><ele>891</ele><time>2010-01-01T08:33:15Z</time></trkpt>
<trkpt lat="53.0731553738" lon="-4.0774909612"><ele>892</ele><time>2010-01-01T08:33:25Z</time></trkpt>
<trkpt lat="53.0731443097" lon="-4.0775304400"><ele>889</ele><time>2010-01-01T08:33:42Z</time></trkpt>
<trkpt lat="53.0730946050" lon="-4.0776022729"><ele>891</ele><time>2010-01-01T08:33:59Z</time></trkpt>
<trkpt lat="53.0730823675" lon="-4.0776157678"><ele>899</ele><time>2010-01-01T08:34:08Z</time></trkpt>
<trkpt lat="53.0730738179" lon="-4.0776483734"><ele>900</ele><time>2010-01-01T08:34:18Z</time></trkpt>
<trkpt lat="53.0730542881" lon="-4.0776747764"><ele>906</ele><time>2010-01-01T08:34:31Z</time></trkpt>
<trkpt lat="53.0730605745" lon="-4.0777070467"><ele>902</ele><time>2010-01-01T08:34:38Z</time></trkpt>
<trkpt lat="53.0730470796" lon="-4.0776791349"><ele>932</ele><time>2010-01-01T08:35:15Z</time></trkpt>
<trkpt lat="53.0730637596" lon="-4.0776961502"><ele>925</ele><time>2010-01-01T08:35:21Z</time></trkpt>
<trkpt lat="53.0730676153" lon="-4.0777159315"><ele>922</ele><time>2010-01-01T08:35:35Z</time></trkpt>
<trkpt lat="53.0730945212" lon="-4.0777603556"><ele>916</ele><time>2010-01-01T08:35:44Z</time></trkpt>
<trkpt lat="53.0730910846" lon="-4.0777701624"><ele>923</ele><time>2010-01-01T08:35:53Z</time></trkpt>
<trkpt lat="53.0731040766" lon="-4.0777788796"><ele>928</ele><time>2010-01-01T08:36:04Z</time></trkpt>
<trkpt lat="53.0731199184" lon="-4.0777908657"><ele>926</ele><time>2010-01-01T08:36:11Z</time></trkpt>
<trkpt lat="53.0731184096" lon="-4.0778055340"><ele>920</ele><time>2010-01-01T08:36:26Z</time></trkpt>
<trkpt lat="53.0731241932" lon="-4.0778192804"><ele>916</ele><time>2010-01-01T08:36:33Z</time></trkpt>
<trkpt lat="53.0731278812" lon="-4.0778066237"><ele>919</ele><time>2010-01-01T08:36:41Z</time></trkpt>
<trkpt lat="53.0731474948" lon="-4.0777809751"><ele>921</ele><time>2010-01-01T08:36:48Z</time></trkpt>
<trkpt lat="53.0731710480" lon="-4.0777543206"><ele>931</ele><time>2010-01-01T08:37:00Z</time></trkpt>
<trkpt lat="53.0731993788" lon="-4.0777068790"><ele>933</ele><time>2010-01-01T08:37:16Z</time></trkpt>
<trkpt lat="53.0732091857" lon="-4.0776877683"><ele>936</ele><time>2010-01-01T08:37:36Z</time></trkpt>
<trkpt lat="53.0732044080" lon="-4.0777767841"><ele>925</ele><time>2010-01-01T08:38:02Z</time></trkpt>
<trkpt lat="53.0731733111" lon="-4.0778204538"><ele>930</ele><time>2010-01-01T08:38:09Z</time></trkpt>
<trkpt lat="53.0731482492" lon="-4.0778421630"><ele>936</ele><time>2010-01-01T08:38:16Z</time></trkpt>
<trkpt lat="53.0731460699" lon="-4.0778639559"><ele>932</ele><time>2010-01-01T08:38:45Z</time></trkpt>
<trkpt lat="53.0731469081" lon="-4.0779011716"><ele>930</ele><time>2010-01-01T08:38:53Z</time></trkpt>
<trkpt lat="53.0731521887" lon="-4.0778977350"><ele>930</ele><time>2010-01-01T08:39:05Z</time></trkpt>
<trkpt lat="53.0731541165" lon="-4.0779308435"><ele>929</ele><time>2010-01-01T08:39:14Z</time></trkpt>
<trkpt lat="53.0731800166" lon="-4.0779929534"><ele>919</ele><time>2010-01-01T08:39:24Z</time></trkpt>
<trkpt lat="53.0731962775" lon="-4.0780662950"><ele>908</ele><time>2010-01-01T08:39:29Z</time></trkpt>
<trkpt lat="53.0732065034" lon="-4.0781216994"><ele>897</ele><time>2010-01-01T08:39:37Z</time></trkpt>
<trkpt lat="53.0732080960" lon="-4.0781443306"><ele>890</ele><time>2010-01-01T08:39:46Z</time></trkpt>
<trkpt lat="53.0732003008" lon="-4.0781526287"><ele>893</ele><time>2010-01-01T08:39:54Z</time></trkpt>
<trkpt lat="53.0731705451" lon="-4.0781255551"><ele>906</ele><time>2010-01-01T08:40:09Z</time></trkpt>
<trkpt lat="53.0731709642" lon="-4.0781644471"><ele>903</ele><time>2010-01-01T08:40:17Z</time></trkpt>
<trkpt lat="53.0731357602" lon="-4.0781740863"><ele>918</ele><time>2010-01-01T08:40:48Z</time></trkpt>
<trkpt lat="53.0731516858" lon="-4.0781682190"><ele>922</ele><time>2010-01-01T08:40:54Z</time></trkpt>
<trkpt lat="53.0731849620" lon="-4.0782106314"><ele>925</ele><time>2010-01-01T08:41:15Z</time></trkpt>
<trkpt lat="53.0731699583" lon="-4.0782374535"><ele>927</ele><time>2010-01-01T08:42:05Z</time></trkpt>
<trkpt lat="53.0731993788" lon="-4.0782059376"><ele>935</ele><time>2010-01-01T08:42:16Z</time></trkpt>
<trkpt lat="53.0732235187" lon="-4.0781160836"><ele>946</ele><time>2010-01-01T08:42:55Z</time></trkpt>
<trkpt lat="53.0732453955" lon="-4.0780913569"><ele>949</ele><time>2010-01-01T08:43:01Z</time></trkpt>
<trkpt lat="53.0732648415" lon="-4.0780797899"><ele>951</ele><time>2010-01-01T08:43:09Z</time></trkpt>
<trkpt lat="53.0732992911" lon="-4.0780561529"><ele>953</ele><time>2010-01-01T08:43:32Z</time></trkpt>
<trkpt lat="53.0733133727" lon="-4.0780721624"><ele>951</ele><time>2010-01-01T08:43:46Z</time></trkpt>
<trkpt lat="53.0733170607" lon="-4.0780514591"><ele>951</ele><time>2010-01-01T08:43:54Z</time></trkpt>
<trkpt lat="53.0733295498" lon="-4.0780411493"><ele>952</ele><time>2010-01-01T08:44:03Z</time></trkpt>
<trkpt lat="53.0733506722" lon="-4.0780187697"><ele>953</ele><time>2010-01-01T08:44:12Z</time></trkpt>
<trkpt lat="53.0733780810" lon="-4.0779998266"><ele>953</ele><time>2010-01-01T08:44:24Z</time></trkpt>
<trkpt lat="53.0734066633" lon="-4.0779649578"><ele>955</ele><time>2010-01-01T08:44:33Z</time></trkpt>
<trkpt lat="53.0734157157" lon="-4.0778927897"><ele>960</ele><time>2010-01-01T08:44:43Z</time></trkpt>
<trkpt lat="53.0734294621" lon="-4.0778689012"><ele>960</ele><time>2010-01-01T08:44:48Z</time></trkpt>
<trkpt lat="53.0734497463" lon="-4.0778617766"><ele>960</ele><time>2010-01-01T08:44:56Z</time></trkpt>
<trkpt lat="53.0734540210" lon="-4.0778818932"><ele>955</ele><time>2010-01-01T08:45:10Z</time></trkpt>
<trkpt lat="53.0734541049" lon="-4.0779131577"><ele>953</ele><time>2010-01-01T08:45:20Z</time></trkpt>
<trkpt lat="53.0734369220" lon="-4.0778990761"><ele>953</ele><time>2010-01-01T08:46:02Z</time></trkpt>
<trkpt lat="53.0734385145" lon="-4.0779371299"><ele>950</ele><time>2010-01-01T08:46:39Z</time></trkpt>
<trkpt lat="53.0734520094" lon="-4.0779641196"><ele>950</ele><time>2010-01-01T08:48:09Z</time></trkpt>
<trkpt lat="53.0734650852" lon="-4.0779702384"><ele>951</ele><time>2010-01-01T08:48:20Z</time></trkpt>
<trkpt lat="53.0734691085" lon="-4.0780163389"><ele>948</ele><time>2010-01-01T08:48:26Z</time></trkpt>
<trkpt lat="53.0734952600" lon="-4.0781221185"><ele>935</ele><time>2010-01-01T08:48:35Z</time></trkpt>
<trkpt lat="53.0735075814" lon="-4.0781824682"><ele>926</ele><time>2010-01-01T08:48:42Z</time></trkpt>
<trkpt lat="53.0735093416" lon="-4.0782461707"><ele>924</ele><time>2010-01-01T08:48:47Z</time></trkpt>
<trkpt lat="53.0734998701" lon="-4.0782956239"><ele>921</ele><time>2010-01-01T08:48:52Z</time></trkpt>
<trkpt lat="53.0734770713" lon="-4.0783314985"><ele>922</ele><time>2010-01-01T08:48:59Z</time></trkpt>
<trkpt lat="53.0734466450" lon="-4.0783522018"><ele>926</ele><time>2010-01-01T08:49:06Z</time></trkpt>
<trkpt lat="53.0734289592" lon="-4.0783560574"><ele>930</ele><time>2010-01-01T08:49:13Z</time></trkpt>
<trkpt lat="53.0733360877" lon="-4.0783622601"><ele>950</ele><time>2010-01-01T08:50:05Z</time></trkpt>
<trkpt lat="53.0733194915" lon="-4.0784041696"><ele>952</ele><time>2010-01-01T08:50:12Z</time></trkpt>
<trkpt lat="53.0732919989" lon="-4.0784672853"><ele>953</ele><time>2010-01-01T08:50:20Z</time></trkpt>
<trkpt lat="53.0732842037" lon="-4.0784845520"><ele>954</ele><time>2010-01-01T08:50:23Z</time></trkpt>
<trkpt lat="53.0733320644" lon="-4.0785480868"><ele>937</ele><time>2010-01-01T08:50:40Z</time></trkpt>
<trkpt lat="53.0732966927" lon="-4.0786081013"><ele>941</ele><time>2010-01-01T08:50:50Z</time></trkpt>
<trkpt lat="53.0732663502" lon="-4.0786697921"><ele>946</ele><time>2010-01-01T08:50:58Z</time></trkpt>
<trkpt lat="53.0732774143" lon="-4.0787296389"><ele>938</ele><time>2010-01-01T08:51:05Z</time></trkpt>
<trkpt lat="53.0732565434" lon="-4.0787418764"><ele>941</ele><time>2010-01-01T08:51:11Z</time></trkpt>
<trkpt lat="53.0732375165" lon="-4.0786877294"><ele>949</ele><time>2010-01-01T08:51:22Z</time></trkpt>
<trkpt lat="53.0732078445" lon="-4.0786937643"><ele>954</ele><time>2010-01-01T08:51:29Z</time></trkpt>
<trkpt lat="53.0731928409" lon="-4.0787214246"><ele>957</ele><time>2010-01-01T08:51:36Z</time></trkpt>
<trkpt lat="53.0731802681" lon="-4.0787241906"><ele>961</ele><time>2010-01-01T08:51:45Z</time></trkpt>
<trkpt lat="53.0731574693" lon="-4.0786993802"><ele>967</ele><time>2010-01-01T08:52:09Z</time></trkpt>
<trkpt lat="53.0731791784" lon="-4.0787245259"><ele>962</ele><time>2010-01-01T08:52:25Z</time></trkpt>
<trkpt lat="53.0731349220" lon="-4.0787888989"><ele>964</ele><time>2010-01-01T08:52:55Z</time></trkpt>
<trkpt lat="53.0730902464" lon="-4.0788563732"><ele>967</ele><time>2010-01-01T08:53:04Z</time></trkpt>
<trkpt lat="53.0730330819" lon="-4.0789314751"><ele>969</ele><time>2010-01-01T08:53:13Z</time></trkpt>
<trkpt lat="53.0729962853" lon="-4.0789871309"><ele>971</ele><time>2010-01-01T08:53:20Z</time></trkpt>
<trkpt lat="53.0729728160" lon="-4.0790251010"><ele>972</ele><time>2010-01-01T08:53:26Z</time></trkpt>
<trkpt lat="53.0729488437" lon="-4.0790635739"><ele>972</ele><time>2010-01-01T08:53:33Z</time></trkpt>
<trkpt lat="53.0729384502" lon="-4.0790745542"><ele>973</ele><time>2010-01-01T08:53:40Z</time></trkpt>
<trkpt lat="53.0729123825" lon="-4.0791111831"><ele>974</ele><time>2010-01-01T08:53:50Z</time></trkpt>
<trkpt lat="53.0728957025" lon="-4.0791276954"><ele>975</ele><time>2010-01-01T08:53:57Z</time></trkpt>
<trkpt lat="53.0728775976" lon="-4.0791552719"><ele>976</ele><time>2010-01-01T08:54:04Z</time></trkpt>
<trkpt lat="53.0728586545" lon="-4.0791915656"><ele>976</ele><time>2010-01-01T08:54:10Z</time></trkpt>
<trkpt lat="53.0728476742" lon="-4.0792159569"><ele>976</ele><time>2010-01-01T08:54:18Z</time></trkpt>
<trkpt lat="53.0728330897" lon="-4.0792464670"><ele>976</ele><time>2010-01-01T08:54:34Z</time></trkpt>
<trkpt lat="53.0728088660" lon="-4.0792681761"><ele>976</ele><time>2010-01-01T08:54:41Z</time></trkpt>
<trkpt lat="53.0727922698" lon="-4.0792919808"><ele>977</ele><time>2010-01-01T08:54:46Z</time></trkpt>
<trkpt lat="53.0727683814" lon="-4.0793231614"><ele>979</ele><time>2010-01-01T08:54:53Z</time></trkpt>
<trkpt lat="53.0727578202" lon="-4.0793432780"><ele>979</ele><time>2010-01-01T08:55:00Z</time></trkpt>
<trkpt lat="53.0727435709" lon="-4.0793752969"><ele>982</ele><time>2010-01-01T08:55:10Z</time></trkpt>
<trkpt lat="53.0727307466" lon="-4.0793895461"><ele>985</ele><time>2010-01-01T08:55:19Z</time></trkpt>
<trkpt lat="53.0727140666" lon="-4.0794134345"><ele>987</ele><time>2010-01-01T08:55:27Z</time></trkpt>
<trkpt lat="53.0727109653" lon="-4.0794231575"><ele>986</ele><time>2010-01-01T08:55:34Z</time></trkpt>
<trkpt lat="53.0726963808" lon="-4.0794517398"><ele>988</ele><time>2010-01-01T08:55:43Z</time></trkpt>
<trkpt lat="53.0726943692" lon="-4.0794748739"><ele>988</ele><time>2010-01-01T08:55:50Z</time></trkpt>
<trkpt lat="53.0726952912" lon="-4.0794805736"><ele>988</ele><time>2010-01-01T08:55:56Z</time></trkpt>
<trkpt lat="53.0726907649" lon="-4.0795224831"><ele>991</ele><time>2010-01-01T08:56:04Z</time></trkpt>
<trkpt lat="53.0727083669" lon="-4.0795454495"><ele>991</ele><time>2010-01-01T08:56:10Z</time></trkpt>
<trkpt lat="53.0727161621" lon="-4.0795371514"><ele>991</ele><time>2010-01-01T08:56:21Z</time></trkpt>
<trkpt lat="53.0727227838" lon="-4.0795362294"><ele>991</ele><time>2010-01-01T08:56:43Z</time></trkpt>
<trkpt lat="53.0727250469" lon="-4.0795283504"><ele>991</ele><time>2010-01-01T08:57:05Z</time></trkpt>
<trkpt lat="53.0727298246" lon="-4.0795194656"><ele>991</ele><time>2010-01-01T08:58:05Z</time></trkpt>
<trkpt lat="53.0727405534" lon="-4.0795525741"><ele>992</ele><time>2010-01-01T08:58:43Z</time></trkpt>
<trkpt lat="53.0727233705" lon="-4.0796007701"><ele>992</ele><time>2010-01-01T08:58:48Z</time></trkpt>
<trkpt lat="53.0726605901" lon="-4.0796370637"><ele>991</ele><time>2010-01-01T08:58:55Z</time></trkpt>
<trkpt lat="53.0725828898" lon="-4.0796586890"><ele>991</ele><time>2010-01-01T08:59:03Z</time></trkpt>
<trkpt lat="53.0725176786" lon="-4.0796814878"><ele>991</ele><time>2010-01-01T08:59:10Z</time></trkpt>
<trkpt lat="53.0724311774" lon="-4.0796866008"><ele>992</ele><time>2010-01-01T08:59:19Z</time></trkpt>
<trkpt lat="53.0723181055" lon="-4.0796825774"><ele>993</ele><time>2010-01-01T08:59:31Z</time></trkpt>
<trkpt lat="53.0722642099" lon="-4.0796457809"><ele>994</ele><time>2010-01-01T08:59:40Z</time></trkpt>
<trkpt lat="53.0722129965" lon="-4.0796220601"><ele>995</ele><time>2010-01-01T08:59:48Z</time></trkpt>
<trkpt lat="53.0721360506" lon="-4.0796422605"><ele>994</ele><time>2010-01-01T08:59:57Z</time></trkpt>
<trkpt lat="53.0720528183" lon="-4.0796488822"><ele>993</ele><time>2010-01-01T09:00:06Z</time></trkpt>
<trkpt lat="53.0719560073" lon="-4.0796252452"><ele>994</ele><time>2010-01-01T09:00:16Z</time></trkpt>
<trkpt lat="53.0718671591" lon="-4.0796093196"><ele>994</ele><time>2010-01-01T09:00:26Z</time></trkpt>
<trkpt lat="53.0717892913" lon="-4.0795688350"><ele>995</ele><time>2010-01-01T09:00:35Z</time></trkpt>
<trkpt lat="53.0717254212" lon="-4.0795118381"><ele>996</ele><time>2010-01-01T09:00:45Z</time></trkpt>
<trkpt lat="53.0716914744" lon="-4.0794710182"><ele>997</ele><time>2010-01-01T09:00:53Z</time></trkpt>
<trkpt lat="53.0716365730" lon="-4.0794481356"><ele>997</ele><time>2010-01-01T09:01:00Z</time></trkpt>
<trkpt lat="53.0715619740" lon="-4.0793969222"><ele>997</ele><time>2010-01-01T09:01:09Z</time></trkpt>
<trkpt lat="53.0715141972" lon="-4.0793466308"><ele>998</ele><time>2010-01-01T09:01:16Z</time></trkpt>
<trkpt lat="53.0714462200" lon="-4.0793086607"><ele>1000</ele><time>2010-01-01T09:01:25Z</time></trkpt>
<trkpt lat="53.0714054001" lon="-4.0792798270"><ele>1001</ele><time>2010-01-01T09:01:33Z</time></trkpt>
<trkpt lat="53.0713753929" lon="-4.0792568606"><ele>1002</ele><time>2010-01-01T09:01:39Z</time></trkpt>
<trkpt lat="53.0713188988" lon="-4.0792135261"><ele>1002</ele><time>2010-01-01T09:01:47Z</time></trkpt>
<trkpt lat="53.0712495805" lon="-4.0791841895"><ele>1003</ele><time>2010-01-01T09:01:55Z</time></trkpt>
<trkpt lat="53.0711614867" lon="-4.0791610554"><ele>1003</ele><time>2010-01-01T09:02:05Z</time></trkpt>
<trkpt lat="53.0710987063" lon="-4.0791365803"><ele>1004</ele><time>2010-01-01T09:02:13Z</time></trkpt>
<trkpt lat="53.0710420446" lon="-4.0791043938"><ele>1005</ele><time>2010-01-01T09:02:22Z</time></trkpt>
<trkpt lat="53.0710357582" lon="-4.0790920724"><ele>1005</ele><time>2010-01-01T09:02:29Z</time></trkpt>
<trkpt lat="53.0710341656" lon="-4.0790887196"><ele>1005</ele><time>2010-01-01T09:02:38Z</time></trkpt>
<trkpt lat="53.0709915855" lon="-4.0790475645"><ele>1006</ele><time>2010-01-01T09:02:47Z</time></trkpt>
<trkpt lat="53.0709454012" lon="-4.0790058226"><ele>1007</ele><time>2010-01-01T09:02:55Z</time></trkpt>
<trkpt lat="53.0708942716" lon="-4.0789555312"><ele>1008</ele><time>2010-01-01T09:03:04Z</time></trkpt>
<trkpt lat="53.0708418009" lon="-4.0788831953"><ele>1009</ele><time>2010-01-01T09:03:14Z</time></trkpt>
<trkpt lat="53.0708397054" lon="-4.0788803455"><ele>1010</ele><time>2010-01-01T09:03:24Z</time></trkpt>
<trkpt lat="53.0708405436" lon="-4.0788324010"><ele>1010</ele><time>2010-01-01T09:03:31Z</time></trkpt>
<trkpt lat="53.0708275517" lon="-4.0787602328"><ele>1011</ele><time>2010-01-01T09:03:39Z</time></trkpt>
<trkpt lat="53.0708018192" lon="-4.0786812753"><ele>1012</ele><time>2010-01-01T09:03:49Z</time></trkpt>
<trkpt lat="53.0707830438" lon="-4.0786296428"><ele>1013</ele><time>2010-01-01T09:03:58Z</time></trkpt>
<trkpt lat="53.0707799425" lon="-4.0786252004"><ele>1013</ele><time>2010-01-01T09:04:06Z</time></trkpt>
<trkpt lat="53.0707694651" lon="-4.0786029883"><ele>1014</ele><time>2010-01-01T09:04:19Z</time></trkpt>
<trkpt lat="53.0707340935" lon="-4.0785645992"><ele>1014</ele><time>2010-01-01T09:04:27Z</time></trkpt>
<trkpt lat="53.0706786053" lon="-4.0785394535"><ele>1016</ele><time>2010-01-01T09:04:36Z</time></trkpt>
<trkpt lat="53.0706340974" lon="-4.0784879886"><ele>1017</ele><time>2010-01-01T09:04:45Z</time></trkpt>
<trkpt lat="53.0706284815" lon="-4.0784883239"><ele>1018</ele><time>2010-01-01T09:04:54Z</time></trkpt>
<trkpt lat="53.0706042578" lon="-4.0784511920"><ele>1020</ele><time>2010-01-01T09:05:26Z</time></trkpt>
<trkpt lat="53.0705672098" lon="-4.0784009006"><ele>1021</ele><time>2010-01-01T09:05:35Z</time></trkpt>
<trkpt lat="53.0705529605" lon="-4.0783519503"><ele>1022</ele><time>2010-01-01T09:05:43Z</time></trkpt>
<trkpt lat="53.0705697243" lon="-4.0782817938"><ele>1024</ele><time>2010-01-01T09:05:53Z</time></trkpt>
<trkpt lat="53.0705688862" lon="-4.0782171693"><ele>1025</ele><time>2010-01-01T09:06:02Z</time></trkpt>
<trkpt lat="53.0705439081" lon="-4.0781818815"><ele>1026</ele><time>2010-01-01T09:06:09Z</time></trkpt>
<trkpt lat="53.0704999031" lon="-4.0781901796"><ele>1027</ele><time>2010-01-01T09:06:17Z</time></trkpt>
<trkpt lat="53.0704625198" lon="-4.0782002379"><ele>1027</ele><time>2010-01-01T09:06:24Z</time></trkpt>
<trkpt lat="53.0704566525" lon="-4.0781888385"><ele>1027</ele><time>2010-01-01T09:06:29Z</time></trkpt>
<trkpt lat="53.0704599214" lon="-4.0781946220"><ele>1027</ele><time>2010-01-01T09:07:23Z</time></trkpt>
<trkpt lat="53.0704633580" lon="-4.0782095418"><ele>1029</ele><time>2010-01-01T09:07:35Z</time></trkpt>
<trkpt lat="53.0704766852" lon="-4.0782050994"><ele>1032</ele><time>2010-01-01T09:08:12Z</time></trkpt>
<trkpt lat="53.0704503660" lon="-4.0781880003"><ele>1032</ele><time>2010-01-01T09:08:21Z</time></trkpt>
<trkpt lat="53.0704292436" lon="-4.0781776905"><ele>1032</ele><time>2010-01-01T09:08:44Z</time></trkpt>
<trkpt lat="53.0704170899" lon="-4.0781719908"><ele>1032</ele><time>2010-01-01T09:08:50Z</time></trkpt>
<trkpt lat="53.0703696483" lon="-4.0781325959"><ele>1033</ele><time>2010-01-01T09:09:00Z</time></trkpt>
<trkpt lat="53.0703178482" lon="-4.0780822207"><ele>1034</ele><time>2010-01-01T09:09:11Z</time></trkpt>
<trkpt lat="53.0702808001" lon="-4.0780428257"><ele>1034</ele><time>2010-01-01T09:09:18Z</time></trkpt>
<trkpt lat="53.0702346159" lon="-4.0780227930"><ele>1035</ele><time>2010-01-01T09:09:25Z</time></trkpt>
<trkpt lat="53.0701804688" lon="-4.0779888463"><ele>1036</ele><time>2010-01-01T09:09:34Z</time></trkpt>
<trkpt lat="53.0701378887" lon="-4.0779544805"><ele>1037</ele><time>2010-01-01T09:09:43Z</time></trkpt>
<trkpt lat="53.0700919559" lon="-4.0779231321"><ele>1038</ele><time>2010-01-01T09:09:52Z</time></trkpt>
<trkpt lat="53.0700875135" lon="-4.0779095535"><ele>1039</ele><time>2010-01-01T09:10:00Z</time></trkpt>
<trkpt lat="53.0700591826" lon="-4.0778975673"><ele>1040</ele><time>2010-01-01T09:10:09Z</time></trkpt>
<trkpt lat="53.0700381440" lon="-4.0778746847"><ele>1040</ele><time>2010-01-01T09:10:16Z</time></trkpt>
<trkpt lat="53.0700372220" lon="-4.0778716673"><ele>1040</ele><time>2010-01-01T09:10:27Z</time></trkpt>
<trkpt lat="53.0700311032" lon="-4.0778650456"><ele>1039</ele><time>2010-01-01T09:10:40Z</time></trkpt>
<trkpt lat="53.0700333664" lon="-4.0778679792"><ele>1039</ele><time>2010-01-01T09:10:47Z</time></trkpt>
<trkpt lat="53.0700338693" lon="-4.0778736789"><ele>1039</ele><time>2010-01-01T09:10:53Z</time></trkpt>
<trkpt lat="53.0700440114" lon="-4.0778778699"><ele>1039</ele><time>2010-01-01T09:11:02Z</time></trkpt>
<trkpt lat="53.0700464421" lon="-4.0778803844"><ele>1039</ele><time>2010-01-01T09:11:12Z</time></trkpt>
<trkpt lat="53.0700158482" lon="-4.0778645426"><ele>1039</ele><time>2010-01-01T09:11:17Z</time></trkpt>
<trkpt lat="53.0700189495" lon="-4.0778654646"><ele>1039</ele><time>2010-01-01T09:11:25Z</time></trkpt>
<trkpt lat="53.0700010960" lon="-4.0778595973"><ele>1039</ele><time>2010-01-01T09:11:32Z</time></trkpt>
<trkpt lat="53.0699950611" lon="-4.0778585915"><ele>1040</ele><time>2010-01-01T09:11:44Z</time></trkpt>
<trkpt lat="53.0699749445" lon="-4.0778521374"><ele>1041</ele><time>2010-01-01T09:12:01Z</time></trkpt>
<trkpt lat="53.0699078054" lon="-4.0778213758"><ele>1041</ele><time>2010-01-01T09:12:10Z</time></trkpt>
<trkpt lat="53.0698625432" lon="-4.0777731799"><ele>1042</ele><time>2010-01-01T09:12:18Z</time></trkpt>
<trkpt lat="53.0698221424" lon="-4.0777339526"><ele>1043</ele><time>2010-01-01T09:12:26Z</time></trkpt>
<trkpt lat="53.0697770478" lon="-4.0776746925"><ele>1044</ele><time>2010-01-01T09:12:35Z</time></trkpt>
<trkpt lat="53.0697571826" lon="-4.0776118283"><ele>1045</ele><time>2010-01-01T09:12:43Z</time></trkpt>
<trkpt lat="53.0697151893" lon="-4.0775917955"><ele>1045</ele><time>2010-01-01T09:12:50Z</time></trkpt>
<trkpt lat="53.0696457872" lon="-4.0775778816"><ele>1046</ele><time>2010-01-01T09:12:59Z</time></trkpt>
<trkpt lat="53.0695662429" lon="-4.0775516462"><ele>1047</ele><time>2010-01-01T09:13:08Z</time></trkpt>
<trkpt lat="53.0694851061" lon="-4.0775182862"><ele>1048</ele><time>2010-01-01T09:13:18Z</time></trkpt>
<trkpt lat="53.0694270195" lon="-4.0774980858"><ele>1049</ele><time>2010-01-01T09:13:26Z</time></trkpt>
<trkpt lat="53.0693825116" lon="-4.0774696712"><ele>1049</ele><time>2010-01-01T09:13:34Z</time></trkpt>
<trkpt lat="53.0693512471" lon="-4.0774560925"><ele>1050</ele><time>2010-01-01T09:13:42Z</time></trkpt>
<trkpt lat="53.0693323040" lon="-4.0774256662"><ele>1051</ele><time>2010-01-01T09:13:50Z</time></trkpt>
<trkpt lat="53.0693175518" lon="-4.0774061364"><ele>1052</ele><time>2010-01-01T09:13:57Z</time></trkpt>
<trkpt lat="53.0693027997" lon="-4.0773908813"><ele>1053</ele><time>2010-01-01T09:14:03Z</time></trkpt>
<trkpt lat="53.0692504128" lon="-4.0773507320"><ele>1053</ele><time>2010-01-01T09:14:12Z</time></trkpt>
<trkpt lat="53.0692060725" lon="-4.0773257539"><ele>1053</ele><time>2010-01-01T09:14:19Z</time></trkpt>
<trkpt lat="53.0691786637" lon="-4.0773049668"><ele>1054</ele><time>2010-01-01T09:14:26Z</time></trkpt>
<trkpt lat="53.0691822679" lon="-4.0773036257"><ele>1053</ele><time>2010-01-01T09:14:39Z</time></trkpt>
<trkpt lat="53.0691652526" lon="-4.0772948247"><ele>1054</ele><time>2010-01-01T09:14:50Z</time></trkpt>
<trkpt lat="53.0691279532" lon="-4.0772536695"><ele>1055</ele><time>2010-01-01T09:14:58Z</time></trkpt>
<trkpt lat="53.0690886421" lon="-4.0772225727"><ele>1055</ele><time>2010-01-01T09:15:05Z</time></trkpt>
<trkpt lat="53.0690380154" lon="-4.0771882907"><ele>1056</ele><time>2010-01-01T09:15:14Z</time></trkpt>
<trkpt lat="53.0690015541" lon="-4.0771565233"><ele>1056</ele><time>2010-01-01T09:15:22Z</time></trkpt>
<trkpt lat="53.0689606504" lon="-4.0771306232"><ele>1057</ele><time>2010-01-01T09:15:30Z</time></trkpt>
<trkpt lat="53.0689324034" lon="-4.0770981014"><ele>1057</ele><time>2010-01-01T09:15:37Z</time></trkpt>
<trkpt lat="53.0689075091" lon="-4.0770469718"><ele>1059</ele><time>2010-01-01T09:15:45Z</time></trkpt>
<trkpt lat="53.0688698744" lon="-4.0769965966"><ele>1059</ele><time>2010-01-01T09:15:53Z</time></trkpt>
<trkpt lat="53.0688508475" lon="-4.0769825988"><ele>1059</ele><time>2010-01-01T09:16:01Z</time></trkpt>
<trkpt lat="53.0688274619" lon="-4.0769582913"><ele>1060</ele><time>2010-01-01T09:16:15Z</time></trkpt>
<trkpt lat="53.0687988797" lon="-4.0769358278"><ele>1061</ele><time>2010-01-01T09:16:22Z</time></trkpt>
<trkpt lat="53.0687643462" lon="-4.0768968519"><ele>1062</ele><time>2010-01-01T09:16:30Z</time></trkpt>
<trkpt lat="53.0687303995" lon="-4.0768695269"><ele>1063</ele><time>2010-01-01T09:16:37Z</time></trkpt>
<trkpt lat="53.0686883224" lon="-4.0768428725"><ele>1064</ele><time>2010-01-01T09:16:46Z</time></trkpt>
<trkpt lat="53.0686875680" lon="-4.0768307187"><ele>1064</ele><time>2010-01-01T09:16:58Z</time></trkpt>
<trkpt lat="53.0686684572" lon="-4.0768173915"><ele>1065</ele><time>2010-01-01T09:17:12Z</time></trkpt>
<trkpt lat="53.0686552138" lon="-4.0768086743"><ele>1066</ele><time>2010-01-01T09:17:21Z</time></trkpt>
<trkpt lat="53.0686440659" lon="-4.0767640826"><ele>1067</ele><time>2010-01-01T09:17:28Z</time></trkpt>
<trkpt lat="53.0686537889" lon="-4.0767150484"><ele>1069</ele><time>2010-01-01T09:17:38Z</time></trkpt>
<trkpt lat="53.0686752466" lon="-4.0766575486"><ele>1071</ele><time>2010-01-01T09:17:46Z</time></trkpt>
<trkpt lat="53.0686542918" lon="-4.0766240210"><ele>1071</ele><time>2010-01-01T09:17:53Z</time></trkpt>
<trkpt lat="53.0686165733" lon="-4.0765828658"><ele>1072</ele><time>2010-01-01T09:18:01Z</time></trkpt>
<trkpt lat="53.0685880748" lon="-4.0765563790"><ele>1072</ele><time>2010-01-01T09:18:08Z</time></trkpt>
<trkpt lat="53.0685436507" lon="-4.0765211750"><ele>1074</ele><time>2010-01-01T09:18:16Z</time></trkpt>
<trkpt lat="53.0684846421" lon="-4.0764710512"><ele>1075</ele><time>2010-01-01T09:18:25Z</time></trkpt>
<trkpt lat="53.0684602508" lon="-4.0764372722"><ele>1076</ele><time>2010-01-01T09:18:33Z</time></trkpt>
<trkpt lat="53.0684170002" lon="-4.0763886571"><ele>1077</ele><time>2010-01-01T09:18:42Z</time></trkpt>
<trkpt lat="53.0683777728" lon="-4.0763631761"><ele>1078</ele><time>2010-01-01T09:18:49Z</time></trkpt>
<trkpt lat="53.0683854842" lon="-4.0762987193"><ele>1079</ele><time>2010-01-01T09:18:56Z</time></trkpt>
<trkpt lat="53.0684009069" lon="-4.0762375314"><ele>1081</ele><time>2010-01-01T09:19:03Z</time></trkpt>
<trkpt lat="53.0684135636" lon="-4.0762192589"><ele>1081</ele><time>2010-01-01T09:19:10Z</time></trkpt>
<trkpt lat="53.0684165811" lon="-4.0762271379"><ele>1083</ele><time>2010-01-01T09:19:44Z</time></trkpt>
<trkpt lat="53.0684154914" lon="-4.0762261320"><ele>1084</ele><time>2010-01-01T09:19:59Z</time></trkpt>
<trkpt lat="53.0684193471" lon="-4.0762283951"><ele>1085</ele><time>2010-01-01T09:20:15Z</time></trkpt>
<trkpt lat="53.0684410562" lon="-4.0762469191"><ele>1084</ele><time>2010-01-01T09:20:23Z</time></trkpt>
<trkpt lat="53.0684478456" lon="-4.0762479250"><ele>1084</ele><time>2010-01-01T09:20:28Z</time></trkpt>
<trkpt lat="53.0684457501" lon="-4.0762492661"><ele>1084</ele><time>2010-01-01T09:20:37Z</time></trkpt>
<trkpt lat="53.0684410562" lon="-4.0762541276"><ele>1084</ele><time>2010-01-01T09:20:51Z</time></trkpt>
<trkpt lat="53.0684170002" lon="-4.0762658622"><ele>1087</ele><time>2010-01-01T09:22:23Z</time></trkpt>
<trkpt lat="53.0684146532" lon="-4.0762645211"><ele>1088</ele><time>2010-01-01T09:23:00Z</time></trkpt>
<trkpt lat="53.0684096241" lon="-4.0762645211"><ele>1089</ele><time>2010-01-01T09:23:28Z</time></trkpt>
<trkpt lat="53.0684065228" lon="-4.0762671195"><ele>1090</ele><time>2010-01-01T09:23:45Z</time></trkpt>
<trkpt lat="53.0684039244" lon="-4.0762686283"><ele>1090</ele><time>2010-01-01T09:23:57Z</time></trkpt>
<trkpt lat="53.0684041758" lon="-4.0762700532"><ele>1090</ele><time>2010-01-01T09:24:16Z</time></trkpt>
<trkpt lat="53.0684035053" lon="-4.0762628448"><ele>1089</ele><time>2010-01-01T09:24:56Z</time></trkpt>
<trkpt lat="53.0684022480" lon="-4.0762635991"><ele>1089</ele><time>2010-01-01T09:25:06Z</time></trkpt>
<trkpt lat="53.0683996496" lon="-4.0762677901"><ele>1090</ele><time>2010-01-01T09:25:35Z</time></trkpt>
<trkpt lat="53.0683983085" lon="-4.0762731545"><ele>1089</ele><time>2010-01-01T09:25:58Z</time></trkpt>
<trkpt lat="53.0684103784" lon="-4.0762692988"><ele>1088</ele><time>2010-01-01T09:26:09Z</time></trkpt>
<trkpt lat="53.0684071095" lon="-4.0762735736"><ele>1089</ele><time>2010-01-01T09:26:33Z</time></trkpt>
<trkpt lat="53.0684003202" lon="-4.0762777645"><ele>1090</ele><time>2010-01-01T09:26:55Z</time></trkpt>
<trkpt lat="53.0684006554" lon="-4.0762679577"><ele>1090</ele><time>2010-01-01T09:28:10Z</time></trkpt>
<trkpt lat="53.0683982247" lon="-4.0762727354"><ele>1090</ele><time>2010-01-01T09:28:58Z</time></trkpt>
<trkpt lat="53.0683989791" lon="-4.0762857274"><ele>1089</ele><time>2010-01-01T09:29:08Z</time></trkpt>
<trkpt lat="53.0684014098" lon="-4.0762824584"><ele>1090</ele><time>2010-01-01T09:29:43Z</time></trkpt>
<trkpt lat="53.0684048464" lon="-4.0762693826"><ele>1091</ele><time>2010-01-01T09:29:51Z</time></trkpt>
<trkpt lat="53.0683993143" lon="-4.0762755014"><ele>1092</ele><time>2010-01-01T09:30:01Z</time></trkpt>
<trkpt lat="53.0683947043" lon="-4.0762765911"><ele>1092</ele><time>2010-01-01T09:30:20Z</time></trkpt>
<trkpt lat="53.0683973027" lon="-4.0762720649"><ele>1092</ele><time>2010-01-01T09:30:46Z</time></trkpt>
<trkpt lat="53.0683985600" lon="-4.0762708914"><ele>1091</ele><time>2010-01-01T09:30:56Z</time></trkpt>
<trkpt lat="53.0684180060" lon="-4.0762571451"><ele>1088</ele><time>2010-01-01T09:31:02Z</time></trkpt>
<trkpt lat="53.0684332610" lon="-4.0762490984"><ele>1087</ele><time>2010-01-01T09:31:13Z</time></trkpt>
<trkpt lat="53.0684418106" lon="-4.0762405489"><ele>1086</ele><time>2010-01-01T09:31:26Z</time></trkpt>
<trkpt lat="53.0684361109" lon="-4.0762403813"><ele>1085</ele><time>2010-01-01T09:31:44Z</time></trkpt>
<trkpt lat="53.0684217778" lon="-4.0762143974"><ele>1085</ele><time>2010-01-01T09:31:51Z</time></trkpt>
<trkpt lat="53.0684506954" lon="-4.0762410518"><ele>1085</ele><time>2010-01-01T09:32:00Z</time></trkpt>
<trkpt lat="53.0684499410" lon="-4.0762312450"><ele>1084</ele><time>2010-01-01T09:32:11Z</time></trkpt>
<trkpt lat="53.0684413915" lon="-4.0762401298"><ele>1087</ele><time>2010-01-01T09:32:21Z</time></trkpt>
<trkpt lat="53.0684320038" lon="-4.0762687959"><ele>1086</ele><time>2010-01-01T09:32:33Z</time></trkpt>
<trkpt lat="53.0684269746" lon="-4.0762818717"><ele>1081</ele><time>2010-01-01T09:32:44Z</time></trkpt>
<trkpt lat="53.0684284834" lon="-4.0762694665"><ele>1079</ele><time>2010-01-01T09:33:07Z</time></trkpt>
<trkpt lat="53.0684185927" lon="-4.0762610007"><ele>1082</ele><time>2010-01-01T09:33:16Z</time></trkpt>
<trkpt lat="53.0684221969" lon="-4.0762572289"><ele>1082</ele><time>2010-01-01T09:33:22Z</time></trkpt>
<trkpt lat="53.0684324229" lon="-4.0762599949"><ele>1083</ele><time>2010-01-01T09:33:32Z</time></trkpt>
<trkpt lat="53.0684376196" lon="-4.0762587376"><ele>1083</ele><time>2010-01-01T09:33:41Z</time></trkpt>
<trkpt lat="53.0684507792" lon="-4.0762563907"><ele>1084</ele><time>2010-01-01T09:34:00Z</time></trkpt>
<trkpt lat="53.0684502763" lon="-4.0762311612"><ele>1084</ele><time>2010-01-01T09:34:07Z</time></trkpt>
<trkpt lat="53.0684508630" lon="-4.0761999805"><ele>1084</ele><time>2010-01-01T09:34:25Z</time></trkpt>
<trkpt lat="53.0684703091" lon="-4.0761984717"><ele>1086</ele><time>2010-01-01T09:34:33Z</time></trkpt>
<trkpt lat="53.0684631844" lon="-4.0761924368"><ele>1086</ele><time>2010-01-01T09:34:42Z</time></trkpt>
<trkpt lat="53.0684890007" lon="-4.0761898384"><ele>1087</ele><time>2010-01-01T09:34:54Z</time></trkpt>
<trkpt lat="53.0685035852" lon="-4.0762060993"><ele>1087</ele><time>2010-01-01T09:35:01Z</time></trkpt>
<trkpt lat="53.0685060998" lon="-4.0762046744"><ele>1086</ele><time>2010-01-01T09:35:09Z</time></trkpt>
<trkpt lat="53.0685062674" lon="-4.0762079433"><ele>1086</ele><time>2010-01-01T09:35:17Z</time></trkpt>
<trkpt lat="53.0685083629" lon="-4.0762103740"><ele>1086</ele><time>2010-01-01T09:35:27Z</time></trkpt>
<trkpt lat="53.0684856479" lon="-4.0762038362"><ele>1087</ele><time>2010-01-01T09:35:51Z</time></trkpt>
<trkpt lat="53.0684524556" lon="-4.0761995614"><ele>1085</ele><time>2010-01-01T09:36:00Z</time></trkpt>
<trkpt lat="53.0684431517" lon="-4.0762537923"><ele>1083</ele><time>2010-01-01T09:36:06Z</time></trkpt>
<trkpt lat="53.0684398827" lon="-4.0762644373"><ele>1083</ele><time>2010-01-01T09:36:15Z</time></trkpt>
<trkpt lat="53.0684388769" lon="-4.0762714781"><ele>1083</ele><time>2010-01-01T09:36:23Z</time></trkpt>
<trkpt lat="53.0684330934" lon="-4.0762794409"><ele>1083</ele><time>2010-01-01T09:36:33Z</time></trkpt>
<trkpt lat="53.0684351051" lon="-4.0762926005"><ele>1083</ele><time>2010-01-01T09:36:41Z</time></trkpt>
<trkpt lat="53.0684288186" lon="-4.0763618350"><ele>1082</ele><time>2010-01-01T09:36:50Z</time></trkpt>
<trkpt lat="53.0684633521" lon="-4.0764146410"><ele>1081</ele><time>2010-01-01T09:36:58Z</time></trkpt>
<trkpt lat="53.0685169963" lon="-4.0764793493"><ele>1080</ele><time>2010-01-01T09:37:05Z</time></trkpt>
<trkpt lat="53.0685397950" lon="-4.0765049979"><ele>1079</ele><time>2010-01-01T09:37:07Z</time></trkpt>
<trkpt lat="53.0685601631" lon="-4.0765179899"><ele>1079</ele><time>2010-01-01T09:37:09Z</time></trkpt>
<trkpt lat="53.0686259610" lon="-4.0765694548"><ele>1077</ele><time>2010-01-01T09:37:19Z</time></trkpt>
<trkpt lat="53.0686778450" lon="-4.0766191595"><ele>1075</ele><time>2010-01-01T09:37:26Z</time></trkpt>
<trkpt lat="53.0686987997" lon="-4.0766900704"><ele>1074</ele><time>2010-01-01T09:37:32Z</time></trkpt>
<trkpt lat="53.0686902502" lon="-4.0767074209"><ele>1073</ele><time>2010-01-01T09:37:41Z</time></trkpt>
<trkpt lat="53.0686832932" lon="-4.0767826904"><ele>1071</ele><time>2010-01-01T09:38:07Z</time></trkpt>
<trkpt lat="53.0687552938" lon="-4.0768639949"><ele>1069</ele><time>2010-01-01T09:38:15Z</time></trkpt>
<trkpt lat="53.0687847981" lon="-4.0768898949"><ele>1068</ele><time>2010-01-01T09:38:22Z</time></trkpt>
<trkpt lat="53.0688308147" lon="-4.0769328941"><ele>1066</ele><time>2010-01-01T09:38:28Z</time></trkpt>
<trkpt lat="53.0689078444" lon="-4.0770048947"><ele>1064</ele><time>2010-01-01T09:38:36Z</time></trkpt>
<trkpt lat="53.0689800964" lon="-4.0771125183"><ele>1063</ele><time>2010-01-01T09:38:45Z</time></trkpt>
<trkpt lat="53.0690496662" lon="-4.0771744606"><ele>1061</ele><time>2010-01-01T09:38:54Z</time></trkpt>
<trkpt lat="53.0691183140" lon="-4.0772236623"><ele>1060</ele><time>2010-01-01T09:39:02Z</time></trkpt>
<trkpt lat="53.0692416956" lon="-4.0773273465"><ele>1059</ele><time>2010-01-01T09:39:14Z</time></trkpt>
<trkpt lat="53.0693274425" lon="-4.0773883667"><ele>1058</ele><time>2010-01-01T09:39:23Z</time></trkpt>
<trkpt lat="53.0693879598" lon="-4.0774406698"><ele>1056</ele><time>2010-01-01T09:39:32Z</time></trkpt>
<trkpt lat="53.0694692643" lon="-4.0775021930"><ele>1054</ele><time>2010-01-01T09:39:40Z</time></trkpt>
<trkpt lat="53.0695850184" lon="-4.0775338766"><ele>1052</ele><time>2010-01-01T09:39:50Z</time></trkpt>
<trkpt lat="53.0696941507" lon="-4.0775800608"><ele>1051</ele><time>2010-01-01T09:40:00Z</time></trkpt>
<trkpt lat="53.0697940630" lon="-4.0776109901"><ele>1050</ele><time>2010-01-01T09:40:10Z</time></trkpt>
<trkpt lat="53.0698748646" lon="-4.0776880198"><ele>1048</ele><time>2010-01-01T09:40:19Z</time></trkpt>
<trkpt lat="53.0699267486" lon="-4.0778007564"><ele>1046</ele><time>2010-01-01T09:40:27Z</time></trkpt>
<trkpt lat="53.0700332825" lon="-4.0778778699"><ele>1045</ele><time>2010-01-01T09:40:37Z</time></trkpt>
<trkpt lat="53.0701533952" lon="-4.0779433325"><ele>1044</ele><time>2010-01-01T09:40:49Z</time></trkpt>
<trkpt lat="53.0702415728" lon="-4.0780181829"><ele>1042</ele><time>2010-01-01T09:40:59Z</time></trkpt>
<trkpt lat="53.0703409822" lon="-4.0780701507"><ele>1040</ele><time>2010-01-01T09:41:09Z</time></trkpt>
<trkpt lat="53.0704030083" lon="-4.0781462584"><ele>1038</ele><time>2010-01-01T09:41:18Z</time></trkpt>
<trkpt lat="53.0704731648" lon="-4.0782031715"><ele>1036</ele><time>2010-01-01T09:41:27Z</time></trkpt>
<trkpt lat="53.0705480990" lon="-4.0782047641"><ele>1033</ele><time>2010-01-01T09:41:36Z</time></trkpt>
<trkpt lat="53.0706041740" lon="-4.0782048479"><ele>1032</ele><time>2010-01-01T09:41:43Z</time></trkpt>
<trkpt lat="53.0706185070" lon="-4.0782973003"><ele>1030</ele><time>2010-01-01T09:41:50Z</time></trkpt>
<trkpt lat="53.0705947862" lon="-4.0783969611"><ele>1027</ele><time>2010-01-01T09:41:59Z</time></trkpt>
<trkpt lat="53.0706331754" lon="-4.0784451571"><ele>1025</ele><time>2010-01-01T09:42:05Z</time></trkpt>
<trkpt lat="53.0707010688" lon="-4.0785368551"><ele>1023</ele><time>2010-01-01T09:42:14Z</time></trkpt>
<trkpt lat="53.0707672858" lon="-4.0785641801"><ele>1022</ele><time>2010-01-01T09:42:24Z</time></trkpt>
<trkpt lat="53.0708210138" lon="-4.0786279664"><ele>1021</ele><time>2010-01-01T09:42:33Z</time></trkpt>
<trkpt lat="53.0708651026" lon="-4.0787379370"><ele>1018</ele><time>2010-01-01T09:42:44Z</time></trkpt>
<trkpt lat="53.0708946907" lon="-4.0788620729"><ele>1016</ele><time>2010-01-01T09:42:54Z</time></trkpt>
<trkpt lat="53.0709274640" lon="-4.0789258592"><ele>1015</ele><time>2010-01-01T09:43:02Z</time></trkpt>
<trkpt lat="53.0709274640" lon="-4.0789242667"><ele>1015</ele><time>2010-01-01T09:43:21Z</time></trkpt>
<trkpt lat="53.0709785098" lon="-4.0789830238"><ele>1014</ele><time>2010-01-01T09:43:30Z</time></trkpt>
<trkpt lat="53.0710409549" lon="-4.0790524260"><ele>1013</ele><time>2010-01-01T09:43:38Z</time></trkpt>
<trkpt lat="53.0711264504" lon="-4.0791201517"><ele>1012</ele><time>2010-01-01T09:43:47Z</time></trkpt>
<trkpt lat="53.0712216688" lon="-4.0792010371"><ele>1011</ele><time>2010-01-01T09:43:57Z</time></trkpt>
<trkpt lat="53.0713087567" lon="-4.0792858620"><ele>1010</ele><time>2010-01-01T09:44:07Z</time></trkpt>
<trkpt lat="53.0713813440" lon="-4.0793343932"><ele>1008</ele><time>2010-01-01T09:44:16Z</time></trkpt>
<trkpt lat="53.0714475611" lon="-4.0793719441"><ele>1007</ele><time>2010-01-01T09:44:25Z</time></trkpt>
<trkpt lat="53.0715029654" lon="-4.0794056394"><ele>1006</ele><time>2010-01-01T09:44:35Z</time></trkpt>
<trkpt lat="53.0714967628" lon="-4.0793986824"><ele>1005</ele><time>2010-01-01T09:44:46Z</time></trkpt>
<trkpt lat="53.0715183881" lon="-4.0793606285"><ele>1005</ele><time>2010-01-01T09:44:56Z</time></trkpt>
<trkpt lat="53.0715338108" lon="-4.0793355666"><ele>1005</ele><time>2010-01-01T09:45:03Z</time></trkpt>
<trkpt lat="53.0715939091" lon="-4.0793648195"><ele>1004</ele><time>2010-01-01T09:45:09Z</time></trkpt>
<trkpt lat="53.0716453740" lon="-4.0794276838"><ele>1004</ele><time>2010-01-01T09:45:17Z</time></trkpt>
<trkpt lat="53.0716448711" lon="-4.0794346407"><ele>1004</ele><time>2010-01-01T09:46:05Z</time></trkpt>
<trkpt lat="53.0716496487" lon="-4.0794358980"><ele>1005</ele><time>2010-01-01T09:46:23Z</time></trkpt>
<trkpt lat="53.0716477209" lon="-4.0794360657"><ele>1004</ele><time>2010-01-01T09:46:36Z</time></trkpt>
<trkpt lat="53.0716462122" lon="-4.0794358980"><ele>1004</ele><time>2010-01-01T09:46:52Z</time></trkpt>
<trkpt lat="53.0716446196" lon="-4.0794366524"><ele>1003</ele><time>2010-01-01T09:47:04Z</time></trkpt>
<trkpt lat="53.0716428594" lon="-4.0794339702"><ele>1003</ele><time>2010-01-01T09:47:15Z</time></trkpt>
<trkpt lat="53.0716427756" lon="-4.0794314556"><ele>1002</ele><time>2010-01-01T09:47:26Z</time></trkpt>
<trkpt lat="53.0716425241" lon="-4.0794277676"><ele>1003</ele><time>2010-01-01T09:47:49Z</time></trkpt>
<trkpt lat="53.0716291969" lon="-4.0794287734"><ele>1004</ele><time>2010-01-01T09:48:34Z</time></trkpt>
<trkpt lat="53.0716667478" lon="-4.0794427712"><ele>1004</ele><time>2010-01-01T09:48:44Z</time></trkpt>
<trkpt lat="53.0717240800" lon="-4.0794677493"><ele>1003</ele><time>2010-01-01T09:48:52Z</time></trkpt>
<trkpt lat="53.0717809094" lon="-4.0795363970"><ele>1001</ele><time>2010-01-01T09:49:00Z</time></trkpt>
<trkpt lat="53.0717983437" lon="-4.0795535799"><ele>1000</ele><time>2010-01-01T09:49:05Z</time></trkpt>
<trkpt lat="53.0718324581" lon="-4.0795712658"><ele>999</ele><time>2010-01-01T09:49:11Z</time></trkpt>
<trkpt lat="53.0718527423" lon="-4.0795866885"><ele>999</ele><time>2010-01-01T09:49:19Z</time></trkpt>
<trkpt lat="53.0719716815" lon="-4.0796279274"><ele>998</ele><time>2010-01-01T09:49:29Z</time></trkpt>
<trkpt lat="53.0720789698" lon="-4.0796556715"><ele>998</ele><time>2010-01-01T09:49:38Z</time></trkpt>
<trkpt lat="53.0720995893" lon="-4.0796622932"><ele>998</ele><time>2010-01-01T09:49:40Z</time></trkpt>
<trkpt lat="53.0721405768" lon="-4.0796442721"><ele>998</ele><time>2010-01-01T09:49:45Z</time></trkpt>
<trkpt lat="53.0722297603" lon="-4.0796241556"><ele>999</ele><time>2010-01-01T09:49:54Z</time></trkpt>
<trkpt lat="53.0723245596" lon="-4.0796676577"><ele>998</ele><time>2010-01-01T09:50:03Z</time></trkpt>
<trkpt lat="53.0724388888" lon="-4.0796896182"><ele>997</ele><time>2010-01-01T09:50:13Z</time></trkpt>
<trkpt lat="53.0725563192" lon="-4.0796721839"><ele>997</ele><time>2010-01-01T09:50:23Z</time></trkpt>
<trkpt lat="53.0726690558" lon="-4.0796326213"><ele>996</ele><time>2010-01-01T09:50:33Z</time></trkpt>
<trkpt lat="53.0727498574" lon="-4.0795549211"><ele>997</ele><time>2010-01-01T09:50:43Z</time></trkpt>
<trkpt lat="53.0727413078" lon="-4.0795286857"><ele>996</ele><time>2010-01-01T09:50:48Z</time></trkpt>
<trkpt lat="53.0727440738" lon="-4.0795227345"><ele>996</ele><time>2010-01-01T09:50:57Z</time></trkpt>
<trkpt lat="53.0727460017" lon="-4.0795208905"><ele>997</ele><time>2010-01-01T09:51:10Z</time></trkpt>
<trkpt lat="53.0727368654" lon="-4.0794949904"><ele>997</ele><time>2010-01-01T09:51:20Z</time></trkpt>
<trkpt lat="53.0727376198" lon="-4.0794737004"><ele>996</ele><time>2010-01-01T09:51:38Z</time></trkpt>
<trkpt lat="53.0727395476" lon="-4.0794765503"><ele>996</ele><time>2010-01-01T09:52:01Z</time></trkpt>
<trkpt lat="53.0727469237" lon="-4.0794454534"><ele>994</ele><time>2010-01-01T09:52:12Z</time></trkpt>
<trkpt lat="53.0727685490" lon="-4.0793930665"><ele>992</ele><time>2010-01-01T09:52:21Z</time></trkpt>
<trkpt lat="53.0728046750" lon="-4.0793278553"><ele>989</ele><time>2010-01-01T09:52:28Z</time></trkpt>
<trkpt lat="53.0728591574" lon="-4.0792304576"><ele>985</ele><time>2010-01-01T09:52:38Z</time></trkpt>
<trkpt lat="53.0729135559" lon="-4.0791622289"><ele>982</ele><time>2010-01-01T09:52:46Z</time></trkpt>
<trkpt lat="53.0729633444" lon="-4.0790731293"><ele>980</ele><time>2010-01-01T09:52:54Z</time></trkpt>
<trkpt lat="53.0729953633" lon="-4.0790350754"><ele>979</ele><time>2010-01-01T09:53:01Z</time></trkpt>
<trkpt lat="53.0730594849" lon="-4.0789400246"><ele>976</ele><time>2010-01-01T09:53:11Z</time></trkpt>
<trkpt lat="53.0731384424" lon="-4.0788304732"><ele>973</ele><time>2010-01-01T09:53:21Z</time></trkpt>
<trkpt lat="53.0732008876" lon="-4.0787090194"><ele>971</ele><time>2010-01-01T09:53:31Z</time></trkpt>
<trkpt lat="53.0732366783" lon="-4.0785980430"><ele>970</ele><time>2010-01-01T09:53:39Z</time></trkpt>
<trkpt lat="53.0732722176" lon="-4.0784914252"><ele>969</ele><time>2010-01-01T09:53:47Z</time></trkpt>
<trkpt lat="53.0733171446" lon="-4.0783807841"><ele>968</ele><time>2010-01-01T09:53:55Z</time></trkpt>
<trkpt lat="53.0733582159" lon="-4.0782617610"><ele>966</ele><time>2010-01-01T09:54:04Z</time></trkpt>
<trkpt lat="53.0733857085" lon="-4.0782050994"><ele>966</ele><time>2010-01-01T09:54:10Z</time></trkpt>
<trkpt lat="53.0734212478" lon="-4.0781195201"><ele>964</ele><time>2010-01-01T09:54:19Z</time></trkpt>
<trkpt lat="53.0734537696" lon="-4.0780561529"><ele>963</ele><time>2010-01-01T09:54:27Z</time></trkpt>
<trkpt lat="53.0734675159" lon="-4.0779680591"><ele>961</ele><time>2010-01-01T09:54:36Z</time></trkpt>
<trkpt lat="53.0734722936" lon="-4.0779516306"><ele>960</ele><time>2010-01-01T09:54:44Z</time></trkpt>
<trkpt lat="53.0734666777" lon="-4.0779572465"><ele>960</ele><time>2010-01-01T09:54:58Z</time></trkpt>
<trkpt lat="53.0734641631" lon="-4.0779610183"><ele>960</ele><time>2010-01-01T09:55:09Z</time></trkpt>
<trkpt lat="53.0734619000" lon="-4.0779647902"><ele>960</ele><time>2010-01-01T09:55:17Z</time></trkpt>
<trkpt lat="53.0734636602" lon="-4.0779698193"><ele>960</ele><time>2010-01-01T09:55:28Z</time></trkpt>
<trkpt lat="53.0734646661" lon="-4.0779440869"><ele>959</ele><time>2010-01-01T09:55:38Z</time></trkpt>
<trkpt lat="53.0734621515" lon="-4.0778936278"><ele>958</ele><time>2010-01-01T09:55:45Z</time></trkpt>
<trkpt lat="53.0734735509" lon="-4.0777861718"><ele>955</ele><time>2010-01-01T09:55:54Z</time></trkpt>
<trkpt lat="53.0734918234" lon="-4.0776676517"><ele>954</ele><time>2010-01-01T09:56:03Z</time></trkpt>
<trkpt lat="53.0734994510" lon="-4.0775653925"><ele>953</ele><time>2010-01-01T09:56:11Z</time></trkpt>
<trkpt lat="53.0735129458" lon="-4.0774737783"><ele>951</ele><time>2010-01-01T09:56:21Z</time></trkpt>
<trkpt lat="53.0735235908" lon="-4.0774187930"><ele>950</ele><time>2010-01-01T09:56:28Z</time></trkpt>
<trkpt lat="53.0735381754" lon="-4.0773320403"><ele>948</ele><time>2010-01-01T09:56:35Z</time></trkpt>
<trkpt lat="53.0735416958" lon="-4.0772961658"><ele>947</ele><time>2010-01-01T09:56:41Z</time></trkpt>
<trkpt lat="53.0735444618" lon="-4.0772416834"><ele>947</ele><time>2010-01-01T09:56:51Z</time></trkpt>
<trkpt lat="53.0735416119" lon="-4.0771760531"><ele>945</ele><time>2010-01-01T09:56:58Z</time></trkpt>
<trkpt lat="53.0735336491" lon="-4.0771002807"><ele>943</ele><time>2010-01-01T09:57:05Z</time></trkpt>
<trkpt lat="53.0735227527" lon="-4.0770423618"><ele>941</ele><time>2010-01-01T09:57:11Z</time></trkpt>
<trkpt lat="53.0735030552" lon="-4.0769636557"><ele>938</ele><time>2010-01-01T09:57:19Z</time></trkpt>
<trkpt lat="53.0735058212" lon="-4.0769663379"><ele>938</ele><time>2010-01-01T09:57:27Z</time></trkpt>
<trkpt lat="53.0734976069" lon="-4.0769130290"><ele>937</ele><time>2010-01-01T09:58:22Z</time></trkpt>
<trkpt lat="53.0734878001" lon="-4.0768282880"><ele>936</ele><time>2010-01-01T09:58:31Z</time></trkpt>
<trkpt lat="53.0734739700" lon="-4.0767617356"><ele>934</ele><time>2010-01-01T09:58:37Z</time></trkpt>
<trkpt lat="53.0734634926" lon="-4.0766629968"><ele>933</ele><time>2010-01-01T09:58:45Z</time></trkpt>
<trkpt lat="53.0734484052" lon="-4.0765120387"><ele>932</ele><time>2010-01-01T09:58:56Z</time></trkpt>
<trkpt lat="53.0734424540" lon="-4.0764755775"><ele>931</ele><time>2010-01-01T09:59:02Z</time></trkpt>
<trkpt lat="53.0734193200" lon="-4.0763897468"><ele>928</ele><time>2010-01-01T09:59:11Z</time></trkpt>
<trkpt lat="53.0733874687" lon="-4.0763956979"><ele>926</ele><time>2010-01-01T09:59:19Z</time></trkpt>
<trkpt lat="53.0733727166" lon="-4.0764777568"><ele>925</ele><time>2010-01-01T09:59:26Z</time></trkpt>
<trkpt lat="53.0733526838" lon="-4.0765294731"><ele>923</ele><time>2010-01-01T09:59:31Z</time></trkpt>
<trkpt lat="53.0733339922" lon="-4.0765998811"><ele>923</ele><time>2010-01-01T09:59:37Z</time></trkpt>
<trkpt lat="53.0733039012" lon="-4.0766721331"><ele>922</ele><time>2010-01-01T09:59:42Z</time></trkpt>
<trkpt lat="53.0732832817" lon="-4.0767327343"><ele>919</ele><time>2010-01-01T09:59:49Z</time></trkpt>
<trkpt lat="53.0732947649" lon="-4.0767477379"><ele>917</ele><time>2010-01-01T09:59:51Z</time></trkpt>
<trkpt lat="53.0733562881" lon="-4.0767775774"><ele>915</ele><time>2010-01-01T09:59:55Z</time></trkpt>
<trkpt lat="53.0733437152" lon="-4.0768052377"><ele>913</ele><time>2010-01-01T09:59:58Z</time></trkpt>
<trkpt lat="53.0733189048" lon="-4.0768752266"><ele>911</ele><time>2010-01-01T10:00:05Z</time></trkpt>
<trkpt lat="53.0732899872" lon="-4.0769428686"><ele>910</ele><time>2010-01-01T10:00:18Z</time></trkpt>
<trkpt lat="53.0732430485" lon="-4.0769492388"><ele>909</ele><time>2010-01-01T10:00:30Z</time></trkpt>
<trkpt lat="53.0732078445" lon="-4.0769495741"><ele>908</ele><time>2010-01-01T10:00:40Z</time></trkpt>
<trkpt lat="53.0731920028" lon="-4.0769560282"><ele>906</ele><time>2010-01-01T10:00:51Z</time></trkpt>
<trkpt lat="53.0732039889" lon="-4.0769469757"><ele>907</ele><time>2010-01-01T10:01:03Z</time></trkpt>
<trkpt lat="53.0731858840" lon="-4.0769521725"><ele>908</ele><time>2010-01-01T10:01:04Z</time></trkpt>
<trkpt lat="53.0730995504" lon="-4.0769654997"><ele>907</ele><time>2010-01-01T10:01:11Z</time></trkpt>
<trkpt lat="53.0732306433" lon="-4.0769629013"><ele>914</ele><time>2010-01-01T10:01:33Z</time></trkpt>
<trkpt lat="53.0732466528" lon="-4.0769614764"><ele>912</ele><time>2010-01-01T10:01:50Z</time></trkpt>
<trkpt lat="53.0732083475" lon="-4.0769641586"><ele>909</ele><time>2010-01-01T10:01:54Z</time></trkpt>
<trkpt lat="53.0731506800" lon="-4.0769725405"><ele>906</ele><time>2010-01-01T10:01:56Z</time></trkpt>
<trkpt lat="53.0730552939" lon="-4.0769503285"><ele>899</ele><time>2010-01-01T10:02:04Z</time></trkpt>
<trkpt lat="53.0730179944" lon="-4.0769418627"><ele>899</ele><time>2010-01-01T10:02:06Z</time></trkpt>
<trkpt lat="53.0729661943" lon="-4.0768795852"><ele>898</ele><time>2010-01-01T10:02:13Z</time></trkpt>
<trkpt lat="53.0729573933" lon="-4.0768751428"><ele>897</ele><time>2010-01-01T10:02:15Z</time></trkpt>
<trkpt lat="53.0729091973" lon="-4.0768455547"><ele>895</ele><time>2010-01-01T10:02:22Z</time></trkpt>
<trkpt lat="53.0728989714" lon="-4.0767969396"><ele>894</ele><time>2010-01-01T10:02:29Z</time></trkpt>
<trkpt lat="53.0729036653" lon="-4.0767350812"><ele>893</ele><time>2010-01-01T10:03:08Z</time></trkpt>
<trkpt lat="53.0728922659" lon="-4.0767452233"><ele>892</ele><time>2010-01-01T10:03:42Z</time></trkpt>
<trkpt lat="53.0728853927" lon="-4.0767550301"><ele>892</ele><time>2010-01-01T10:03:55Z</time></trkpt>
<trkpt lat="53.0728713111" lon="-4.0767129530"><ele>891</ele><time>2010-01-01T10:04:44Z</time></trkpt>
<trkpt lat="53.0728742448" lon="-4.0766351689"><ele>890</ele><time>2010-01-01T10:04:50Z</time></trkpt>
<trkpt lat="53.0728586545" lon="-4.0765667726"><ele>887</ele><time>2010-01-01T10:04:57Z</time></trkpt>
<trkpt lat="53.0728474227" lon="-4.0765417945"><ele>886</ele><time>2010-01-01T10:05:03Z</time></trkpt>
<trkpt lat="53.0728335088" lon="-4.0765086860"><ele>885</ele><time>2010-01-01T10:05:09Z</time></trkpt>
<trkpt lat="53.0728174155" lon="-4.0764912516"><ele>883</ele><time>2010-01-01T10:05:16Z</time></trkpt>
<trkpt lat="53.0728047588" lon="-4.0764745716"><ele>881</ele><time>2010-01-01T10:05:21Z</time></trkpt>
<trkpt lat="53.0727859834" lon="-4.0764921736"><ele>880</ele><time>2010-01-01T10:05:25Z</time></trkpt>
<trkpt lat="53.0727478457" lon="-4.0765227676"><ele>877</ele><time>2010-01-01T10:05:33Z</time></trkpt>
<trkpt lat="53.0727245440" lon="-4.0765101947"><ele>875</ele><time>2010-01-01T10:05:40Z</time></trkpt>
<trkpt lat="53.0727055171" lon="-4.0764878989"><ele>873</ele><time>2010-01-01T10:05:46Z</time></trkpt>
<trkpt lat="53.0726936986" lon="-4.0764708836"><ele>873</ele><time>2010-01-01T10:05:52Z</time></trkpt>
<trkpt lat="53.0726765157" lon="-4.0764597357"><ele>872</ele><time>2010-01-01T10:05:59Z</time></trkpt>
<trkpt lat="53.0726704807" lon="-4.0764437262"><ele>873</ele><time>2010-01-01T10:06:40Z</time></trkpt>
<trkpt lat="53.0726698940" lon="-4.0764359311"><ele>873</ele><time>2010-01-01T10:07:02Z</time></trkpt>
<trkpt lat="53.0726705646" lon="-4.0764239449"><ele>873</ele><time>2010-01-01T10:07:13Z</time></trkpt>
<trkpt lat="53.0726605901" lon="-4.0763945245"><ele>873</ele><time>2010-01-01T10:07:25Z</time></trkpt>
<trkpt lat="53.0726406412" lon="-4.0763396230"><ele>872</ele><time>2010-01-01T10:07:32Z</time></trkpt>
<trkpt lat="53.0725959656" lon="-4.0762681254"><ele>869</ele><time>2010-01-01T10:07:41Z</time></trkpt>
<trkpt lat="53.0725651202" lon="-4.0761783552"><ele>866</ele><time>2010-01-01T10:07:50Z</time></trkpt>
<trkpt lat="53.0725688921" lon="-4.0760408920"><ele>864</ele><time>2010-01-01T10:07:58Z</time></trkpt>
<trkpt lat="53.0725599234" lon="-4.0758913588"><ele>863</ele><time>2010-01-01T10:08:07Z</time></trkpt>
<trkpt lat="53.0725532179" lon="-4.0757595953"><ele>861</ele><time>2010-01-01T10:08:16Z</time></trkpt>
<trkpt lat="53.0725543076" lon="-4.0755693261"><ele>859</ele><time>2010-01-01T10:08:28Z</time></trkpt>
<trkpt lat="53.0725483564" lon="-4.0754602775"><ele>857</ele><time>2010-01-01T10:08:36Z</time></trkpt>
<trkpt lat="53.0725476859" lon="-4.0753155221"><ele>855</ele><time>2010-01-01T10:08:46Z</time></trkpt>
<trkpt lat="53.0725444169" lon="-4.0751664918"><ele>853</ele><time>2010-01-01T10:08:56Z</time></trkpt>
<trkpt lat="53.0725498651" lon="-4.0750164558"><ele>850</ele><time>2010-01-01T10:09:06Z</time></trkpt>
<trkpt lat="53.0725285751" lon="-4.0748693534"><ele>847</ele><time>2010-01-01T10:09:17Z</time></trkpt>
<trkpt lat="53.0725398069" lon="-4.0747848638"><ele>846</ele><time>2010-01-01T10:09:25Z</time></trkpt>
<trkpt lat="53.0725529665" lon="-4.0747776553"><ele>845</ele><time>2010-01-01T10:09:31Z</time></trkpt>
<trkpt lat="53.0725546428" lon="-4.0747851991"><ele>844</ele><time>2010-01-01T10:09:44Z</time></trkpt>
<trkpt lat="53.0725481049" lon="-4.0747287888"><ele>843</ele><time>2010-01-01T10:09:56Z</time></trkpt>
<trkpt lat="53.0725501166" lon="-4.0746138730"><ele>842</ele><time>2010-01-01T10:10:04Z</time></trkpt>
<trkpt lat="53.0725482726" lon="-4.0744671896"><ele>839</ele><time>2010-01-01T10:10:14Z</time></trkpt>
<trkpt lat="53.0725186845" lon="-4.0743813590"><ele>837</ele><time>2010-01-01T10:10:22Z</time></trkpt>
<trkpt lat="53.0725318441" lon="-4.0742777586"><ele>835</ele><time>2010-01-01T10:10:29Z</time></trkpt>
<trkpt lat="53.0725435787" lon="-4.0741497670"><ele>834</ele><time>2010-01-01T10:10:36Z</time></trkpt>
<trkpt lat="53.0725483564" lon="-4.0740654450"><ele>833</ele><time>2010-01-01T10:10:43Z</time></trkpt>
<trkpt lat="53.0725517930" lon="-4.0740667861"><ele>832</ele><time>2010-01-01T10:10:50Z</time></trkpt>
<trkpt lat="53.0725652040" lon="-4.0740194284"><ele>832</ele><time>2010-01-01T10:10:55Z</time></trkpt>
<trkpt lat="53.0726371208" lon="-4.0739121400"><ele>830</ele><time>2010-01-01T10:11:06Z</time></trkpt>
<trkpt lat="53.0726382942" lon="-4.0738835577"><ele>828</ele><time>2010-01-01T10:11:14Z</time></trkpt>
<trkpt lat="53.0726421499" lon="-4.0738093779"><ele>826</ele><time>2010-01-01T10:11:21Z</time></trkpt>
<trkpt lat="53.0726413117" lon="-4.0737585836"><ele>824</ele><time>2010-01-01T10:11:28Z</time></trkpt>
<trkpt lat="53.0726409764" lon="-4.0737403948"><ele>823</ele><time>2010-01-01T10:11:35Z</time></trkpt>
<trkpt lat="53.0726353606" lon="-4.0736881756"><ele>823</ele><time>2010-01-01T10:11:42Z</time></trkpt>
<trkpt lat="53.0726315887" lon="-4.0735984892"><ele>821</ele><time>2010-01-01T10:11:50Z</time></trkpt>
<trkpt lat="53.0726242964" lon="-4.0735399835"><ele>820</ele><time>2010-01-01T10:11:55Z</time></trkpt>
<trkpt lat="53.0726283198" lon="-4.0734881834"><ele>819</ele><time>2010-01-01T10:12:01Z</time></trkpt>
<trkpt lat="53.0726291580" lon="-4.0733987484"><ele>818</ele><time>2010-01-01T10:12:07Z</time></trkpt>
<trkpt lat="53.0726041799" lon="-4.0732969921"><ele>817</ele><time>2010-01-01T10:12:14Z</time></trkpt>
<trkpt lat="53.0725762681" lon="-4.0732302722"><ele>814</ele><time>2010-01-01T10:12:20Z</time></trkpt>
<trkpt lat="53.0725734183" lon="-4.0731865187"><ele>814</ele><time>2010-01-01T10:12:22Z</time></trkpt>
<trkpt lat="53.0725797885" lon="-4.0730400868"><ele>811</ele><time>2010-01-01T10:12:30Z</time></trkpt>
<trkpt lat="53.0725812973" lon="-4.0729103349"><ele>810</ele><time>2010-01-01T10:12:38Z</time></trkpt>
<trkpt lat="53.0725745918" lon="-4.0727589578"><ele>807</ele><time>2010-01-01T10:12:47Z</time></trkpt>
<trkpt lat="53.0725716581" lon="-4.0726581235"><ele>805</ele><time>2010-01-01T10:12:56Z</time></trkpt>
<trkpt lat="53.0725774416" lon="-4.0725849495"><ele>804</ele><time>2010-01-01T10:13:02Z</time></trkpt>
<trkpt lat="53.0725788665" lon="-4.0724760685"><ele>803</ele><time>2010-01-01T10:13:10Z</time></trkpt>
<trkpt lat="53.0725988993" lon="-4.0723473225"><ele>800</ele><time>2010-01-01T10:13:20Z</time></trkpt>
<trkpt lat="53.0726040122" lon="-4.0723461490"><ele>799</ele><time>2010-01-01T10:13:26Z</time></trkpt>
<trkpt lat="53.0725307544" lon="-4.0724121984"><ele>801</ele><time>2010-01-01T10:14:31Z</time></trkpt>
<trkpt lat="53.0725429082" lon="-4.0723717977"><ele>799</ele><time>2010-01-01T10:14:41Z</time></trkpt>
<trkpt lat="53.0725888410" lon="-4.0722514335"><ele>797</ele><time>2010-01-01T10:14:49Z</time></trkpt>
<trkpt lat="53.0725955465" lon="-4.0722364299"><ele>796</ele><time>2010-01-01T10:14:50Z</time></trkpt>
<trkpt lat="53.0726212790" lon="-4.0721702967"><ele>795</ele><time>2010-01-01T10:14:58Z</time></trkpt>
<trkpt lat="53.0726457541" lon="-4.0721202568"><ele>798</ele><time>2010-01-01T10:15:27Z</time></trkpt>
<trkpt lat="53.0727009909" lon="-4.0720826220"><ele>798</ele><time>2010-01-01T10:15:34Z</time></trkpt>
<trkpt lat="53.0727247116" lon="-4.0720673669"><ele>798</ele><time>2010-01-01T10:15:40Z</time></trkpt>
<trkpt lat="53.0726889209" lon="-4.0720332526"><ele>800</ele><time>2010-01-01T10:16:27Z</time></trkpt>
<trkpt lat="53.0726923575" lon="-4.0720544588"><ele>798</ele><time>2010-01-01T10:16:37Z</time></trkpt>
<trkpt lat="53.0727047627" lon="-4.0720675346"><ele>796</ele><time>2010-01-01T10:17:04Z</time></trkpt>
<trkpt lat="53.0727200178" lon="-4.0720804427"><ele>794</ele><time>2010-01-01T10:17:35Z</time></trkpt>
<trkpt lat="53.0727181738" lon="-4.0720865615"><ele>793</ele><time>2010-01-01T10:17:51Z</time></trkpt>
<trkpt lat="53.0727170003" lon="-4.0720548779"><ele>794</ele><time>2010-01-01T10:18:01Z</time></trkpt>
<trkpt lat="53.0727359434" lon="-4.0720731505"><ele>793</ele><time>2010-01-01T10:18:11Z</time></trkpt>
<trkpt lat="53.0727383742" lon="-4.0720615834"><ele>794</ele><time>2010-01-01T10:18:18Z</time></trkpt>
<trkpt lat="53.0727594965" lon="-4.0720111244"><ele>794</ele><time>2010-01-01T10:18:56Z</time></trkpt>
<trkpt lat="53.0727818762" lon="-4.0719436501"><ele>792</ele><time>2010-01-01T10:19:03Z</time></trkpt>
<trkpt lat="53.0727889170" lon="-4.0718675424"><ele>790</ele><time>2010-01-01T10:19:09Z</time></trkpt>
<trkpt lat="53.0727860672" lon="-4.0717756767"><ele>789</ele><time>2010-01-01T10:19:16Z</time></trkpt>
<trkpt lat="53.0727838041" lon="-4.0717418976"><ele>789</ele><time>2010-01-01T10:19:21Z</time></trkpt>
<trkpt lat="53.0727741649" lon="-4.0716552288"><ele>787</ele><time>2010-01-01T10:19:27Z</time></trkpt>
<trkpt lat="53.0727625140" lon="-4.0715501197"><ele>786</ele><time>2010-01-01T10:19:33Z</time></trkpt>
<trkpt lat="53.0727341832" lon="-4.0714077950"><ele>786</ele><time>2010-01-01T10:19:42Z</time></trkpt>
<trkpt lat="53.0727093728" lon="-4.0712444317"><ele>784</ele><time>2010-01-01T10:19:51Z</time></trkpt>
<trkpt lat="53.0726752584" lon="-4.0710677412"><ele>780</ele><time>2010-01-01T10:20:01Z</time></trkpt>
<trkpt lat="53.0726973028" lon="-4.0709796474"><ele>778</ele><time>2010-01-01T10:20:07Z</time></trkpt>
<trkpt lat="53.0727646095" lon="-4.0708530806"><ele>776</ele><time>2010-01-01T10:20:16Z</time></trkpt>
<trkpt lat="53.0728019090" lon="-4.0708034598"><ele>774</ele><time>2010-01-01T10:20:24Z</time></trkpt>
<trkpt lat="53.0728191757" lon="-4.0707530007"><ele>773</ele><time>2010-01-01T10:20:29Z</time></trkpt>
<trkpt lat="53.0728386217" lon="-4.0706664995"><ele>771</ele><time>2010-01-01T10:20:37Z</time></trkpt>
<trkpt lat="53.0728585706" lon="-4.0705607199"><ele>768</ele><time>2010-01-01T10:20:45Z</time></trkpt>
<trkpt lat="53.0728664496" lon="-4.0705130268"><ele>768</ele><time>2010-01-01T10:20:52Z</time></trkpt>
<trkpt lat="53.0728702215" lon="-4.0704490729"><ele>768</ele><time>2010-01-01T10:21:04Z</time></trkpt>
<trkpt lat="53.0728908410" lon="-4.0703151301"><ele>765</ele><time>2010-01-01T10:21:13Z</time></trkpt>
<trkpt lat="53.0729196747" lon="-4.0702177324"><ele>765</ele><time>2010-01-01T10:21:19Z</time></trkpt>
<trkpt lat="53.0729470835" lon="-4.0701778345"><ele>764</ele><time>2010-01-01T10:21:26Z</time></trkpt>
<trkpt lat="53.0729627577" lon="-4.0701168981"><ele>764</ele><time>2010-01-01T10:21:34Z</time></trkpt>
<trkpt lat="53.0730230236" lon="-4.0699786805"><ele>762</ele><time>2010-01-01T10:21:44Z</time></trkpt>
<trkpt lat="53.0730759134" lon="-4.0698805284"><ele>760</ele><time>2010-01-01T10:21:52Z</time></trkpt>
<trkpt lat="53.0731003047" lon="-4.0698472523"><ele>760</ele><time>2010-01-01T10:21:59Z</time></trkpt>
<trkpt lat="53.0731187449" lon="-4.0698092822"><ele>758</ele><time>2010-01-01T10:22:06Z</time></trkpt>
<trkpt lat="53.0730967843" lon="-4.0697176680"><ele>756</ele><time>2010-01-01T10:22:11Z</time></trkpt>
<trkpt lat="53.0730967843" lon="-4.0696692206"><ele>756</ele><time>2010-01-01T10:22:14Z</time></trkpt>
<trkpt lat="53.0730984607" lon="-4.0696524568"><ele>756</ele><time>2010-01-01T10:22:15Z</time></trkpt>
<trkpt lat="53.0731092734" lon="-4.0695089586"><ele>755</ele><time>2010-01-01T10:22:23Z</time></trkpt>
<trkpt lat="53.0731217624" lon="-4.0693766922"><ele>755</ele><time>2010-01-01T10:22:31Z</time></trkpt>
<trkpt lat="53.0731274621" lon="-4.0692744330"><ele>754</ele><time>2010-01-01T10:22:37Z</time></trkpt>
<trkpt lat="53.0731469919" lon="-4.0691622831"><ele>753</ele><time>2010-01-01T10:22:46Z</time></trkpt>
<trkpt lat="53.0731536136" lon="-4.0691693239"><ele>753</ele><time>2010-01-01T10:22:56Z</time></trkpt>
<trkpt lat="53.0731486683" lon="-4.0691545718"><ele>752</ele><time>2010-01-01T10:24:46Z</time></trkpt>
<trkpt lat="53.0731492550" lon="-4.0691680666"><ele>752</ele><time>2010-01-01T10:24:57Z</time></trkpt>
<trkpt lat="53.0731542004" lon="-4.0691751913"><ele>749</ele><time>2010-01-01T10:25:26Z</time></trkpt>
<trkpt lat="53.0731920028" lon="-4.0691846628"><ele>743</ele><time>2010-01-01T10:25:37Z</time></trkpt>
<trkpt lat="53.0732190763" lon="-4.0691844952"><ele>741</ele><time>2010-01-01T10:25:44Z</time></trkpt>
<trkpt lat="53.0732318168" lon="-4.0691094771"><ele>742</ele><time>2010-01-01T10:25:50Z</time></trkpt>
<trkpt lat="53.0732528554" lon="-4.0689404980"><ele>742</ele><time>2010-01-01T10:25:59Z</time></trkpt>
<trkpt lat="53.0732648415" lon="-4.0688408371"><ele>743</ele><time>2010-01-01T10:26:06Z</time></trkpt>
<trkpt lat="53.0733199106" lon="-4.0687387456"><ele>744</ele><time>2010-01-01T10:26:14Z</time></trkpt>
<trkpt lat="53.0733686095" lon="-4.0686529987"><ele>742</ele><time>2010-01-01T10:26:23Z</time></trkpt>
<trkpt lat="53.0734117763" lon="-4.0686208960"><ele>742</ele><time>2010-01-01T10:26:30Z</time></trkpt>
<trkpt lat="53.0734282886" lon="-4.0685771425"><ele>742</ele><time>2010-01-01T10:26:34Z</time></trkpt>
<trkpt lat="53.0734252711" lon="-4.0684968438"><ele>741</ele><time>2010-01-01T10:26:41Z</time></trkpt>
<trkpt lat="53.0734145423" lon="-4.0684464686"><ele>740</ele><time>2010-01-01T10:26:48Z</time></trkpt>
<trkpt lat="53.0733936713" lon="-4.0683980212"><ele>738</ele><time>2010-01-01T10:26:55Z</time></trkpt>
<trkpt lat="53.0733898157" lon="-4.0683453828"><ele>736</ele><time>2010-01-01T10:27:02Z</time></trkpt>
<trkpt lat="53.0733837807" lon="-4.0682853684"><ele>736</ele><time>2010-01-01T10:27:08Z</time></trkpt>
<trkpt lat="53.0733841160" lon="-4.0682152957"><ele>736</ele><time>2010-01-01T10:27:15Z</time></trkpt>
<trkpt lat="53.0733795059" lon="-4.0681410320"><ele>734</ele><time>2010-01-01T10:27:22Z</time></trkpt>
<trkpt lat="53.0733681065" lon="-4.0680682771"><ele>733</ele><time>2010-01-01T10:27:29Z</time></trkpt>
<trkpt lat="53.0733672683" lon="-4.0679796804"><ele>733</ele><time>2010-01-01T10:27:37Z</time></trkpt>
<trkpt lat="53.0733637479" lon="-4.0679344181"><ele>733</ele><time>2010-01-01T10:27:44Z</time></trkpt>
<trkpt lat="53.0733647538" lon="-4.0678925924"><ele>732</ele><time>2010-01-01T10:27:49Z</time></trkpt>
<trkpt lat="53.0733624068" lon="-4.0678181611"><ele>731</ele><time>2010-01-01T10:27:55Z</time></trkpt>
<trkpt lat="53.0733627421" lon="-4.0677658581"><ele>730</ele><time>2010-01-01T10:28:00Z</time></trkpt>
<trkpt lat="53.0733635803" lon="-4.0676944442"><ele>729</ele><time>2010-01-01T10:28:07Z</time></trkpt>
<trkpt lat="53.0733672683" lon="-4.0676141456"><ele>728</ele><time>2010-01-01T10:28:15Z</time></trkpt>
<trkpt lat="53.0733728842" lon="-4.0675714817"><ele>726</ele><time>2010-01-01T10:28:24Z</time></trkpt>
<trkpt lat="53.0733717108" lon="-4.0675167479"><ele>724</ele><time>2010-01-01T10:28:31Z</time></trkpt>
<trkpt lat="53.0733702020" lon="-4.0674860701"><ele>724</ele><time>2010-01-01T10:28:37Z</time></trkpt>
<trkpt lat="53.0733619877" lon="-4.0674148240"><ele>723</ele><time>2010-01-01T10:28:45Z</time></trkpt>
<trkpt lat="53.0733711240" lon="-4.0673229583"><ele>723</ele><time>2010-01-01T10:28:52Z</time></trkpt>
<trkpt lat="53.0733833616" lon="-4.0672181845"><ele>723</ele><time>2010-01-01T10:29:00Z</time></trkpt>
<trkpt lat="53.0733869658" lon="-4.0671112314"><ele>723</ele><time>2010-01-01T10:29:08Z</time></trkpt>
<trkpt lat="53.0733904024" lon="-4.0670328606"><ele>721</ele><time>2010-01-01T10:29:16Z</time></trkpt>
<trkpt lat="53.0733971917" lon="-4.0669887718"><ele>721</ele><time>2010-01-01T10:29:21Z</time></trkpt>
<trkpt lat="53.0733992034" lon="-4.0668788012"><ele>720</ele><time>2010-01-01T10:29:29Z</time></trkpt>
<trkpt lat="53.0734040649" lon="-4.0667662323"><ele>718</ele><time>2010-01-01T10:29:37Z</time></trkpt>
<trkpt lat="53.0734116086" lon="-4.0666261707"><ele>716</ele><time>2010-01-01T10:29:46Z</time></trkpt>
<trkpt lat="53.0734147099" lon="-4.0665261746"><ele>715</ele><time>2010-01-01T10:29:52Z</time></trkpt>
<trkpt lat="53.0734240977" lon="-4.0664290283"><ele>713</ele><time>2010-01-01T10:29:59Z</time></trkpt>
<trkpt lat="53.0734302164" lon="-4.0663658288"><ele>712</ele><time>2010-01-01T10:30:04Z</time></trkpt>
<trkpt lat="53.0734388498" lon="-4.0663548485"><ele>711</ele><time>2010-01-01T10:30:12Z</time></trkpt>
<trkpt lat="53.0734629897" lon="-4.0663166270"><ele>711</ele><time>2010-01-01T10:30:22Z</time></trkpt>
<trkpt lat="53.0734862914" lon="-4.0662863683"><ele>710</ele><time>2010-01-01T10:30:28Z</time></trkpt>
<trkpt lat="53.0735048154" lon="-4.0662411899"><ele>708</ele><time>2010-01-01T10:30:33Z</time></trkpt>
<trkpt lat="53.0735180588" lon="-4.0661817622"><ele>708</ele><time>2010-01-01T10:30:38Z</time></trkpt>
<trkpt lat="53.0735292067" lon="-4.0661159642"><ele>708</ele><time>2010-01-01T10:30:43Z</time></trkpt>
<trkpt lat="53.0735426178" lon="-4.0660145432"><ele>708</ele><time>2010-01-01T10:30:51Z</time></trkpt>
<trkpt lat="53.0735775703" lon="-4.0658556223"><ele>707</ele><time>2010-01-01T10:31:01Z</time></trkpt>
<trkpt lat="53.0735965972" lon="-4.0657444783"><ele>708</ele><time>2010-01-01T10:31:08Z</time></trkpt>
<trkpt lat="53.0736147859" lon="-4.0656720586"><ele>710</ele><time>2010-01-01T10:31:15Z</time></trkpt>
<trkpt lat="53.0736327232" lon="-4.0656237789"><ele>711</ele><time>2010-01-01T10:31:23Z</time></trkpt>
<trkpt lat="53.0736395964" lon="-4.0655317456"><ele>710</ele><time>2010-01-01T10:31:30Z</time></trkpt>
<trkpt lat="53.0736454637" lon="-4.0654647742"><ele>711</ele><time>2010-01-01T10:31:35Z</time></trkpt>
<trkpt lat="53.0736722858" lon="-4.0653846432"><ele>710</ele><time>2010-01-01T10:31:42Z</time></trkpt>
<trkpt lat="53.0736971801" lon="-4.0652676318"><ele>711</ele><time>2010-01-01T10:31:50Z</time></trkpt>
<trkpt lat="53.0737018739" lon="-4.0652262252"><ele>711</ele><time>2010-01-01T10:31:57Z</time></trkpt>
<trkpt lat="53.0737048076" lon="-4.0652360320"><ele>709</ele><time>2010-01-01T10:32:09Z</time></trkpt>
<trkpt lat="53.0737082442" lon="-4.0651779455"><ele>710</ele><time>2010-01-01T10:32:14Z</time></trkpt>
<trkpt lat="53.0737161232" lon="-4.0650734231"><ele>711</ele><time>2010-01-01T10:32:22Z</time></trkpt>
<trkpt lat="53.0737234992" lon="-4.0649951361"><ele>711</ele><time>2010-01-01T10:32:30Z</time></trkpt>
<trkpt lat="53.0737275225" lon="-4.0649791267"><ele>709</ele><time>2010-01-01T10:32:47Z</time></trkpt>
<trkpt lat="53.0737292827" lon="-4.0649100598"><ele>710</ele><time>2010-01-01T10:32:52Z</time></trkpt>
<trkpt lat="53.0737436996" lon="-4.0648001731"><ele>712</ele><time>2010-01-01T10:32:59Z</time></trkpt>
<trkpt lat="53.0737525006" lon="-4.0647553299"><ele>712</ele><time>2010-01-01T10:33:04Z</time></trkpt>
<trkpt lat="53.0737618883" lon="-4.0647241492"><ele>712</ele><time>2010-01-01T10:33:08Z</time></trkpt>
<trkpt lat="53.0737679233" lon="-4.0646795575"><ele>713</ele><time>2010-01-01T10:33:13Z</time></trkpt>
<trkpt lat="53.0737740421" lon="-4.0645150207"><ele>713</ele><time>2010-01-01T10:33:24Z</time></trkpt>
<trkpt lat="53.0737851062" lon="-4.0645157751"><ele>712</ele><time>2010-01-01T10:33:29Z</time></trkpt>
<trkpt lat="53.0737920632" lon="-4.0644651484"><ele>712</ele><time>2010-01-01T10:33:33Z</time></trkpt>
<trkpt lat="53.0738026244" lon="-4.0643478018"><ele>712</ele><time>2010-01-01T10:33:42Z</time></trkpt>
<trkpt lat="53.0737928176" lon="-4.0643306189"><ele>708</ele><time>2010-01-01T10:33:48Z</time></trkpt>
<trkpt lat="53.0737852739" lon="-4.0642165412"><ele>708</ele><time>2010-01-01T10:33:56Z</time></trkpt>
<trkpt lat="53.0737919794" lon="-4.0640903935"><ele>708</ele><time>2010-01-01T10:34:04Z</time></trkpt>
<trkpt lat="53.0737900515" lon="-4.0640728753"><ele>704</ele><time>2010-01-01T10:34:22Z</time></trkpt>
<trkpt lat="53.0737739583" lon="-4.0639716219"><ele>704</ele><time>2010-01-01T10:34:30Z</time></trkpt>
<trkpt lat="53.0737675042" lon="-4.0638313927"><ele>706</ele><time>2010-01-01T10:34:40Z</time></trkpt>
<trkpt lat="53.0737551828" lon="-4.0637061671"><ele>707</ele><time>2010-01-01T10:34:50Z</time></trkpt>
<trkpt lat="53.0737532550" lon="-4.0636633355"><ele>707</ele><time>2010-01-01T10:34:59Z</time></trkpt>
<trkpt lat="53.0737499860" lon="-4.0635915865"><ele>707</ele><time>2010-01-01T10:35:05Z</time></trkpt>
<trkpt lat="53.0737480582" lon="-4.0635482520"><ele>708</ele><time>2010-01-01T10:35:11Z</time></trkpt>
<trkpt lat="53.0737396763" lon="-4.0634523630"><ele>710</ele><time>2010-01-01T10:35:20Z</time></trkpt>
<trkpt lat="53.0737291989" lon="-4.0633460805"><ele>708</ele><time>2010-01-01T10:35:29Z</time></trkpt>
<trkpt lat="53.0736999461" lon="-4.0632583220"><ele>706</ele><time>2010-01-01T10:35:38Z</time></trkpt>
<trkpt lat="53.0736739622" lon="-4.0631771852"><ele>707</ele><time>2010-01-01T10:35:46Z</time></trkpt>
<trkpt lat="53.0736322203" lon="-4.0630864930"><ele>704</ele><time>2010-01-01T10:35:55Z</time></trkpt>
<trkpt lat="53.0736267721" lon="-4.0630335193"><ele>704</ele><time>2010-01-01T10:36:02Z</time></trkpt>
<trkpt lat="53.0736018778" lon="-4.0629391391"><ele>703</ele><time>2010-01-01T10:36:11Z</time></trkpt>
<trkpt lat="53.0735621476" lon="-4.0628470220"><ele>701</ele><time>2010-01-01T10:36:20Z</time></trkpt>
<trkpt lat="53.0735276142" lon="-4.0627745185"><ele>700</ele><time>2010-01-01T10:36:28Z</time></trkpt>
<trkpt lat="53.0735051507" lon="-4.0627359618"><ele>700</ele><time>2010-01-01T10:36:34Z</time></trkpt>
<trkpt lat="53.0735018817" lon="-4.0627544858"><ele>699</ele><time>2010-01-01T10:36:48Z</time></trkpt>
<trkpt lat="53.0734686894" lon="-4.0626980756"><ele>699</ele><time>2010-01-01T10:37:10Z</time></trkpt>
<trkpt lat="53.0734303841" lon="-4.0626367200"><ele>699</ele><time>2010-01-01T10:37:18Z</time></trkpt>
<trkpt lat="53.0733965212" lon="-4.0626036953"><ele>697</ele><time>2010-01-01T10:37:28Z</time></trkpt>
<trkpt lat="53.0733354171" lon="-4.0625208821"><ele>697</ele><time>2010-01-01T10:37:36Z</time></trkpt>
<trkpt lat="53.0733179828" lon="-4.0625000950"><ele>697</ele><time>2010-01-01T10:37:38Z</time></trkpt>
<trkpt lat="53.0732392767" lon="-4.0624103248"><ele>697</ele><time>2010-01-01T10:37:48Z</time></trkpt>
<trkpt lat="53.0731728920" lon="-4.0623870232"><ele>696</ele><time>2010-01-01T10:37:56Z</time></trkpt>
<trkpt lat="53.0731138834" lon="-4.0623927228"><ele>695</ele><time>2010-01-01T10:38:04Z</time></trkpt>
<trkpt lat="53.0730603231" lon="-4.0623935610"><ele>694</ele><time>2010-01-01T10:38:11Z</time></trkpt>
<trkpt lat="53.0730020688" lon="-4.0623542499"><ele>694</ele><time>2010-01-01T10:38:18Z</time></trkpt>
<trkpt lat="53.0729809464" lon="-4.0623707623"><ele>693</ele><time>2010-01-01T10:38:23Z</time></trkpt>
<trkpt lat="53.0729438984" lon="-4.0623956565"><ele>692</ele><time>2010-01-01T10:38:30Z</time></trkpt>
<trkpt lat="53.0728882426" lon="-4.0623462871"><ele>691</ele><time>2010-01-01T10:38:37Z</time></trkpt>
<trkpt lat="53.0728765079" lon="-4.0623269249"><ele>691</ele><time>2010-01-01T10:38:45Z</time></trkpt>
<trkpt lat="53.0728433156" lon="-4.0622781422"><ele>690</ele><time>2010-01-01T10:38:56Z</time></trkpt>
<trkpt lat="53.0727832173" lon="-4.0622134339"><ele>688</ele><time>2010-01-01T10:39:05Z</time></trkpt>
<trkpt lat="53.0727236220" lon="-4.0621362366"><ele>687</ele><time>2010-01-01T10:39:14Z</time></trkpt>
<trkpt lat="53.0726694749" lon="-4.0620250926"><ele>688</ele><time>2010-01-01T10:39:24Z</time></trkpt>
<trkpt lat="53.0726340195" lon="-4.0619718675"><ele>688</ele><time>2010-01-01T10:39:31Z</time></trkpt>
<trkpt lat="53.0725617675" lon="-4.0619003699"><ele>687</ele><time>2010-01-01T10:39:41Z</time></trkpt>
<trkpt lat="53.0725032618" lon="-4.0618296266"><ele>687</ele><time>2010-01-01T10:39:50Z</time></trkpt>
<trkpt lat="53.0724538924" lon="-4.0617724620"><ele>686</ele><time>2010-01-01T10:39:57Z</time></trkpt>
<trkpt lat="53.0724161738" lon="-4.0617315583"><ele>687</ele><time>2010-01-01T10:40:04Z</time></trkpt>
<trkpt lat="53.0723576681" lon="-4.0616652575"><ele>688</ele><time>2010-01-01T10:40:13Z</time></trkpt>
<trkpt lat="53.0723326900" lon="-4.0616206657"><ele>688</ele><time>2010-01-01T10:40:20Z</time></trkpt>
<trkpt lat="53.0723302593" lon="-4.0616122838"><ele>689</ele><time>2010-01-01T10:40:33Z</time></trkpt>
<trkpt lat="53.0723260683" lon="-4.0615937598"><ele>689</ele><time>2010-01-01T10:40:40Z</time></trkpt>
<trkpt lat="53.0723218774" lon="-4.0615649261"><ele>690</ele><time>2010-01-01T10:40:47Z</time></trkpt>
<trkpt lat="53.0723181055" lon="-4.0615433846"><ele>690</ele><time>2010-01-01T10:40:54Z</time></trkpt>
<trkpt lat="53.0723082987" lon="-4.0615102761"><ele>693</ele><time>2010-01-01T10:41:01Z</time></trkpt>
<trkpt lat="53.0722937980" lon="-4.0614741501"><ele>695</ele><time>2010-01-01T10:41:09Z</time></trkpt>
<trkpt lat="53.0722849132" lon="-4.0614307318"><ele>694</ele><time>2010-01-01T10:41:15Z</time></trkpt>
<trkpt lat="53.0722821472" lon="-4.0613836255"><ele>695</ele><time>2010-01-01T10:41:27Z</time></trkpt>
<trkpt lat="53.0722787944" lon="-4.0613437277"><ele>696</ele><time>2010-01-01T10:41:33Z</time></trkpt>
<trkpt lat="53.0722559118" lon="-4.0612619203"><ele>697</ele><time>2010-01-01T10:41:41Z</time></trkpt>
<trkpt lat="53.0722344541" lon="-4.0612216872"><ele>696</ele><time>2010-01-01T10:41:49Z</time></trkpt>
<trkpt lat="53.0722280839" lon="-4.0612022411"><ele>695</ele><time>2010-01-01T10:42:14Z</time></trkpt>
<trkpt lat="53.0722171036" lon="-4.0611450766"><ele>694</ele><time>2010-01-01T10:42:36Z</time></trkpt>
<trkpt lat="53.0722052013" lon="-4.0610550549"><ele>690</ele><time>2010-01-01T10:42:45Z</time></trkpt>
<trkpt lat="53.0722202049" lon="-4.0609906819"><ele>690</ele><time>2010-01-01T10:42:51Z</time></trkpt>
<trkpt lat="53.0722297603" lon="-4.0609077849"><ele>689</ele><time>2010-01-01T10:42:59Z</time></trkpt>
<trkpt lat="53.0722287544" lon="-4.0608785320"><ele>689</ele><time>2010-01-01T10:43:06Z</time></trkpt>
<trkpt lat="53.0722310176" lon="-4.0608323477"><ele>687</ele><time>2010-01-01T10:43:12Z</time></trkpt>
<trkpt lat="53.0722378069" lon="-4.0608033464"><ele>686</ele><time>2010-01-01T10:43:17Z</time></trkpt>
<trkpt lat="53.0722467755" lon="-4.0607172642"><ele>686</ele><time>2010-01-01T10:43:25Z</time></trkpt>
<trkpt lat="53.0722565824" lon="-4.0606838204"><ele>686</ele><time>2010-01-01T10:43:32Z</time></trkpt>
<trkpt lat="53.0722632879" lon="-4.0606458504"><ele>684</ele><time>2010-01-01T10:43:39Z</time></trkpt>
<trkpt lat="53.0722778724" lon="-4.0605889373"><ele>683</ele><time>2010-01-01T10:43:45Z</time></trkpt>
<trkpt lat="53.0722952229" lon="-4.0605286714"><ele>683</ele><time>2010-01-01T10:43:50Z</time></trkpt>
<trkpt lat="53.0723176864" lon="-4.0604741890"><ele>683</ele><time>2010-01-01T10:43:55Z</time></trkpt>
<trkpt lat="53.0723512979" lon="-4.0604147613"><ele>684</ele><time>2010-01-01T10:44:02Z</time></trkpt>
<trkpt lat="53.0723662177" lon="-4.0603222251"><ele>683</ele><time>2010-01-01T10:44:11Z</time></trkpt>
<trkpt lat="53.0723623620" lon="-4.0602078960"><ele>682</ele><time>2010-01-01T10:44:20Z</time></trkpt>
<trkpt lat="53.0723663853" lon="-4.0601841752"><ele>681</ele><time>2010-01-01T10:44:25Z</time></trkpt>
<trkpt lat="53.0723641222" lon="-4.0600873642"><ele>679</ele><time>2010-01-01T10:44:35Z</time></trkpt>
<trkpt lat="53.0723548183" lon="-4.0600250867"><ele>678</ele><time>2010-01-01T10:44:41Z</time></trkpt>
<trkpt lat="53.0723845740" lon="-4.0598986876"><ele>677</ele><time>2010-01-01T10:44:50Z</time></trkpt>
<trkpt lat="53.0724186045" lon="-4.0598190595"><ele>676</ele><time>2010-01-01T10:44:56Z</time></trkpt>
<trkpt lat="53.0724646212" lon="-4.0597172194"><ele>676</ele><time>2010-01-01T10:45:05Z</time></trkpt>
<trkpt lat="53.0724939579" lon="-4.0596040637"><ele>676</ele><time>2010-01-01T10:45:13Z</time></trkpt>
<trkpt lat="53.0725348615" lon="-4.0595377628"><ele>674</ele><time>2010-01-01T10:45:21Z</time></trkpt>
<trkpt lat="53.0725601749" lon="-4.0594509263"><ele>675</ele><time>2010-01-01T10:45:29Z</time></trkpt>
<trkpt lat="53.0725757652" lon="-4.0593927559"><ele>675</ele><time>2010-01-01T10:45:35Z</time></trkpt>
<trkpt lat="53.0725942892" lon="-4.0593585577"><ele>674</ele><time>2010-01-01T10:45:41Z</time></trkpt>
<trkpt lat="53.0726011624" lon="-4.0593729746"><ele>672</ele><time>2010-01-01T10:45:52Z</time></trkpt>
<trkpt lat="53.0725941216" lon="-4.0593639221"><ele>671</ele><time>2010-01-01T10:46:24Z</time></trkpt>
<trkpt lat="53.0725933672" lon="-4.0593637545"><ele>671</ele><time>2010-01-01T10:46:48Z</time></trkpt>
<trkpt lat="53.0725960494" lon="-4.0592886526"><ele>670</ele><time>2010-01-01T10:46:57Z</time></trkpt>
<trkpt lat="53.0725846500" lon="-4.0591866449"><ele>669</ele><time>2010-01-01T10:47:05Z</time></trkpt>
<trkpt lat="53.0725988155" lon="-4.0590848886"><ele>667</ele><time>2010-01-01T10:47:13Z</time></trkpt>
<trkpt lat="53.0725869970" lon="-4.0589691345"><ele>666</ele><time>2010-01-01T10:47:21Z</time></trkpt>
<trkpt lat="53.0725838957" lon="-4.0588128958"><ele>666</ele><time>2010-01-01T10:47:31Z</time></trkpt>
<trkpt lat="53.0726010786" lon="-4.0587596707"><ele>665</ele><time>2010-01-01T10:47:37Z</time></trkpt>
<trkpt lat="53.0726177586" lon="-4.0586924479"><ele>665</ele><time>2010-01-01T10:47:50Z</time></trkpt>
<trkpt lat="53.0726247155" lon="-4.0586039350"><ele>665</ele><time>2010-01-01T10:47:57Z</time></trkpt>
<trkpt lat="53.0726159145" lon="-4.0585462675"><ele>664</ele><time>2010-01-01T10:48:08Z</time></trkpt>
<trkpt lat="53.0725972229" lon="-4.0584477801"><ele>663</ele><time>2010-01-01T10:48:15Z</time></trkpt>
<trkpt lat="53.0725693112" lon="-4.0583542381"><ele>660</ele><time>2010-01-01T10:48:23Z</time></trkpt>
<trkpt lat="53.0725569898" lon="-4.0582934693"><ele>660</ele><time>2010-01-01T10:48:30Z</time></trkpt>
<trkpt lat="53.0725602587" lon="-4.0582043696"><ele>660</ele><time>2010-01-01T10:48:37Z</time></trkpt>
<trkpt lat="53.0725678024" lon="-4.0581133422"><ele>660</ele><time>2010-01-01T10:48:42Z</time></trkpt>
<trkpt lat="53.0725968876" lon="-4.0580151901"><ele>659</ele><time>2010-01-01T10:48:50Z</time></trkpt>
<trkpt lat="53.0726124780" lon="-4.0579292756"><ele>659</ele><time>2010-01-01T10:48:57Z</time></trkpt>
<trkpt lat="53.0726328460" lon="-4.0579220671"><ele>660</ele><time>2010-01-01T10:49:04Z</time></trkpt>
<trkpt lat="53.0726450836" lon="-4.0579100810"><ele>661</ele><time>2010-01-01T10:49:10Z</time></trkpt>
<trkpt lat="53.0726545551" lon="-4.0578965862"><ele>661</ele><time>2010-01-01T10:49:16Z</time></trkpt>
<trkpt lat="53.0726693073" lon="-4.0578699317"><ele>658</ele><time>2010-01-01T10:49:23Z</time></trkpt>
<trkpt lat="53.0726674633" lon="-4.0578214005"><ele>658</ele><time>2010-01-01T10:49:30Z</time></trkpt>
<trkpt lat="53.0726615959" lon="-4.0577700194"><ele>660</ele><time>2010-01-01T10:49:36Z</time></trkpt>
<trkpt lat="53.0726600034" lon="-4.0577193927"><ele>661</ele><time>2010-01-01T10:49:44Z</time></trkpt>
<trkpt lat="53.0726462570" lon="-4.0576038901"><ele>662</ele><time>2010-01-01T10:49:53Z</time></trkpt>
<trkpt lat="53.0726284036" lon="-4.0574831907"><ele>663</ele><time>2010-01-01T10:50:01Z</time></trkpt>
<trkpt lat="53.0726017491" lon="-4.0573842842"><ele>663</ele><time>2010-01-01T10:50:09Z</time></trkpt>
<trkpt lat="53.0725748432" lon="-4.0572606512"><ele>664</ele><time>2010-01-01T10:50:18Z</time></trkpt>
<trkpt lat="53.0725770225" lon="-4.0572320689"><ele>665</ele><time>2010-01-01T10:50:25Z</time></trkpt>
<trkpt lat="53.0725879190" lon="-4.0572454799"><ele>662</ele><time>2010-01-01T10:50:32Z</time></trkpt>
<trkpt lat="53.0726004080" lon="-4.0572745651"><ele>658</ele><time>2010-01-01T10:51:57Z</time></trkpt>
<trkpt lat="53.0725786151" lon="-4.0572622437"><ele>659</ele><time>2010-01-01T10:52:24Z</time></trkpt>
<trkpt lat="53.0725687244" lon="-4.0572462343"><ele>660</ele><time>2010-01-01T10:52:31Z</time></trkpt>
<trkpt lat="53.0725626056" lon="-4.0571128782"><ele>674</ele><time>2010-01-01T10:54:35Z</time></trkpt>
<trkpt lat="53.0725813811" lon="-4.0570715554"><ele>667</ele><time>2010-01-01T10:54:43Z</time></trkpt>
<trkpt lat="53.0726029226" lon="-4.0571143870"><ele>655</ele><time>2010-01-01T10:54:53Z</time></trkpt>
<trkpt lat="53.0726017491" lon="-4.0570763331"><ele>656</ele><time>2010-01-01T10:54:58Z</time></trkpt>
<trkpt lat="53.0725962171" lon="-4.0569986329"><ele>659</ele><time>2010-01-01T10:55:10Z</time></trkpt>
<trkpt lat="53.0726087061" lon="-4.0569006484"><ele>660</ele><time>2010-01-01T10:55:17Z</time></trkpt>
<trkpt lat="53.0726247994" lon="-4.0567920190"><ele>662</ele><time>2010-01-01T10:55:25Z</time></trkpt>
<trkpt lat="53.0726299961" lon="-4.0567215272"><ele>663</ele><time>2010-01-01T10:55:30Z</time></trkpt>
<trkpt lat="53.0726314211" lon="-4.0565671325"><ele>666</ele><time>2010-01-01T10:55:39Z</time></trkpt>
<trkpt lat="53.0726372046" lon="-4.0564166773"><ele>667</ele><time>2010-01-01T10:55:48Z</time></trkpt>
<trkpt lat="53.0726524596" lon="-4.0563172680"><ele>668</ele><time>2010-01-01T10:55:56Z</time></trkpt>
<trkpt lat="53.0726506994" lon="-4.0562153440"><ele>668</ele><time>2010-01-01T10:56:03Z</time></trkpt>
<trkpt lat="53.0726372046" lon="-4.0560971592"><ele>670</ele><time>2010-01-01T10:56:11Z</time></trkpt>
<trkpt lat="53.0726465923" lon="-4.0560490471"><ele>670</ele><time>2010-01-01T10:56:18Z</time></trkpt>
<trkpt lat="53.0726454188" lon="-4.0559870210"><ele>669</ele><time>2010-01-01T10:56:26Z</time></trkpt>
<trkpt lat="53.0726292418" lon="-4.0558811575"><ele>669</ele><time>2010-01-01T10:56:34Z</time></trkpt>
<trkpt lat="53.0726118912" lon="-4.0557759647"><ele>671</ele><time>2010-01-01T10:56:41Z</time></trkpt>
<trkpt lat="53.0725818002" lon="-4.0556412675"><ele>669</ele><time>2010-01-01T10:56:50Z</time></trkpt>
<trkpt lat="53.0725777769" lon="-4.0555685964"><ele>667</ele><time>2010-01-01T10:56:56Z</time></trkpt>
<trkpt lat="53.0725346939" lon="-4.0555055645"><ele>664</ele><time>2010-01-01T10:57:04Z</time></trkpt>
<trkpt lat="53.0725318441" lon="-4.0554753896"><ele>664</ele><time>2010-01-01T10:57:10Z</time></trkpt>
<trkpt lat="53.0725212829" lon="-4.0554678459"><ele>663</ele><time>2010-01-01T10:57:23Z</time></trkpt>
<trkpt lat="53.0725082909" lon="-4.0554247629"><ele>664</ele><time>2010-01-01T10:57:28Z</time></trkpt>
<trkpt lat="53.0724642021" lon="-4.0553677660"><ele>661</ele><time>2010-01-01T10:57:37Z</time></trkpt>
<trkpt lat="53.0724299201" lon="-4.0553527624"><ele>659</ele><time>2010-01-01T10:57:44Z</time></trkpt>
<trkpt lat="53.0723606018" lon="-4.0552833602"><ele>659</ele><time>2010-01-01T10:57:53Z</time></trkpt>
<trkpt lat="53.0723198657" lon="-4.0552847851"><ele>659</ele><time>2010-01-01T10:57:59Z</time></trkpt>
<trkpt lat="53.0722870925" lon="-4.0552825220"><ele>659</ele><time>2010-01-01T10:58:05Z</time></trkpt>
<trkpt lat="53.0722451830" lon="-4.0552296322"><ele>659</ele><time>2010-01-01T10:58:12Z</time></trkpt>
<trkpt lat="53.0722627011" lon="-4.0551855434"><ele>659</ele><time>2010-01-01T10:58:17Z</time></trkpt>
<trkpt lat="53.0722627850" lon="-4.0550772492"><ele>660</ele><time>2010-01-01T10:58:24Z</time></trkpt>
<trkpt lat="53.0722533972" lon="-4.0550196655"><ele>660</ele><time>2010-01-01T10:58:27Z</time></trkpt>
<trkpt lat="53.0722503797" lon="-4.0549522750"><ele>660</ele><time>2010-01-01T10:58:31Z</time></trkpt>
<trkpt lat="53.0722507150" lon="-4.0548599903"><ele>662</ele><time>2010-01-01T10:58:36Z</time></trkpt>
<trkpt lat="53.0722678141" lon="-4.0547635984"><ele>661</ele><time>2010-01-01T10:58:44Z</time></trkpt>
<trkpt lat="53.0722785429" lon="-4.0546177533"><ele>662</ele><time>2010-01-01T10:58:53Z</time></trkpt>
<trkpt lat="53.0722807222" lon="-4.0545214452"><ele>662</ele><time>2010-01-01T10:58:59Z</time></trkpt>
<trkpt lat="53.0722965640" lon="-4.0543901008"><ele>663</ele><time>2010-01-01T10:59:07Z</time></trkpt>
<trkpt lat="53.0723028505" lon="-4.0543059465"><ele>663</ele><time>2010-01-01T10:59:14Z</time></trkpt>
<trkpt lat="53.0723043592" lon="-4.0542183556"><ele>662</ele><time>2010-01-01T10:59:21Z</time></trkpt>
<trkpt lat="53.0723030181" lon="-4.0541238915"><ele>661</ele><time>2010-01-01T10:59:28Z</time></trkpt>
<trkpt lat="53.0722978213" lon="-4.0541312676"><ele>660</ele><time>2010-01-01T10:59:34Z</time></trkpt>
<trkpt lat="53.0723007550" lon="-4.0540383961"><ele>665</ele><time>2010-01-01T11:00:21Z</time></trkpt>
<trkpt lat="53.0723131602" lon="-4.0539513920"><ele>665</ele><time>2010-01-01T11:00:28Z</time></trkpt>
<trkpt lat="53.0723209554" lon="-4.0538771283"><ele>664</ele><time>2010-01-01T11:00:33Z</time></trkpt>
<trkpt lat="53.0723315166" lon="-4.0537910462"><ele>663</ele><time>2010-01-01T11:00:39Z</time></trkpt>
<trkpt lat="53.0723496215" lon="-4.0536637251"><ele>663</ele><time>2010-01-01T11:00:47Z</time></trkpt>
<trkpt lat="53.0723790420" lon="-4.0535000265"><ele>663</ele><time>2010-01-01T11:00:56Z</time></trkpt>
<trkpt lat="53.0724025951" lon="-4.0534507409"><ele>659</ele><time>2010-01-01T11:01:00Z</time></trkpt>
<trkpt lat="53.0724800439" lon="-4.0533430334"><ele>658</ele><time>2010-01-01T11:01:10Z</time></trkpt>
<trkpt lat="53.0725296648" lon="-4.0532459710"><ele>656</ele><time>2010-01-01T11:01:18Z</time></trkpt>
<trkpt lat="53.0725993184" lon="-4.0531562008"><ele>654</ele><time>2010-01-01T11:01:27Z</time></trkpt>
<trkpt lat="53.0726814610" lon="-4.0531091783"><ele>651</ele><time>2010-01-01T11:01:37Z</time></trkpt>
<trkpt lat="53.0727284835" lon="-4.0530686938"><ele>650</ele><time>2010-01-01T11:01:46Z</time></trkpt>
<trkpt lat="53.0727689681" lon="-4.0530641675"><ele>649</ele><time>2010-01-01T11:01:59Z</time></trkpt>
<trkpt lat="53.0728315809" lon="-4.0530296341"><ele>647</ele><time>2010-01-01T11:02:05Z</time></trkpt>
<trkpt lat="53.0728983009" lon="-4.0529774986"><ele>644</ele><time>2010-01-01T11:02:13Z</time></trkpt>
<trkpt lat="53.0729652723" lon="-4.0528782569"><ele>639</ele><time>2010-01-01T11:02:23Z</time></trkpt>
<trkpt lat="53.0729749115" lon="-4.0528113693"><ele>638</ele><time>2010-01-01T11:02:28Z</time></trkpt>
<trkpt lat="53.0730274660" lon="-4.0527197551"><ele>638</ele><time>2010-01-01T11:02:36Z</time></trkpt>
<trkpt lat="53.0730731474" lon="-4.0526407976"><ele>639</ele><time>2010-01-01T11:02:44Z</time></trkpt>
<trkpt lat="53.0730982093" lon="-4.0525949486"><ele>637</ele><time>2010-01-01T11:02:51Z</time></trkpt>
<trkpt lat="53.0731371013" lon="-4.0525235348"><ele>635</ele><time>2010-01-01T11:02:58Z</time></trkpt>
<trkpt lat="53.0731881471" lon="-4.0523966328"><ele>635</ele><time>2010-01-01T11:03:07Z</time></trkpt>
<trkpt lat="53.0731957746" lon="-4.0523298290"><ele>636</ele><time>2010-01-01T11:03:16Z</time></trkpt>
<trkpt lat="53.0731938468" lon="-4.0522331018"><ele>642</ele><time>2010-01-01T11:03:49Z</time></trkpt>
<trkpt lat="53.0732134604" lon="-4.0521374643"><ele>639</ele><time>2010-01-01T11:03:57Z</time></trkpt>
<trkpt lat="53.0732128737" lon="-4.0520490352"><ele>636</ele><time>2010-01-01T11:04:05Z</time></trkpt>
<trkpt lat="53.0732230996" lon="-4.0519559961"><ele>634</ele><time>2010-01-01T11:04:12Z</time></trkpt>
<trkpt lat="53.0732137119" lon="-4.0518708360"><ele>630</ele><time>2010-01-01T11:04:19Z</time></trkpt>
<trkpt lat="53.0732070064" lon="-4.0517704208"><ele>629</ele><time>2010-01-01T11:04:26Z</time></trkpt>
<trkpt lat="53.0731987083" lon="-4.0516835004"><ele>628</ele><time>2010-01-01T11:04:33Z</time></trkpt>
<trkpt lat="53.0732080960" lon="-4.0516289342"><ele>626</ele><time>2010-01-01T11:04:38Z</time></trkpt>
<trkpt lat="53.0732411207" lon="-4.0515624658"><ele>626</ele><time>2010-01-01T11:04:46Z</time></trkpt>
<trkpt lat="53.0732568787" lon="-4.0515314527"><ele>627</ele><time>2010-01-01T11:04:52Z</time></trkpt>
<trkpt lat="53.0732801804" lon="-4.0515113361"><ele>626</ele><time>2010-01-01T11:05:00Z</time></trkpt>
<trkpt lat="53.0732904063" lon="-4.0514881183"><ele>627</ele><time>2010-01-01T11:05:07Z</time></trkpt>
<trkpt lat="53.0733018057" lon="-4.0514626373"><ele>626</ele><time>2010-01-01T11:05:13Z</time></trkpt>
<trkpt lat="53.0733000455" lon="-4.0513857752"><ele>625</ele><time>2010-01-01T11:05:20Z</time></trkpt>
<trkpt lat="53.0732988720" lon="-4.0513098352"><ele>624</ele><time>2010-01-01T11:05:27Z</time></trkpt>
<trkpt lat="53.0733017219" lon="-4.0512193945"><ele>623</ele><time>2010-01-01T11:05:35Z</time></trkpt>
<trkpt lat="53.0732870535" lon="-4.0511603859"><ele>619</ele><time>2010-01-01T11:05:42Z</time></trkpt>
<trkpt lat="53.0732785878" lon="-4.0510839429"><ele>617</ele><time>2010-01-01T11:05:50Z</time></trkpt>
<trkpt lat="53.0732682781" lon="-4.0510766506"><ele>614</ele><time>2010-01-01T11:05:55Z</time></trkpt>
<trkpt lat="53.0732495026" lon="-4.0510847811"><ele>612</ele><time>2010-01-01T11:06:04Z</time></trkpt>
<trkpt lat="53.0732485806" lon="-4.0510614794"><ele>611</ele><time>2010-01-01T11:06:11Z</time></trkpt>
<trkpt lat="53.0732474910" lon="-4.0510544386"><ele>612</ele><time>2010-01-01T11:06:20Z</time></trkpt>
<trkpt lat="53.0732389414" lon="-4.0510356631"><ele>614</ele><time>2010-01-01T11:06:40Z</time></trkpt>
<trkpt lat="53.0732238540" lon="-4.0510694422"><ele>610</ele><time>2010-01-01T11:08:38Z</time></trkpt>
<trkpt lat="53.0732350019" lon="-4.0510393512"><ele>616</ele><time>2010-01-01T11:09:30Z</time></trkpt>
<trkpt lat="53.0732440544" lon="-4.0509358347"><ele>622</ele><time>2010-01-01T11:10:03Z</time></trkpt>
<trkpt lat="53.0732567110" lon="-4.0508974456"><ele>621</ele><time>2010-01-01T11:10:08Z</time></trkpt>
<trkpt lat="53.0732477424" lon="-4.0508997925"><ele>618</ele><time>2010-01-01T11:10:14Z</time></trkpt>
<trkpt lat="53.0732546994" lon="-4.0508695338"><ele>615</ele><time>2010-01-01T11:10:19Z</time></trkpt>
<trkpt lat="53.0732382709" lon="-4.0508741439"><ele>613</ele><time>2010-01-01T11:10:25Z</time></trkpt>
<trkpt lat="53.0732295537" lon="-4.0508545302"><ele>612</ele><time>2010-01-01T11:10:31Z</time></trkpt>
<trkpt lat="53.0732268715" lon="-4.0508059990"><ele>611</ele><time>2010-01-01T11:10:38Z</time></trkpt>
<trkpt lat="53.0732320682" lon="-4.0507413745"><ele>609</ele><time>2010-01-01T11:10:46Z</time></trkpt>
<trkpt lat="53.0732339961" lon="-4.0506918375"><ele>611</ele><time>2010-01-01T11:10:54Z</time></trkpt>
<trkpt lat="53.0732332417" lon="-4.0507131275"><ele>609</ele><time>2010-01-01T11:11:01Z</time></trkpt>
<trkpt lat="53.0732212556" lon="-4.0507217609"><ele>609</ele><time>2010-01-01T11:11:13Z</time></trkpt>
<trkpt lat="53.0732059167" lon="-4.0506906640"><ele>609</ele><time>2010-01-01T11:11:20Z</time></trkpt>
<trkpt lat="53.0732373488" lon="-4.0505694617"><ele>607</ele><time>2010-01-01T11:11:29Z</time></trkpt>
<trkpt lat="53.0732464851" lon="-4.0505193379"><ele>606</ele><time>2010-01-01T11:11:35Z</time></trkpt>
<trkpt lat="53.0733066672" lon="-4.0504353512"><ele>603</ele><time>2010-01-01T11:11:43Z</time></trkpt>
<trkpt lat="53.0733316453" lon="-4.0503986385"><ele>603</ele><time>2010-01-01T11:11:46Z</time></trkpt>
<trkpt lat="53.0733899833" lon="-4.0503140651"><ele>601</ele><time>2010-01-01T11:11:54Z</time></trkpt>
<trkpt lat="53.0734049031" lon="-4.0502888356"><ele>601</ele><time>2010-01-01T11:11:56Z</time></trkpt>
<trkpt lat="53.0734448010" lon="-4.0501969699"><ele>598</ele><time>2010-01-01T11:12:02Z</time></trkpt>
<trkpt lat="53.0734950086" lon="-4.0501027573"><ele>594</ele><time>2010-01-01T11:12:10Z</time></trkpt>
<trkpt lat="53.0735287876" lon="-4.0500438325"><ele>590</ele><time>2010-01-01T11:12:16Z</time></trkpt>
<trkpt lat="53.0735413605" lon="-4.0499366280"><ele>589</ele><time>2010-01-01T11:12:23Z</time></trkpt>
<trkpt lat="53.0735940826" lon="-4.0498357937"><ele>587</ele><time>2010-01-01T11:12:31Z</time></trkpt>
<trkpt lat="53.0736529236" lon="-4.0497380607"><ele>585</ele><time>2010-01-01T11:12:39Z</time></trkpt>
<trkpt lat="53.0737019577" lon="-4.0496006813"><ele>584</ele><time>2010-01-01T11:12:48Z</time></trkpt>
<trkpt lat="53.0737309591" lon="-4.0495084804"><ele>587</ele><time>2010-01-01T11:12:55Z</time></trkpt>
<trkpt lat="53.0737090824" lon="-4.0495247413"><ele>590</ele><time>2010-01-01T11:13:05Z</time></trkpt>
<trkpt lat="53.0737029636" lon="-4.0495043732"><ele>592</ele><time>2010-01-01T11:13:15Z</time></trkpt>
<trkpt lat="53.0737060649" lon="-4.0494782217"><ele>594</ele><time>2010-01-01T11:14:05Z</time></trkpt>
<trkpt lat="53.0737111778" lon="-4.0494763777"><ele>592</ele><time>2010-01-01T11:14:12Z</time></trkpt>
<trkpt lat="53.0736963419" lon="-4.0495045409"><ele>592</ele><time>2010-01-01T11:14:20Z</time></trkpt>
<trkpt lat="53.0736773988" lon="-4.0495165270"><ele>592</ele><time>2010-01-01T11:14:28Z</time></trkpt>
<trkpt lat="53.0736779017" lon="-4.0495354701"><ele>587</ele><time>2010-01-01T11:14:55Z</time></trkpt>
<trkpt lat="53.0736965095" lon="-4.0495190416"><ele>586</ele><time>2010-01-01T11:15:01Z</time></trkpt>
<trkpt lat="53.0737091662" lon="-4.0495047923"><ele>586</ele><time>2010-01-01T11:15:17Z</time></trkpt>
<trkpt lat="53.0737137762" lon="-4.0494833347"><ele>587</ele><time>2010-01-01T11:15:32Z</time></trkpt>
<trkpt lat="53.0737322164" lon="-4.0494252481"><ele>586</ele><time>2010-01-01T11:15:43Z</time></trkpt>
<trkpt lat="53.0737608825" lon="-4.0493060574"><ele>586</ele><time>2010-01-01T11:15:52Z</time></trkpt>
<trkpt lat="53.0738059772" lon="-4.0492048878"><ele>585</ele><time>2010-01-01T11:16:01Z</time></trkpt>
<trkpt lat="53.0738513233" lon="-4.0490960907"><ele>584</ele><time>2010-01-01T11:16:09Z</time></trkpt>
<trkpt lat="53.0738607110" lon="-4.0490687657"><ele>583</ele><time>2010-01-01T11:16:11Z</time></trkpt>
<trkpt lat="53.0738878684" lon="-4.0488949251"><ele>582</ele><time>2010-01-01T11:16:20Z</time></trkpt>
<trkpt lat="53.0739333821" lon="-4.0488217511"><ele>580</ele><time>2010-01-01T11:16:26Z</time></trkpt>
<trkpt lat="53.0740199671" lon="-4.0487231799"><ele>576</ele><time>2010-01-01T11:16:36Z</time></trkpt>
<trkpt lat="53.0740664029" lon="-4.0486604832"><ele>573</ele><time>2010-01-01T11:16:43Z</time></trkpt>
<trkpt lat="53.0741291833" lon="-4.0485311505"><ele>569</ele><time>2010-01-01T11:16:52Z</time></trkpt>
<trkpt lat="53.0742192050" lon="-4.0484076850"><ele>567</ele><time>2010-01-01T11:17:02Z</time></trkpt>
<trkpt lat="53.0742968214" lon="-4.0483418871"><ele>568</ele><time>2010-01-01T11:17:10Z</time></trkpt>
<trkpt lat="53.0743560815" lon="-4.0482571461"><ele>571</ele><time>2010-01-01T11:17:17Z</time></trkpt>
<trkpt lat="53.0744373859" lon="-4.0481632687"><ele>570</ele><time>2010-01-01T11:17:26Z</time></trkpt>
<trkpt lat="53.0745022619" lon="-4.0480909329"><ele>569</ele><time>2010-01-01T11:17:34Z</time></trkpt>
<trkpt lat="53.0745522180" lon="-4.0479658749"><ele>566</ele><time>2010-01-01T11:17:42Z</time></trkpt>
<trkpt lat="53.0746254758" lon="-4.0478658788"><ele>568</ele><time>2010-01-01T11:17:50Z</time></trkpt>
<trkpt lat="53.0746862446" lon="-4.0477282480"><ele>566</ele><time>2010-01-01T11:17:59Z</time></trkpt>
<trkpt lat="53.0747419843" lon="-4.0475678183"><ele>564</ele><time>2010-01-01T11:18:08Z</time></trkpt>
<trkpt lat="53.0747636096" lon="-4.0474969913"><ele>564</ele><time>2010-01-01T11:18:15Z</time></trkpt>
<trkpt lat="53.0747393021" lon="-4.0474635475"><ele>577</ele><time>2010-01-01T11:18:44Z</time></trkpt>
<trkpt lat="53.0747846482" lon="-4.0474266671"><ele>574</ele><time>2010-01-01T11:19:17Z</time></trkpt>
<trkpt lat="53.0748439920" lon="-4.0473530740"><ele>573</ele><time>2010-01-01T11:19:26Z</time></trkpt>
<trkpt lat="53.0748540503" lon="-4.0472776368"><ele>572</ele><time>2010-01-01T11:19:32Z</time></trkpt>
<trkpt lat="53.0748597500" lon="-4.0471801553"><ele>573</ele><time>2010-01-01T11:19:39Z</time></trkpt>
<trkpt lat="53.0748755080" lon="-4.0470308736"><ele>570</ele><time>2010-01-01T11:19:48Z</time></trkpt>
<trkpt lat="53.0749109635" lon="-4.0469555203"><ele>568</ele><time>2010-01-01T11:19:55Z</time></trkpt>
<trkpt lat="53.0749092033" lon="-4.0469116830"><ele>566</ele><time>2010-01-01T11:20:00Z</time></trkpt>
<trkpt lat="53.0748990612" lon="-4.0468600504"><ele>564</ele><time>2010-01-01T11:20:06Z</time></trkpt>
<trkpt lat="53.0749273920" lon="-4.0467820987"><ele>562</ele><time>2010-01-01T11:20:13Z</time></trkpt>
<trkpt lat="53.0749248774" lon="-4.0466823541"><ele>564</ele><time>2010-01-01T11:20:20Z</time></trkpt>
<trkpt lat="53.0749514480" lon="-4.0465862975"><ele>562</ele><time>2010-01-01T11:20:28Z</time></trkpt>
<trkpt lat="53.0750150667" lon="-4.0464477446"><ele>558</ele><time>2010-01-01T11:20:38Z</time></trkpt>
<trkpt lat="53.0750495163" lon="-4.0463468265"><ele>555</ele><time>2010-01-01T11:20:46Z</time></trkpt>
<trkpt lat="53.0750915096" lon="-4.0462796875"><ele>554</ele><time>2010-01-01T11:20:53Z</time></trkpt>
<trkpt lat="53.0751337544" lon="-4.0461473372"><ele>554</ele><time>2010-01-01T11:21:03Z</time></trkpt>
<trkpt lat="53.0751708863" lon="-4.0460397974"><ele>553</ele><time>2010-01-01T11:21:12Z</time></trkpt>
<trkpt lat="53.0751866443" lon="-4.0459393822"><ele>555</ele><time>2010-01-01T11:21:18Z</time></trkpt>
<trkpt lat="53.0752109518" lon="-4.0457915254"><ele>558</ele><time>2010-01-01T11:21:27Z</time></trkpt>
<trkpt lat="53.0752386120" lon="-4.0456344485"><ele>557</ele><time>2010-01-01T11:21:37Z</time></trkpt>
<trkpt lat="53.0752583095" lon="-4.0454469454"><ele>561</ele><time>2010-01-01T11:21:46Z</time></trkpt>
<trkpt lat="53.0752890711" lon="-4.0453416687"><ele>557</ele><time>2010-01-01T11:21:54Z</time></trkpt>
<trkpt lat="53.0753556234" lon="-4.0451844242"><ele>556</ele><time>2010-01-01T11:22:05Z</time></trkpt>
<trkpt lat="53.0754542784" lon="-4.0450670775"><ele>556</ele><time>2010-01-01T11:22:16Z</time></trkpt>
<trkpt lat="53.0755178971" lon="-4.0449644830"><ele>556</ele><time>2010-01-01T11:22:24Z</time></trkpt>
<trkpt lat="53.0755696972" lon="-4.0448542610"><ele>558</ele><time>2010-01-01T11:22:32Z</time></trkpt>
<trkpt lat="53.0756405243" lon="-4.0447850265"><ele>557</ele><time>2010-01-01T11:22:39Z</time></trkpt>
<trkpt lat="53.0757132792" lon="-4.0447271913"><ele>556</ele><time>2010-01-01T11:22:47Z</time></trkpt>
<trkpt lat="53.0757620619" lon="-4.0446365830"><ele>555</ele><time>2010-01-01T11:22:55Z</time></trkpt>
<trkpt lat="53.0757947513" lon="-4.0445285402"><ele>554</ele><time>2010-01-01T11:23:02Z</time></trkpt>
<trkpt lat="53.0758397621" lon="-4.0443845391"><ele>552</ele><time>2010-01-01T11:23:11Z</time></trkpt>
<trkpt lat="53.0758853597" lon="-4.0442908295"><ele>553</ele><time>2010-01-01T11:23:18Z</time></trkpt>
<trkpt lat="53.0759436977" lon="-4.0442346707"><ele>552</ele><time>2010-01-01T11:23:25Z</time></trkpt>
<trkpt lat="53.0760415146" lon="-4.0441422183"><ele>556</ele><time>2010-01-01T11:23:35Z</time></trkpt>
<trkpt lat="53.0760754613" lon="-4.0441053380"><ele>556</ele><time>2010-01-01T11:23:41Z</time></trkpt>
<trkpt lat="53.0761242439" lon="-4.0440455750"><ele>557</ele><time>2010-01-01T11:23:48Z</time></trkpt>
<trkpt lat="53.0762079792" lon="-4.0439760890"><ele>557</ele><time>2010-01-01T11:23:57Z</time></trkpt>
<trkpt lat="53.0762627968" lon="-4.0438785237"><ele>554</ele><time>2010-01-01T11:24:05Z</time></trkpt>
<trkpt lat="53.0762946480" lon="-4.0437996499"><ele>553</ele><time>2010-01-01T11:24:14Z</time></trkpt>
<trkpt lat="53.0763166924" lon="-4.0437114723"><ele>552</ele><time>2010-01-01T11:24:22Z</time></trkpt>
<trkpt lat="53.0763534052" lon="-4.0436255578"><ele>551</ele><time>2010-01-01T11:24:29Z</time></trkpt>
<trkpt lat="53.0763766230" lon="-4.0435585864"><ele>548</ele><time>2010-01-01T11:24:36Z</time></trkpt>
<trkpt lat="53.0764021878" lon="-4.0434922856"><ele>547</ele><time>2010-01-01T11:24:42Z</time></trkpt>
<trkpt lat="53.0764473663" lon="-4.0433839914"><ele>547</ele><time>2010-01-01T11:24:51Z</time></trkpt>
<trkpt lat="53.0764875156" lon="-4.0432969872"><ele>548</ele><time>2010-01-01T11:24:59Z</time></trkpt>
<trkpt lat="53.0765004238" lon="-4.0432473663"><ele>548</ele><time>2010-01-01T11:25:05Z</time></trkpt>
<trkpt lat="53.0765201212" lon="-4.0431950633"><ele>549</ele><time>2010-01-01T11:25:11Z</time></trkpt>
<trkpt lat="53.0765378070" lon="-4.0431356356"><ele>552</ele><time>2010-01-01T11:25:18Z</time></trkpt>
<trkpt lat="53.0765483682" lon="-4.0430704244"><ele>553</ele><time>2010-01-01T11:25:24Z</time></trkpt>
<trkpt lat="53.0765530621" lon="-4.0429410916"><ele>558</ele><time>2010-01-01T11:25:30Z</time></trkpt>
<trkpt lat="53.0765756932" lon="-4.0428101663"><ele>559</ele><time>2010-01-01T11:25:39Z</time></trkpt>
<trkpt lat="53.0765987435" lon="-4.0426476412"><ele>560</ele><time>2010-01-01T11:25:49Z</time></trkpt>
<trkpt lat="53.0766198659" lon="-4.0424966831"><ele>561</ele><time>2010-01-01T11:25:58Z</time></trkpt>
<trkpt lat="53.0766580874" lon="-4.0423491616"><ele>562</ele><time>2010-01-01T11:26:07Z</time></trkpt>
<trkpt lat="53.0766767790" lon="-4.0422756523"><ele>559</ele><time>2010-01-01T11:26:13Z</time></trkpt>
<trkpt lat="53.0767064509" lon="-4.0421804339"><ele>559</ele><time>2010-01-01T11:26:20Z</time></trkpt>
<trkpt lat="53.0767753502" lon="-4.0420296435"><ele>560</ele><time>2010-01-01T11:26:31Z</time></trkpt>
<trkpt lat="53.0768362866" lon="-4.0419312399"><ele>560</ele><time>2010-01-01T11:26:40Z</time></trkpt>
<trkpt lat="53.0768426569" lon="-4.0418812838"><ele>563</ele><time>2010-01-01T11:26:47Z</time></trkpt>
<trkpt lat="53.0768444171" lon="-4.0418395419"><ele>563</ele><time>2010-01-01T11:26:54Z</time></trkpt>
<trkpt lat="53.0768755139" lon="-4.0417972971"><ele>563</ele><time>2010-01-01T11:27:00Z</time></trkpt>
<trkpt lat="53.0768908528" lon="-4.0417491012"><ele>565</ele><time>2010-01-01T11:27:06Z</time></trkpt>
<trkpt lat="53.0769227879" lon="-4.0417033360"><ele>567</ele><time>2010-01-01T11:27:13Z</time></trkpt>
<trkpt lat="53.0769569860" lon="-4.0416761786"><ele>569</ele><time>2010-01-01T11:27:20Z</time></trkpt>
<trkpt lat="53.0769884182" lon="-4.0416636896"><ele>571</ele><time>2010-01-01T11:27:26Z</time></trkpt>
<trkpt lat="53.0770839719" lon="-4.0416241270"><ele>570</ele><time>2010-01-01T11:27:36Z</time></trkpt>
<trkpt lat="53.0771485125" lon="-4.0415508691"><ele>569</ele><time>2010-01-01T11:27:43Z</time></trkpt>
<trkpt lat="53.0771899191" lon="-4.0414861608"><ele>568</ele><time>2010-01-01T11:27:49Z</time></trkpt>
<trkpt lat="53.0772342594" lon="-4.0413856618"><ele>567</ele><time>2010-01-01T11:27:57Z</time></trkpt>
<trkpt lat="53.0772650210" lon="-4.0412845761"><ele>567</ele><time>2010-01-01T11:28:06Z</time></trkpt>
<trkpt lat="53.0772761689" lon="-4.0412533954"><ele>567</ele><time>2010-01-01T11:28:12Z</time></trkpt>
<trkpt lat="53.0773045835" lon="-4.0412104801"><ele>567</ele><time>2010-01-01T11:28:19Z</time></trkpt>
<trkpt lat="53.0773067628" lon="-4.0412044451"><ele>567</ele><time>2010-01-01T11:28:27Z</time></trkpt>
<trkpt lat="53.0773231914" lon="-4.0411840771"><ele>568</ele><time>2010-01-01T11:28:46Z</time></trkpt>
<trkpt lat="53.0773594012" lon="-4.0411161836"><ele>567</ele><time>2010-01-01T11:28:53Z</time></trkpt>
<trkpt lat="53.0774078486" lon="-4.0410193727"><ele>565</ele><time>2010-01-01T11:29:01Z</time></trkpt>
<trkpt lat="53.0774704614" lon="-4.0409784690"><ele>562</ele><time>2010-01-01T11:29:08Z</time></trkpt>
<trkpt lat="53.0775180706" lon="-4.0408506450"><ele>561</ele><time>2010-01-01T11:29:16Z</time></trkpt>
<trkpt lat="53.0775883110" lon="-4.0407806561"><ele>560</ele><time>2010-01-01T11:29:24Z</time></trkpt>
<trkpt lat="53.0776634966" lon="-4.0407417640"><ele>558</ele><time>2010-01-01T11:29:33Z</time></trkpt>
<trkpt lat="53.0776883071" lon="-4.0407049675"><ele>556</ele><time>2010-01-01T11:29:40Z</time></trkpt>
<trkpt lat="53.0777313901" lon="-4.0406589508"><ele>554</ele><time>2010-01-01T11:29:47Z</time></trkpt>
<trkpt lat="53.0777686057" lon="-4.0407193005"><ele>551</ele><time>2010-01-01T11:29:55Z</time></trkpt>
<trkpt lat="53.0778012113" lon="-4.0407101643"><ele>550</ele><time>2010-01-01T11:30:00Z</time></trkpt>
<trkpt lat="53.0778095932" lon="-4.0406914726"><ele>550</ele><time>2010-01-01T11:30:07Z</time></trkpt>
<trkpt lat="53.0778481500" lon="-4.0406823363"><ele>550</ele><time>2010-01-01T11:30:15Z</time></trkpt>
<trkpt lat="53.0778882993" lon="-4.0406566877"><ele>549</ele><time>2010-01-01T11:30:21Z</time></trkpt>
<trkpt lat="53.0779227489" lon="-4.0406272672"><ele>550</ele><time>2010-01-01T11:30:28Z</time></trkpt>
<trkpt lat="53.0779595455" lon="-4.0406199750"><ele>549</ele><time>2010-01-01T11:30:35Z</time></trkpt>
<trkpt lat="53.0780240023" lon="-4.0406195559"><ele>548</ele><time>2010-01-01T11:30:44Z</time></trkpt>
<trkpt lat="53.0780804963" lon="-4.0405848548"><ele>547</ele><time>2010-01-01T11:30:51Z</time></trkpt>
<trkpt lat="53.0781277703" lon="-4.0405794904"><ele>547</ele><time>2010-01-01T11:30:57Z</time></trkpt>
<trkpt lat="53.0781411813" lon="-4.0406043008"><ele>547</ele><time>2010-01-01T11:31:01Z</time></trkpt>
<trkpt lat="53.0781650697" lon="-4.0406261776"><ele>545</ele><time>2010-01-01T11:31:08Z</time></trkpt>
<trkpt lat="53.0781985135" lon="-4.0405815859"><ele>543</ele><time>2010-01-01T11:31:16Z</time></trkpt>
<trkpt lat="53.0782183786" lon="-4.0405294504"><ele>542</ele><time>2010-01-01T11:31:22Z</time></trkpt>
<trkpt lat="53.0782597014" lon="-4.0404301249"><ele>540</ele><time>2010-01-01T11:31:30Z</time></trkpt>
<trkpt lat="53.0782825840" lon="-4.0403361637"><ele>539</ele><time>2010-01-01T11:31:37Z</time></trkpt>
<trkpt lat="53.0783043770" lon="-4.0402406939"><ele>538</ele><time>2010-01-01T11:31:45Z</time></trkpt>
<trkpt lat="53.0783399162" lon="-4.0401687771"><ele>537</ele><time>2010-01-01T11:31:52Z</time></trkpt>
<trkpt lat="53.0783640561" lon="-4.0401031468"><ele>537</ele><time>2010-01-01T11:31:58Z</time></trkpt>
<trkpt lat="53.0783689176" lon="-4.0399851296"><ele>536</ele><time>2010-01-01T11:32:06Z</time></trkpt>
<trkpt lat="53.0783658163" lon="-4.0398700461"><ele>535</ele><time>2010-01-01T11:32:15Z</time></trkpt>
<trkpt lat="53.0783701749" lon="-4.0397911724"><ele>534</ele><time>2010-01-01T11:32:22Z</time></trkpt>
<trkpt lat="53.0783858491" lon="-4.0397305712"><ele>532</ele><time>2010-01-01T11:32:30Z</time></trkpt>
<trkpt lat="53.0783944824" lon="-4.0396624264"><ele>531</ele><time>2010-01-01T11:32:38Z</time></trkpt>
<trkpt lat="53.0783936442" lon="-4.0395677947"><ele>530</ele><time>2010-01-01T11:32:46Z</time></trkpt>
<trkpt lat="53.0783938957" lon="-4.0395116359"><ele>530</ele><time>2010-01-01T11:32:52Z</time></trkpt>
<trkpt lat="53.0783928060" lon="-4.0394736659"><ele>529</ele><time>2010-01-01T11:32:58Z</time></trkpt>
<trkpt lat="53.0784021938" lon="-4.0394322593"><ele>529</ele><time>2010-01-01T11:33:04Z</time></trkpt>
<trkpt lat="53.0784094860" lon="-4.0393932834"><ele>528</ele><time>2010-01-01T11:33:11Z</time></trkpt>
<trkpt lat="53.0784106595" lon="-4.0393814650"><ele>528</ele><time>2010-01-01T11:33:17Z</time></trkpt>
<trkpt lat="53.0784114977" lon="-4.0393615999"><ele>528</ele><time>2010-01-01T11:33:25Z</time></trkpt>
<trkpt lat="53.0784132579" lon="-4.0393469315"><ele>529</ele><time>2010-01-01T11:33:32Z</time></trkpt>
<trkpt lat="53.0784158563" lon="-4.0393357836"><ele>529</ele><time>2010-01-01T11:33:38Z</time></trkpt>
<trkpt lat="53.0784260822" lon="-4.0393202771"><ele>529</ele><time>2010-01-01T11:33:50Z</time></trkpt>
<trkpt lat="53.0784347155" lon="-4.0393090453"><ele>528</ele><time>2010-01-01T11:33:57Z</time></trkpt>
<trkpt lat="53.0784342126" lon="-4.0392543953"><ele>528</ele><time>2010-01-01T11:34:04Z</time></trkpt>
<trkpt lat="53.0784311113" lon="-4.0392388888"><ele>528</ele><time>2010-01-01T11:34:09Z</time></trkpt>
<trkpt lat="53.0784231485" lon="-4.0392145813"><ele>528</ele><time>2010-01-01T11:34:15Z</time></trkpt>
<trkpt lat="53.0784151857" lon="-4.0391911958"><ele>529</ele><time>2010-01-01T11:34:24Z</time></trkpt>
<trkpt lat="53.0783951530" lon="-4.0391324386"><ele>528</ele><time>2010-01-01T11:34:33Z</time></trkpt>
<trkpt lat="53.0783752879" lon="-4.0390890204"><ele>526</ele><time>2010-01-01T11:34:41Z</time></trkpt>
<trkpt lat="53.0783861005" lon="-4.0390560795"><ele>527</ele><time>2010-01-01T11:35:05Z</time></trkpt>
<trkpt lat="53.0783819096" lon="-4.0390224680"><ele>528</ele><time>2010-01-01T11:35:28Z</time></trkpt>
<trkpt lat="53.0783809876" lon="-4.0389159341"><ele>525</ele><time>2010-01-01T11:35:35Z</time></trkpt>
<trkpt lat="53.0783793950" lon="-4.0388180334"><ele>524</ele><time>2010-01-01T11:35:41Z</time></trkpt>
<trkpt lat="53.0783729409" lon="-4.0387253296"><ele>523</ele><time>2010-01-01T11:35:46Z</time></trkpt>
<trkpt lat="53.0783489687" lon="-4.0385506507"><ele>522</ele><time>2010-01-01T11:35:56Z</time></trkpt>
<trkpt lat="53.0783638046" lon="-4.0384560190"><ele>521</ele><time>2010-01-01T11:36:03Z</time></trkpt>
<trkpt lat="53.0783552551" lon="-4.0383328889"><ele>521</ele><time>2010-01-01T11:36:11Z</time></trkpt>
<trkpt lat="53.0783557580" lon="-4.0382681806"><ele>520</ele><time>2010-01-01T11:36:17Z</time></trkpt>
<trkpt lat="53.0783684985" lon="-4.0382356588"><ele>519</ele><time>2010-01-01T11:36:25Z</time></trkpt>
<trkpt lat="53.0783640561" lon="-4.0382018797"><ele>517</ele><time>2010-01-01T11:36:31Z</time></trkpt>
<trkpt lat="53.0783369826" lon="-4.0381836910"><ele>516</ele><time>2010-01-01T11:36:38Z</time></trkpt>
<trkpt lat="53.0783032873" lon="-4.0381881334"><ele>515</ele><time>2010-01-01T11:36:45Z</time></trkpt>
<trkpt lat="53.0782843442" lon="-4.0381696932"><ele>514</ele><time>2010-01-01T11:36:50Z</time></trkpt>
<trkpt lat="53.0782888704" lon="-4.0381320585"><ele>513</ele><time>2010-01-01T11:36:57Z</time></trkpt>
<trkpt lat="53.0783053828" lon="-4.0380706191"><ele>511</ele><time>2010-01-01T11:37:05Z</time></trkpt>
<trkpt lat="53.0783273434" lon="-4.0380572919"><ele>510</ele><time>2010-01-01T11:37:12Z</time></trkpt>
<trkpt lat="53.0783529920" lon="-4.0380300507"><ele>510</ele><time>2010-01-01T11:37:18Z</time></trkpt>
<trkpt lat="53.0783659001" lon="-4.0379934218"><ele>510</ele><time>2010-01-01T11:37:24Z</time></trkpt>
<trkpt lat="53.0783690852" lon="-4.0379655939"><ele>509</ele><time>2010-01-01T11:37:30Z</time></trkpt>
<trkpt lat="53.0783858491" lon="-4.0379174818"><ele>507</ele><time>2010-01-01T11:37:38Z</time></trkpt>
<trkpt lat="53.0783991763" lon="-4.0378961917"><ele>507</ele><time>2010-01-01T11:37:45Z</time></trkpt>
<trkpt lat="53.0784011041" lon="-4.0378685314"><ele>506</ele><time>2010-01-01T11:37:51Z</time></trkpt>
<trkpt lat="53.0783882798" lon="-4.0377991293"><ele>504</ele><time>2010-01-01T11:37:58Z</time></trkpt>
<trkpt lat="53.0784260822" lon="-4.0378007218"><ele>503</ele><time>2010-01-01T11:38:05Z</time></trkpt>
<trkpt lat="53.0784648904" lon="-4.0377795994"><ele>500</ele><time>2010-01-01T11:38:12Z</time></trkpt>
<trkpt lat="53.0784704225" lon="-4.0377239436"><ele>498</ele><time>2010-01-01T11:38:19Z</time></trkpt>
<trkpt lat="53.0784560894" lon="-4.0376384482"><ele>496</ele><time>2010-01-01T11:38:28Z</time></trkpt>
<trkpt lat="53.0784556703" lon="-4.0375681240"><ele>495</ele><time>2010-01-01T11:38:34Z</time></trkpt>
<trkpt lat="53.0784749487" lon="-4.0375173297"><ele>494</ele><time>2010-01-01T11:38:40Z</time></trkpt>
<trkpt lat="53.0784705901" lon="-4.0375002306"><ele>492</ele><time>2010-01-01T11:38:47Z</time></trkpt>
<trkpt lat="53.0784565085" lon="-4.0374538787"><ele>491</ele><time>2010-01-01T11:38:55Z</time></trkpt>
<trkpt lat="53.0784612862" lon="-4.0374095384"><ele>491</ele><time>2010-01-01T11:39:01Z</time></trkpt>
<trkpt lat="53.0784411696" lon="-4.0373249650"><ele>489</ele><time>2010-01-01T11:39:09Z</time></trkpt>
<trkpt lat="53.0784332906" lon="-4.0372217838"><ele>488</ele><time>2010-01-01T11:39:18Z</time></trkpt>
<trkpt lat="53.0784420078" lon="-4.0371330194"><ele>487</ele><time>2010-01-01T11:39:27Z</time></trkpt>
<trkpt lat="53.0784480428" lon="-4.0371297505"><ele>487</ele><time>2010-01-01T11:39:51Z</time></trkpt>
<trkpt lat="53.0784489648" lon="-4.0371288285"><ele>487</ele><time>2010-01-01T11:39:59Z</time></trkpt>
<trkpt lat="53.0784440195" lon="-4.0371157527"><ele>486</ele><time>2010-01-01T11:40:16Z</time></trkpt>
<trkpt lat="53.0784342965" lon="-4.0370597616"><ele>485</ele><time>2010-01-01T11:40:23Z</time></trkpt>
<trkpt lat="53.0784176165" lon="-4.0370225460"><ele>482</ele><time>2010-01-01T11:40:30Z</time></trkpt>
<trkpt lat="53.0784415887" lon="-4.0370003339"><ele>479</ele><time>2010-01-01T11:40:38Z</time></trkpt>
<trkpt lat="53.0784482942" lon="-4.0369612742"><ele>478</ele><time>2010-01-01T11:40:43Z</time></trkpt>
<trkpt lat="53.0784300217" lon="-4.0369187780"><ele>476</ele><time>2010-01-01T11:40:50Z</time></trkpt>
<trkpt lat="53.0784228132" lon="-4.0369038582"><ele>476</ele><time>2010-01-01T11:40:56Z</time></trkpt>
<trkpt lat="53.0784375654" lon="-4.0368832387"><ele>474</ele><time>2010-01-01T11:41:06Z</time></trkpt>
<trkpt lat="53.0784492162" lon="-4.0368661396"><ele>473</ele><time>2010-01-01T11:41:13Z</time></trkpt>
<trkpt lat="53.0784332068" lon="-4.0368358810"><ele>471</ele><time>2010-01-01T11:41:20Z</time></trkpt>
<trkpt lat="53.0783897885" lon="-4.0367970728"><ele>470</ele><time>2010-01-01T11:41:27Z</time></trkpt>
<trkpt lat="53.0783366473" lon="-4.0367067997"><ele>470</ele><time>2010-01-01T11:41:35Z</time></trkpt>
<trkpt lat="53.0782938996" lon="-4.0365950689"><ele>469</ele><time>2010-01-01T11:41:43Z</time></trkpt>
<trkpt lat="53.0782659878" lon="-4.0365084000"><ele>470</ele><time>2010-01-01T11:41:51Z</time></trkpt>
<trkpt lat="53.0782537503" lon="-4.0364703462"><ele>470</ele><time>2010-01-01T11:41:57Z</time></trkpt>
<trkpt lat="53.0782468771" lon="-4.0363643989"><ele>470</ele><time>2010-01-01T11:42:07Z</time></trkpt>
<trkpt lat="53.0782680833" lon="-4.0362939909"><ele>470</ele><time>2010-01-01T11:42:14Z</time></trkpt>
<trkpt lat="53.0782741183" lon="-4.0362004489"><ele>468</ele><time>2010-01-01T11:42:22Z</time></trkpt>
<trkpt lat="53.0782644791" lon="-4.0361346509"><ele>467</ele><time>2010-01-01T11:42:29Z</time></trkpt>
<trkpt lat="53.0782571868" lon="-4.0360710323"><ele>465</ele><time>2010-01-01T11:42:36Z</time></trkpt>
<trkpt lat="53.0782582765" lon="-4.0360339843"><ele>463</ele><time>2010-01-01T11:42:43Z</time></trkpt>
<trkpt lat="53.0782453684" lon="-4.0358971916"><ele>463</ele><time>2010-01-01T11:42:51Z</time></trkpt>
<trkpt lat="53.0782332984" lon="-4.0357986204"><ele>462</ele><time>2010-01-01T11:42:57Z</time></trkpt>
<trkpt lat="53.0782335499" lon="-4.0357621592"><ele>463</ele><time>2010-01-01T11:43:05Z</time></trkpt>
<trkpt lat="53.0782265929" lon="-4.0357078444"><ele>463</ele><time>2010-01-01T11:43:12Z</time></trkpt>
<trkpt lat="53.0782029559" lon="-4.0356010590"><ele>463</ele><time>2010-01-01T11:43:20Z</time></trkpt>
<trkpt lat="53.0781969210" lon="-4.0355180782"><ele>462</ele><time>2010-01-01T11:43:29Z</time></trkpt>
<trkpt lat="53.0782177081" lon="-4.0354721453"><ele>461</ele><time>2010-01-01T11:43:36Z</time></trkpt>
<trkpt lat="53.0782044647" lon="-4.0353939422"><ele>460</ele><time>2010-01-01T11:43:44Z</time></trkpt>
<trkpt lat="53.0781853539" lon="-4.0352952872"><ele>460</ele><time>2010-01-01T11:43:54Z</time></trkpt>
<trkpt lat="53.0781649021" lon="-4.0352154914"><ele>459</ele><time>2010-01-01T11:44:02Z</time></trkpt>
<trkpt lat="53.0781359845" lon="-4.0351038445"><ele>458</ele><time>2010-01-01T11:44:09Z</time></trkpt>
<trkpt lat="53.0781003614" lon="-4.0349742603"><ele>457</ele><time>2010-01-01T11:44:18Z</time></trkpt>
<trkpt lat="53.0780742937" lon="-4.0348356236"><ele>456</ele><time>2010-01-01T11:44:27Z</time></trkpt>
<trkpt lat="53.0780796581" lon="-4.0347785428"><ele>455</ele><time>2010-01-01T11:44:34Z</time></trkpt>
<trkpt lat="53.0780732041" lon="-4.0347502958"><ele>455</ele><time>2010-01-01T11:44:41Z</time></trkpt>
<trkpt lat="53.0780910575" lon="-4.0347107332"><ele>455</ele><time>2010-01-01T11:44:48Z</time></trkpt>
<trkpt lat="53.0780644031" lon="-4.0346211307"><ele>455</ele><time>2010-01-01T11:44:55Z</time></trkpt>
<trkpt lat="53.0780672529" lon="-4.0345011018"><ele>453</ele><time>2010-01-01T11:45:04Z</time></trkpt>
<trkpt lat="53.0780628943" lon="-4.0343742836"><ele>451</ele><time>2010-01-01T11:45:13Z</time></trkpt>
<trkpt lat="53.0780682587" lon="-4.0342973378"><ele>450</ele><time>2010-01-01T11:45:19Z</time></trkpt>
<trkpt lat="53.0780767245" lon="-4.0342252534"><ele>449</ele><time>2010-01-01T11:45:26Z</time></trkpt>
<trkpt lat="53.0780783170" lon="-4.0341830924"><ele>447</ele><time>2010-01-01T11:45:33Z</time></trkpt>
<trkpt lat="53.0780924824" lon="-4.0341236647"><ele>446</ele><time>2010-01-01T11:45:39Z</time></trkpt>
<trkpt lat="53.0780893811" lon="-4.0340466350"><ele>444</ele><time>2010-01-01T11:45:45Z</time></trkpt>
<trkpt lat="53.0780976792" lon="-4.0340224952"><ele>443</ele><time>2010-01-01T11:45:51Z</time></trkpt>
<trkpt lat="53.0781038818" lon="-4.0339696892"><ele>443</ele><time>2010-01-01T11:45:59Z</time></trkpt>
<trkpt lat="53.0781050553" lon="-4.0338559468"><ele>442</ele><time>2010-01-01T11:46:06Z</time></trkpt>
<trkpt lat="53.0781203104" lon="-4.0337648355"><ele>441</ele><time>2010-01-01T11:46:12Z</time></trkpt>
<trkpt lat="53.0781478030" lon="-4.0336061660"><ele>440</ele><time>2010-01-01T11:46:21Z</time></trkpt>
<trkpt lat="53.0781628904" lon="-4.0335040745"><ele>440</ele><time>2010-01-01T11:46:27Z</time></trkpt>
<trkpt lat="53.0781602920" lon="-4.0334902443"><ele>440</ele><time>2010-01-01T11:46:41Z</time></trkpt>
<trkpt lat="53.0781556820" lon="-4.0334822815"><ele>441</ele><time>2010-01-01T11:47:04Z</time></trkpt>
<trkpt lat="53.0781591186" lon="-4.0334715527"><ele>439</ele><time>2010-01-01T11:47:27Z</time></trkpt>
<trkpt lat="53.0781557658" lon="-4.0334789287"><ele>440</ele><time>2010-01-01T11:47:35Z</time></trkpt>
<trkpt lat="53.0781529160" lon="-4.0334309004"><ele>442</ele><time>2010-01-01T11:47:42Z</time></trkpt>
<trkpt lat="53.0781610464" lon="-4.0332855582"><ele>443</ele><time>2010-01-01T11:47:51Z</time></trkpt>
<trkpt lat="53.0781747089" lon="-4.0331423953"><ele>440</ele><time>2010-01-01T11:48:01Z</time></trkpt>
<trkpt lat="53.0781605435" lon="-4.0329815466"><ele>438</ele><time>2010-01-01T11:48:11Z</time></trkpt>
<trkpt lat="53.0781775588" lon="-4.0329005774"><ele>438</ele><time>2010-01-01T11:48:18Z</time></trkpt>
<trkpt lat="53.0781706856" lon="-4.0328033473"><ele>438</ele><time>2010-01-01T11:48:25Z</time></trkpt>
<trkpt lat="53.0781795704" lon="-4.0327388905"><ele>437</ele><time>2010-01-01T11:48:32Z</time></trkpt>
<trkpt lat="53.0781946578" lon="-4.0326757748"><ele>436</ele><time>2010-01-01T11:48:41Z</time></trkpt>
<trkpt lat="53.0782168699" lon="-4.0325583443"><ele>435</ele><time>2010-01-01T11:48:48Z</time></trkpt>
<trkpt lat="53.0782591147" lon="-4.0324452724"><ele>431</ele><time>2010-01-01T11:48:57Z</time></trkpt>
<trkpt lat="53.0782996831" lon="-4.0323126707"><ele>428</ele><time>2010-01-01T11:49:06Z</time></trkpt>
<trkpt lat="53.0783271757" lon="-4.0321896244"><ele>427</ele><time>2010-01-01T11:49:15Z</time></trkpt>
<trkpt lat="53.0783306123" lon="-4.0321490560"><ele>426</ele><time>2010-01-01T11:49:22Z</time></trkpt>
<trkpt lat="53.0783405030" lon="-4.0320832580"><ele>426</ele><time>2010-01-01T11:49:29Z</time></trkpt>
<trkpt lat="53.0783646428" lon="-4.0319714435"><ele>425</ele><time>2010-01-01T11:49:37Z</time></trkpt>
<trkpt lat="53.0784050436" lon="-4.0318748839"><ele>423</ele><time>2010-01-01T11:49:45Z</time></trkpt>
<trkpt lat="53.0784635493" lon="-4.0317440424"><ele>421</ele><time>2010-01-01T11:49:56Z</time></trkpt>
<trkpt lat="53.0784831630" lon="-4.0316160508"><ele>420</ele><time>2010-01-01T11:50:05Z</time></trkpt>
<trkpt lat="53.0784635493" lon="-4.0315039009"><ele>419</ele><time>2010-01-01T11:50:12Z</time></trkpt>
<trkpt lat="53.0784337097" lon="-4.0314200819"><ele>419</ele><time>2010-01-01T11:50:17Z</time></trkpt>
<trkpt lat="53.0784135932" lon="-4.0313378554"><ele>418</ele><time>2010-01-01T11:50:25Z</time></trkpt>
<trkpt lat="53.0783837536" lon="-4.0312977899"><ele>416</ele><time>2010-01-01T11:50:31Z</time></trkpt>
<trkpt lat="53.0783618768" lon="-4.0312184971"><ele>414</ele><time>2010-01-01T11:50:39Z</time></trkpt>
<trkpt lat="53.0783767128" lon="-4.0311192554"><ele>414</ele><time>2010-01-01T11:50:47Z</time></trkpt>
<trkpt lat="53.0783899562" lon="-4.0310667846"><ele>415</ele><time>2010-01-01T11:50:53Z</time></trkpt>
<trkpt lat="53.0783872740" lon="-4.0309713986"><ele>415</ele><time>2010-01-01T11:51:00Z</time></trkpt>
<trkpt lat="53.0783850109" lon="-4.0308746714"><ele>413</ele><time>2010-01-01T11:51:10Z</time></trkpt>
<trkpt lat="53.0783943148" lon="-4.0307537206"><ele>412</ele><time>2010-01-01T11:51:18Z</time></trkpt>
<trkpt lat="53.0783684147" lon="-4.0306288302"><ele>412</ele><time>2010-01-01T11:51:25Z</time></trkpt>
<trkpt lat="53.0783466217" lon="-4.0305586737"><ele>412</ele><time>2010-01-01T11:51:29Z</time></trkpt>
<trkpt lat="53.0783560095" lon="-4.0304947198"><ele>412</ele><time>2010-01-01T11:51:33Z</time></trkpt>
<trkpt lat="53.0784307761" lon="-4.0304297600"><ele>412</ele><time>2010-01-01T11:51:42Z</time></trkpt>
<trkpt lat="53.0785073028" lon="-4.0303816479"><ele>413</ele><time>2010-01-01T11:51:51Z</time></trkpt>
<trkpt lat="53.0785813150" lon="-4.0303267464"><ele>413</ele><time>2010-01-01T11:51:59Z</time></trkpt>
<trkpt lat="53.0786638768" lon="-4.0302064661"><ele>413</ele><time>2010-01-01T11:52:09Z</time></trkpt>
<trkpt lat="53.0787424152" lon="-4.0301517323"><ele>413</ele><time>2010-01-01T11:52:17Z</time></trkpt>
<trkpt lat="53.0787979872" lon="-4.0301040393"><ele>413</ele><time>2010-01-01T11:52:25Z</time></trkpt>
<trkpt lat="53.0788270724" lon="-4.0300741997"><ele>413</ele><time>2010-01-01T11:52:31Z</time></trkpt>
<trkpt lat="53.0788680599" lon="-4.0300233215"><ele>412</ele><time>2010-01-01T11:52:36Z</time></trkpt>
<trkpt lat="53.0788808843" lon="-4.0299410951"><ele>412</ele><time>2010-01-01T11:52:42Z</time></trkpt>
<trkpt lat="53.0788818901" lon="-4.0298398417"><ele>413</ele><time>2010-01-01T11:52:49Z</time></trkpt>
<trkpt lat="53.0789082931" lon="-4.0297938250"><ele>413</ele><time>2010-01-01T11:52:56Z</time></trkpt>
<trkpt lat="53.0789302537" lon="-4.0297262669"><ele>412</ele><time>2010-01-01T11:53:03Z</time></trkpt>
<trkpt lat="53.0789556508" lon="-4.0296625644"><ele>412</ele><time>2010-01-01T11:53:10Z</time></trkpt>
<trkpt lat="53.0789455925" lon="-4.0296127759"><ele>412</ele><time>2010-01-01T11:53:15Z</time></trkpt>
<trkpt lat="53.0789213688" lon="-4.0295207426"><ele>411</ele><time>2010-01-01T11:53:22Z</time></trkpt>
<trkpt lat="53.0789217879" lon="-4.0294265300"><ele>411</ele><time>2010-01-01T11:53:29Z</time></trkpt>
<trkpt lat="53.0789460955" lon="-4.0293493327"><ele>410</ele><time>2010-01-01T11:53:35Z</time></trkpt>
<trkpt lat="53.0789328521" lon="-4.0292890668"><ele>411</ele><time>2010-01-01T11:53:40Z</time></trkpt>
<trkpt lat="53.0789305889" lon="-4.0291941837"><ele>412</ele><time>2010-01-01T11:53:47Z</time></trkpt>
<trkpt lat="53.0789457602" lon="-4.0291144718"><ele>412</ele><time>2010-01-01T11:53:53Z</time></trkpt>
<trkpt lat="53.0789751807" lon="-4.0290052556"><ele>411</ele><time>2010-01-01T11:54:01Z</time></trkpt>
<trkpt lat="53.0789844008" lon="-4.0289857257"><ele>413</ele><time>2010-01-01T11:54:21Z</time></trkpt>
<trkpt lat="53.0789869153" lon="-4.0289211851"><ele>413</ele><time>2010-01-01T11:54:28Z</time></trkpt>
<trkpt lat="53.0789856580" lon="-4.0288437363"><ele>413</ele><time>2010-01-01T11:54:35Z</time></trkpt>
<trkpt lat="53.0789993205" lon="-4.0287581571"><ele>415</ele><time>2010-01-01T11:54:41Z</time></trkpt>
<trkpt lat="53.0790071995" lon="-4.0286521260"><ele>415</ele><time>2010-01-01T11:54:48Z</time></trkpt>
<trkpt lat="53.0789928665" lon="-4.0285614338"><ele>415</ele><time>2010-01-01T11:54:55Z</time></trkpt>
<trkpt lat="53.0789859933" lon="-4.0284832306"><ele>416</ele><time>2010-01-01T11:55:01Z</time></trkpt>
<trkpt lat="53.0790052717" lon="-4.0284209531"><ele>415</ele><time>2010-01-01T11:55:06Z</time></trkpt>
<trkpt lat="53.0790244663" lon="-4.0282747727"><ele>414</ele><time>2010-01-01T11:55:15Z</time></trkpt>
<trkpt lat="53.0790238795" lon="-4.0282269959"><ele>414</ele><time>2010-01-01T11:55:21Z</time></trkpt>
<trkpt lat="53.0790253883" lon="-4.0281574261"><ele>414</ele><time>2010-01-01T11:55:27Z</time></trkpt>
<trkpt lat="53.0790393860" lon="-4.0280774627"><ele>414</ele><time>2010-01-01T11:55:36Z</time></trkpt>
<trkpt lat="53.0790595026" lon="-4.0280299373"><ele>414</ele><time>2010-01-01T11:55:41Z</time></trkpt>
<trkpt lat="53.0791000710" lon="-4.0279004369"><ele>415</ele><time>2010-01-01T11:55:52Z</time></trkpt>
<trkpt lat="53.0791128115" lon="-4.0278036259"><ele>415</ele><time>2010-01-01T11:55:57Z</time></trkpt>
<trkpt lat="53.0791434893" lon="-4.0276217386"><ele>416</ele><time>2010-01-01T11:56:07Z</time></trkpt>
<trkpt lat="53.0791689703" lon="-4.0274635721"><ele>417</ele><time>2010-01-01T11:56:16Z</time></trkpt>
<trkpt lat="53.0792383724" lon="-4.0273716226"><ele>416</ele><time>2010-01-01T11:56:25Z</time></trkpt>
<trkpt lat="53.0793117979" lon="-4.0272665974"><ele>415</ele><time>2010-01-01T11:56:35Z</time></trkpt>
<trkpt lat="53.0793635142" lon="-4.0271633323"><ele>414</ele><time>2010-01-01T11:56:43Z</time></trkpt>
<trkpt lat="53.0794286416" lon="-4.0269957781"><ele>413</ele><time>2010-01-01T11:56:55Z</time></trkpt>
<trkpt lat="53.0794591518" lon="-4.0268651880"><ele>410</ele><time>2010-01-01T11:57:04Z</time></trkpt>
<trkpt lat="53.0794796036" lon="-4.0267717298"><ele>409</ele><time>2010-01-01T11:57:11Z</time></trkpt>
<trkpt lat="53.0795270452" lon="-4.0266554728"><ele>408</ele><time>2010-01-01T11:57:20Z</time></trkpt>
<trkpt lat="53.0795769175" lon="-4.0265431553"><ele>406</ele><time>2010-01-01T11:57:28Z</time></trkpt>
<trkpt lat="53.0796184917" lon="-4.0264064465"><ele>405</ele><time>2010-01-01T11:57:37Z</time></trkpt>
<trkpt lat="53.0796435536" lon="-4.0262588412"><ele>404</ele><time>2010-01-01T11:57:46Z</time></trkpt>
<trkpt lat="53.0796770812" lon="-4.0261551570"><ele>403</ele><time>2010-01-01T11:57:54Z</time></trkpt>
<trkpt lat="53.0797008020" lon="-4.0260811448"><ele>401</ele><time>2010-01-01T11:58:01Z</time></trkpt>
<trkpt lat="53.0797360060" lon="-4.0259568412"><ele>402</ele><time>2010-01-01T11:58:09Z</time></trkpt>
<trkpt lat="53.0797857945" lon="-4.0258258321"><ele>401</ele><time>2010-01-01T11:58:18Z</time></trkpt>
<trkpt lat="53.0798552805" lon="-4.0257142689"><ele>401</ele><time>2010-01-01T11:58:27Z</time></trkpt>
<trkpt lat="53.0799377584" lon="-4.0256519914"><ele>400</ele><time>2010-01-01T11:58:36Z</time></trkpt>
<trkpt lat="53.0800139499" lon="-4.0256203916"><ele>400</ele><time>2010-01-01T11:58:45Z</time></trkpt>
<trkpt lat="53.0800699410" lon="-4.0255694296"><ele>399</ele><time>2010-01-01T11:58:52Z</time></trkpt>
<trkpt lat="53.0801046421" lon="-4.0254961718"><ele>398</ele><time>2010-01-01T11:58:59Z</time></trkpt>
<trkpt lat="53.0801178017" lon="-4.0253892187"><ele>398</ele><time>2010-01-01T11:59:07Z</time></trkpt>
<trkpt lat="53.0801403490" lon="-4.0253303778"><ele>397</ele><time>2010-01-01T11:59:14Z</time></trkpt>
<trkpt lat="53.0801562746" lon="-4.0252502468"><ele>395</ele><time>2010-01-01T11:59:20Z</time></trkpt>
<trkpt lat="53.0801538439" lon="-4.0251570400"><ele>395</ele><time>2010-01-01T11:59:26Z</time></trkpt>
<trkpt lat="53.0801805822" lon="-4.0250604805"><ele>393</ele><time>2010-01-01T11:59:33Z</time></trkpt>
<trkpt lat="53.0801935741" lon="-4.0250280425"><ele>393</ele><time>2010-01-01T11:59:38Z</time></trkpt>
<trkpt lat="53.0802025427" lon="-4.0249937605"><ele>395</ele><time>2010-01-01T11:59:52Z</time></trkpt>
<trkpt lat="53.0801999444" lon="-4.0249286331"><ele>395</ele><time>2010-01-01T12:00:00Z</time></trkpt>
<trkpt lat="53.0801892993" lon="-4.0248458199"><ele>395</ele><time>2010-01-01T12:00:07Z</time></trkpt>
<trkpt lat="53.0801999444" lon="-4.0247019865"><ele>395</ele><time>2010-01-01T12:00:16Z</time></trkpt>
<trkpt lat="53.0802437817" lon="-4.0246109590"><ele>393</ele><time>2010-01-01T12:00:24Z</time></trkpt>
<trkpt lat="53.0802490623" lon="-4.0245341808"><ele>392</ele><time>2010-01-01T12:00:29Z</time></trkpt>
<trkpt lat="53.0802560193" lon="-4.0244845599"><ele>393</ele><time>2010-01-01T12:00:35Z</time></trkpt>
<trkpt lat="53.0802558517" lon="-4.0244834703"><ele>393</ele><time>2010-01-01T12:00:36Z</time></trkpt>
<trkpt lat="53.0802530856" lon="-4.0244188458"><ele>392</ele><time>2010-01-01T12:00:43Z</time></trkpt>
<trkpt lat="53.0802712744" lon="-4.0243741702"><ele>391</ele><time>2010-01-01T12:00:48Z</time></trkpt>
<trkpt lat="53.0803260082" lon="-4.0242846515"><ele>389</ele><time>2010-01-01T12:00:59Z</time></trkpt>
<trkpt lat="53.0803441131" lon="-4.0242459271"><ele>388</ele><time>2010-01-01T12:01:06Z</time></trkpt>
<trkpt lat="53.0803581109" lon="-4.0242147464"><ele>387</ele><time>2010-01-01T12:01:11Z</time></trkpt>
<trkpt lat="53.0803801553" lon="-4.0241471883"><ele>385</ele><time>2010-01-01T12:01:18Z</time></trkpt>
<trkpt lat="53.0804104139" lon="-4.0240506288"><ele>383</ele><time>2010-01-01T12:01:26Z</time></trkpt>
<trkpt lat="53.0804147725" lon="-4.0239323601"><ele>383</ele><time>2010-01-01T12:01:33Z</time></trkpt>
<trkpt lat="53.0804151078" lon="-4.0238612816"><ele>381</ele><time>2010-01-01T12:01:39Z</time></trkpt>
<trkpt lat="53.0804159460" lon="-4.0237942264"><ele>380</ele><time>2010-01-01T12:01:43Z</time></trkpt>
<trkpt lat="53.0804143534" lon="-4.0237077251"><ele>379</ele><time>2010-01-01T12:01:49Z</time></trkpt>
<trkpt lat="53.0804252499" lon="-4.0236881953"><ele>378</ele><time>2010-01-01T12:01:54Z</time></trkpt>
<trkpt lat="53.0804506471" lon="-4.0236446932"><ele>376</ele><time>2010-01-01T12:02:01Z</time></trkpt>
<trkpt lat="53.0804609568" lon="-4.0235617962"><ele>375</ele><time>2010-01-01T12:02:07Z</time></trkpt>
<trkpt lat="53.0804749546" lon="-4.0235091578"><ele>373</ele><time>2010-01-01T12:02:13Z</time></trkpt>
<trkpt lat="53.0804996812" lon="-4.0234576929"><ele>372</ele><time>2010-01-01T12:02:19Z</time></trkpt>
<trkpt lat="53.0805058000" lon="-4.0233363230"><ele>371</ele><time>2010-01-01T12:02:26Z</time></trkpt>
<trkpt lat="53.0805063029" lon="-4.0233007837"><ele>371</ele><time>2010-01-01T12:02:28Z</time></trkpt>
<trkpt lat="53.0805078117" lon="-4.0231106822"><ele>371</ele><time>2010-01-01T12:02:39Z</time></trkpt>
<trkpt lat="53.0805205522" lon="-4.0229716264"><ele>372</ele><time>2010-01-01T12:02:49Z</time></trkpt>
<trkpt lat="53.0805192111" lon="-4.0228509270"><ele>373</ele><time>2010-01-01T12:02:56Z</time></trkpt>
<trkpt lat="53.0805213065" lon="-4.0227299761"><ele>374</ele><time>2010-01-01T12:03:04Z</time></trkpt>
<trkpt lat="53.0805129246" lon="-4.0225796886"><ele>374</ele><time>2010-01-01T12:03:13Z</time></trkpt>
<trkpt lat="53.0805049618" lon="-4.0224288982"><ele>374</ele><time>2010-01-01T12:03:22Z</time></trkpt>
<trkpt lat="53.0805210551" lon="-4.0223547183"><ele>374</ele><time>2010-01-01T12:03:29Z</time></trkpt>
<trkpt lat="53.0805155230" lon="-4.0222207755"><ele>372</ele><time>2010-01-01T12:03:37Z</time></trkpt>
<trkpt lat="53.0805133437" lon="-4.0222020839"><ele>372</ele><time>2010-01-01T12:03:38Z</time></trkpt>
<trkpt lat="53.0804959094" lon="-4.0219871719"><ele>371</ele><time>2010-01-01T12:03:50Z</time></trkpt>
<trkpt lat="53.0804666565" lon="-4.0217938013"><ele>370</ele><time>2010-01-01T12:04:01Z</time></trkpt>
<trkpt lat="53.0804277645" lon="-4.0215926357"><ele>369</ele><time>2010-01-01T12:04:13Z</time></trkpt>
<trkpt lat="53.0804545866" lon="-4.0214716848"><ele>366</ele><time>2010-01-01T12:04:22Z</time></trkpt>
<trkpt lat="53.0804762957" lon="-4.0213665757"><ele>364</ele><time>2010-01-01T12:04:30Z</time></trkpt>
<trkpt lat="53.0804867731" lon="-4.0212389194"><ele>363</ele><time>2010-01-01T12:04:38Z</time></trkpt>
<trkpt lat="53.0805100748" lon="-4.0211503226"><ele>363</ele><time>2010-01-01T12:04:45Z</time></trkpt>
<trkpt lat="53.0805089013" lon="-4.0211195611"><ele>364</ele><time>2010-01-01T12:04:55Z</time></trkpt>
<trkpt lat="53.0805007709" lon="-4.0211228300"><ele>365</ele><time>2010-01-01T12:05:05Z</time></trkpt>
<trkpt lat="53.0804944844" lon="-4.0211079940"><ele>365</ele><time>2010-01-01T12:05:14Z</time></trkpt>
<trkpt lat="53.0804861864" lon="-4.0211104248"><ele>364</ele><time>2010-01-01T12:05:20Z</time></trkpt>
<trkpt lat="53.0804910479" lon="-4.0211088322"><ele>365</ele><time>2010-01-01T12:05:41Z</time></trkpt>
<trkpt lat="53.0804907126" lon="-4.0211033840"><ele>365</ele><time>2010-01-01T12:05:47Z</time></trkpt>
<trkpt lat="53.0804920537" lon="-4.0211044736"><ele>365</ele><time>2010-01-01T12:05:56Z</time></trkpt>
<trkpt lat="53.0804878627" lon="-4.0211043898"><ele>366</ele><time>2010-01-01T12:06:06Z</time></trkpt>
<trkpt lat="53.0804951550" lon="-4.0211327206"><ele>366</ele><time>2010-01-01T12:06:41Z</time></trkpt>
<trkpt lat="53.0804907126" lon="-4.0211220756"><ele>367</ele><time>2010-01-01T12:06:56Z</time></trkpt>
<trkpt lat="53.0804930595" lon="-4.0211328883"><ele>367</ele><time>2010-01-01T12:07:11Z</time></trkpt>
</trkseg>
</trk>
</gpx>